     2              OBSERVATION DATA    GPS                 RINEX VERSION / TYPE
ASRINEXO V2.8.2 VM                                          PGM / RUN BY / DATE
                                                            COMMENT
Original Marker Name: PALO                                  COMMENT
Campaign Name: HPGN 1991                                    COMMENT
4-Character Station Name: PALO                              COMMENT
6-Character Antenna Code: ASHL12                            COMMENT
Vertical Measurement Point: BAS                             COMMENT
Vertical Offset to Rinex Ref. Point: 0.0000                 COMMENT
Radial Measurement Point: RRP                               COMMENT
Radial Offset to Rinex Ref. Point: 0.0000                   COMMENT
Antenna Height from Field Measurement: 2.2200 m             COMMENT
Additional Antenna Identification Info.:                    COMMENT
Original Ashtech L1/L2                                      COMMENT
Original XYZ: 6378137.0000 0.0000 0.0000                    COMMENT
New XYZ position is based on association with SCEC monument COMMENT
E1C7V2S0+0011. Position of that monument is believed to be  COMMENT
valid to within 1 m horizontally; vertical accuracy         COMMENT
should be no worse than 3-times this value.                 COMMENT
                                                            COMMENT
Revised Rinex header created by UCSD GPS archive for        COMMENT
GSAC on 05-Apr-1999 (1999:095) 22:33:39 GMT                 COMMENT
For assistance contact dagnew@ucsd.edu or hjohnson@ucsd.edu COMMENT
                                                            COMMENT
PALOS VERDES AIRES 1976-1980                                MARKER NAME
PTD CALIF DEPT TRANSPORTATION                               OBSERVER / AGENCY
572 ASHTECH L-XII3 6A                                       REC # / TYPE / VERS
642 ASHTECH GEODETIC L                                      ANT # / TYPE
 -2525453.0000 -4670035.0000  3522887.0000                  APPROX POSITION XYZ
        2.2200        0.0000        0.0000                  ANTENNA: DELTA H/E/N
     1     2     0                                          WAVELENGTH FACT L1/2
     3    C1    L1    L2                                    # / TYPES OF OBSERV
     0                                                      INTERVAL
  1991     4    24    19    54   15.000000                  TIME OF FIRST OBS
  1991     4    25     1    54    0.000000                  TIME OF LAST OBS
     0                                                      # OF SATELLITES
                                                            END OF HEADER
 91  4 24 19 54 15.0000000  0  1 19
  29301555.349           0.170 3         0.326 3
 91  4 24 19 54 30.0000000  0  1 19
  29300079.183       -7740.215 3     -6031.146 3
 91  4 24 19 54 45.0000000  0  1 19
  29298619.786      -15409.070 3    -12006.882 2
 91  4 24 19 55  0.0000000  0  1 19
  29297181.382      -22964.346 3    -17894.114 2
 91  4 24 19 55 15.0000000  0  2 19 02
  30195145.541      -30383.484 3    -23675.253 3
  32868969.882           0.498 2         0.267 1
 91  4 24 19 55 30.0000000  0  2 19 02
  30193767.392      -37650.957 3    -29338.213 3
  32859245.818      -51098.499 2    -39817.012 1
 91  4 24 19 55 45.0000000  0  2 19 02
  29592821.715      -44767.574 3    -34883.632 3
  32249967.417     -102042.229 2    -79513.240 1
 91  4 24 19 56  0.0000000  0  2 19 02
  29591502.932      -51729.637 3    -40308.610 2
  32240308.407     -152815.140 2   -119076.386 1
 91  4 24 19 56 15.0000000  0  3 19 11 02
  29590205.735      -58533.108 3    -45610.028 3
  32319711.121           0.953 2         0.237 1
  32230676.358     -203418.948 2   -158507.790 1
 91  4 24 19 56 30.0000000  0  3 19 11 02
  29588943.596      -65180.260 3    -50789.625 2
  32313334.550      -33521.567 2    -26121.093 1
  32221077.011     -253855.616 2   -197808.989 1
 91  4 24 19 56 45.0000000  0  4 19 11 18 02
  29587706.951      -71670.650 3    -55847.061 2
  32306996.927      -66824.746 2    -52071.522 1
  29408188.534           0.850 4         0.191 3
  32211511.238     -304124.488 2   -236979.410 1
 91  4 24 19 57  0.0000000  0  4 19 11 18 02
  29586500.600      -78006.039 3    -60783.731 3
  32300698.585      -99910.018 2    -77852.157 1
  29410993.395       14734.282 4     11480.738 3
  32201980.226     -354227.315 2   -276020.436 1
 91  4 24 19 57 15.0000000  0  4 19 11 18 02
  20891340.527        1436.210 3      1119.254 2
  23600452.838      122872.191 2     95744.584 1
  20719861.635      -32982.143 4    -25700.681 3
  23498482.037      143667.020 2    111948.975 1
 91  4 24 19 57 30.0000000  0  4 19 11 18 02
  20890194.711       -4596.710 3     -3581.731 2
  23594241.747       90216.484 2     70298.678 1
  20722751.042      -17805.441 4    -13874.728 3
  23489001.997       93889.117 2     73161.101 1
 91  4 24 19 57 45.0000000  0  4 19 11 18 02
  20889069.905      -10486.070 3     -8170.835 3
  23588068.122       57768.404 2     45014.537 1
  20725679.119       -2414.590 4     -1881.900 3
  23479555.234       44266.498 2     34494.255 1
 91  4 24 19 58  0.0000000  0  4 19 11 18 02
  20887978.655      -16233.096 3    -12649.032 2
  23581929.868       25527.236 2     19891.661 1
  20728648.256       13189.266 4     10276.898 3
  23470143.250       -5201.865 2     -4052.410 1
 91  4 24 19 58 15.0000000  0  4 19 11 18 02
  20886911.086      -21837.719 3    -17016.273 2
  23575835.694       -6506.582 2     -5069.675 1
  20731659.378       29006.036 4     22601.615 3
  23460763.356      -54515.780 2    -42478.695 1
 91  4 24 19 58 30.0000000  0  4 19 11 18 02
  20885875.311      -27299.762 3    -21272.408 3
  23569781.672      -38332.697 2    -29869.190 1
  20734712.765       45035.773 4     35092.276 3
  23451414.018     -103675.010 2    -80784.452 2
 91  4 24 19 58 45.0000000  0  4 19 11 18 02
  20884856.009      -32623.132 3    -25420.487 3
  23563762.743      -69954.734 2    -54509.614 1
  20737799.726       61274.394 4     47745.702 3
  23442076.686     -152683.475 2   -118972.728 2
 91  4 24 19 59  0.0000000  0  4 19 11 18 02
  20883877.784      -37806.462 3    -29459.453 3
  23557779.796     -101370.734 2    -78989.518 1
  20740928.951       77723.481 4     60563.123 3
  23432782.229     -201539.354 2   -157042.106 2
 91  4 24 19 59 15.0000000  0  4 19 11 18 02
  20882913.956      -42848.964 3    -33388.682 3
  23551840.894     -132579.664 2   -103308.125 1
  20744100.755       94383.901 4     73545.228 3
  23423514.139     -250241.715 2   -194991.884 1
 91  4 24 19 59 30.0000000  0  4 19 11 18 02
  20881984.610      -47752.514 3    -37209.624 3
  23545944.884     -163583.025 2   -127466.440 1
  20747309.431      111253.567 4     86690.370 3
  23414279.938     -298792.391 2   -232823.463 1
 91  4 24 19 59 45.0000000  0  4 19 11 18 02
  20881077.129      -52514.616 3    -40920.357 3
  23540078.540     -194378.119 2   -151462.540 1
  20750559.482      128334.779 4    100000.365 3
  23405067.305     -347188.748 2   -270534.790 1
 91  4 24 20  0  0.0000000  0  4 19 11 18 02
  20880196.940      -57134.482 3    -44520.249 3
  23534261.370     -224963.694 2   -175295.341 1
  20753852.111      145628.360 4    113475.829 3
  23395887.967     -395429.629 2   -308124.973 1
 91  4 24 20  0 15.0000000  0  5 19 11 18 06 02
  20879344.637      -61617.509 3    -48013.528 3
  23528475.977     -255344.928 2   -198968.969 1
  20757183.393      163128.854 4    127112.526 3
  24918250.250           0.900 2         0.327 1
  23386730.197     -443520.412 2   -345598.200 1
 91  4 24 20  0 30.0000000  0  5 19 11 18 06 02
  20878516.903      -65962.809 3    -51399.478 3
  23522738.241     -285520.486 2   -222482.328 1
  20760552.175      180837.051 4    140911.069 3
  24911142.479      -37291.101 2    -29058.166 1
  23377614.116     -491460.011 2   -382953.629 1
 91  4 24 20  0 45.0000000  0  5 19 11 18 06 02
  20877717.648      -70170.129 3    -54677.910 2
  23517034.393     -315489.767 2   -245834.894 1
  20763962.907      198753.375 4    154871.788 3
  24904082.365      -74469.031 2    -58027.844 1
  23368523.809     -539248.077 2   -420190.955 1
 91  4 24 20  1  0.0000000  0  5 19 11 18 06 02
  20876944.185      -74240.146 3    -57849.346 3
  23511368.918     -345253.169 2   -269027.057 1
  20767410.826      216877.035 4    168994.072 3
  24897021.048     -111533.801 2    -86909.256 1
  23359458.979     -586885.322 2   -457310.775 1
 91  4 24 20  1 15.0000000  0  5 19 11 18 06 02
  20876191.714      -78176.580 3    -60916.705 3
  23505741.816     -374814.046 2   -292061.424 1
  20770896.507      235204.180 4    183274.915 3
  24889983.427     -148489.008 2   -115705.515 1
  23350415.735     -634375.232 2   -494315.773 1
 91  4 24 20  1 30.0000000  0  5 19 11 18 06 02
  20875472.817      -81979.168 3    -63879.757 2
  23500156.089     -404171.775 2   -314937.501 1
  20774425.970      253735.056 4    197714.509 3
  24882976.973     -185334.488 2   -144416.081 1
  23341411.179     -681717.187 2   -531205.450 1
 91  4 24 20  1 45.0000000  0  5 19 11 18 06 02
  20874766.799      -85649.415 3    -66739.701 2
  23494606.920     -433327.667 2   -337656.291 1
  20777990.491      272467.888 4    212311.466 3
  24875989.714     -222071.873 2   -173042.529 1
  23332427.894     -728912.654 2   -567981.060 1
 91  4 24 20  2  0.0000000  0  5 19 11 18 06 02
  20874098.560      -89190.512 3    -69499.007 3
  23489100.940     -462284.370 2   -360219.868 1
  20781596.404      291399.763 4    227063.522 3
  24869009.347     -258704.314 2   -201587.116 1
  23323472.791     -775964.570 2   -604644.780 1
 91  4 24 20  2 15.0000000  0  5 19 11 18 06 02
  20873445.922      -92605.486 3    -72160.030 2
  23483624.625     -491044.570 2   -382630.302 1
  20785232.279      310527.646 4    241968.320 3
  24862061.351     -295234.748 2   -230052.244 1
  23314539.274     -822875.755 2   -641198.841 1
 91  4 24 20  2 30.0000000  0  5 19 11 18 06 02
  20872821.152      -95894.089 3    -74722.586 2
  23478191.186     -519607.773 2   -404887.283 1
  20788910.140      329851.871 4    257026.113 3
  24855131.346     -331663.129 2   -258437.848 1
  23305644.445     -869645.874 2   -677642.961 1
 91  4 24 20  2 45.0000000  0  5 19 11 18 06 02
  20872217.671      -99055.855 3    -77186.302 2
  23472792.821     -547973.170 2   -426990.087 1
  20792623.965      349372.387 4    272236.852 3
  24848211.550     -367989.047 2   -286743.598 1
  23296775.372     -916274.146 2   -713976.589 1
 91  4 24 20  3  0.0000000  0  5 19 11 18 06 02
  20871640.872     -102092.833 3    -79552.781 3
  23467428.938     -576142.512 2   -448940.155 1
  20796375.866      369087.034 4    287598.872 3
  24841328.905     -404214.658 2   -314971.325 1
  23287926.401     -962762.670 2   -750201.305 1
 91  4 24 20  3 15.0000000  0  6 19 11 16 18 06 02
  20871085.955     -105002.778 3    -81820.276 2
  23462107.913     -604113.228 2   -470735.418 1
  24350007.746           0.996 2         0.159 1
  20800164.640      388998.245 4    303114.055 3
  24834448.668     -440337.759 2   -343118.957 1
  23279110.708    -1009109.135 2   -786315.332 1
 91  4 24 20  3 30.0000000  0  6 19 11 16 18 06 02
  20870556.812     -107783.279 3    -83986.914 3
  23456824.685     -631882.405 2   -492373.686 1
  24344099.137      -31051.416 2    -24196.585 1
  20803989.100      409108.382 4    318784.244 3
  24827602.912     -476355.866 2   -371184.854 1
  23270316.287    -1055310.660 2   -822316.398 1
 91  4 24 20  3 45.0000000  0  6 19 11 16 18 06 02
  20870050.162     -110441.806 3    -86058.486 3
  23451577.719     -659457.343 2   -513860.521 1
  24338230.995      -61907.843 2    -48240.576 1
  20807853.730      429410.133 4    334603.743 3
  24820766.737     -512276.655 2   -399174.881 1
  23261553.957    -1101374.786 2   -858210.385 1
 91  4 24 20  4  0.0000000  0  6 19 11 16 18 06 02
  20869571.991     -112980.953 3    -88037.050 2
  23446373.314     -686840.459 2   -535197.926 1
  24332394.927      -92570.978 2    -72133.923 1
  20811753.731      449900.647 4    350570.322 3
  24813945.866     -548102.841 2   -427091.294 1
  23252808.117    -1147303.977 2   -893999.287 1
 91  4 24 20  4 15.0000000  0  6 19 11 16 18 06 02
  20869107.309     -115395.867 3    -89918.805 2
  23441193.792     -714026.453 2   -556381.758 1
  24326603.235     -123035.702 2    -95872.730 1
  20815690.291      470584.771 4    366687.773 3
  24807142.672     -583829.567 2   -454930.124 1
  23244094.647    -1193093.113 2   -929679.010 1
 91  4 24 20  4 30.0000000  0  6 19 11 16 18 06 02
  20868676.219     -117685.909 3    -91703.256 2
  23436057.164     -741014.337 2   -577411.200 2
  24320837.334     -153301.044 2   -119456.066 1
  20819661.350      491463.036 4    382956.501 3
  24800358.062     -619456.151 2   -482691.042 1
  23235412.658    -1238741.439 2   -965249.032 1
 91  4 24 20  4 45.0000000  0  6 19 11 16 18 06 02
  20868258.007     -119854.910 3    -93393.386 3
  23430956.779     -767807.422 2   -598288.833 1
  24315112.196     -183370.614 2   -142886.938 1
  20823673.172      512531.664 4    399373.566 3
  24793599.243     -654986.348 2   -510376.797 1
  23226749.864    -1284252.586 2  -1000712.132 1
 91  4 24 20  5  0.0000000  0  6 19 11 16 18 06 02
  20867871.275     -121907.744 3    -94993.003 3
  23425900.195     -794410.549 2   -619018.498 1
  24309432.325     -213249.331 2   -166169.089 1
  20827715.567      533785.450 4    415934.914 3
  24786861.714     -690425.406 2   -537991.474 1
  23218105.637    -1329631.553 2  -1036072.279 1
 91  4 24 20  5 15.0000000  0  6 19 11 16 18 06 02
  20867504.036     -123836.613 3    -96496.021 3
  23420878.668     -820815.467 2   -639593.709 1
  24303777.041     -242929.033 2   -189296.127 1
  20831798.744      555232.131 4    432646.562 3
  24780126.873     -725765.597 1   -565529.094 1
  23209505.786    -1374870.207 2  -1071323.056 1
 91  4 24 20  5 30.0000000  0  6 19 11 16 18 06 02
  20867158.364     -125646.706 3    -97906.491 3
  23415885.619     -847027.263 2   -660018.353 1
  24298168.820     -272414.542 2   -212271.853 1
  20835914.605      576866.466 4    449504.441 3
  24773416.618     -761012.220 1   -592993.875 1
  23200920.331    -1419973.745 2  -1106468.546 1
 91  4 24 20  5 45.0000000  0  5 19 11 16 18 02
  20866837.298     -127333.311 3    -99220.734 2
  23410936.947     -873040.858 2   -680288.636 1
  24292599.583     -301701.207 2   -235092.627 1
  20840067.320      598693.157 4    466512.203 3
  23192366.356    -1464937.231 2  -1141504.895 1
 91  4 24 20  6  0.0000000  0  5 19 11 16 18 02
  20866545.286     -128900.354 3   -100441.808 2
  23406020.645     -898859.727 2   -700407.165 1
  24287064.514     -330792.678 2   -257761.313
  20844255.425      620708.167 4    483666.711 3
  23183836.672    -1509764.492 2  -1176435.095 1
 91  4 24 20  6 15.0000000  0  5 19 11 16 18 02
  20866260.184     -130344.547 3   -101567.160 3
  23401147.515     -924480.337 2   -720371.171 1
  24281563.315     -359685.624 2   -280275.331 1
  20848484.293      642914.856 4    500970.579 3
  23175329.761    -1554451.881 2  -1211256.359 1
 91  4 24 20  6 30.0000000  0  5 19 11 16 18 02
  20866017.661     -131671.379 3   -102601.056 3
  23396307.679     -949907.937 2   -740184.832 1
  24276102.898     -388385.125 2   -302638.549 1
  20852742.547      665307.482 4    518419.327 3
  23166847.123    -1599004.941 2  -1245972.920 1
 91  4 24 20  6 45.0000000  0  5 19 11 16 18 02
  20865778.419     -132880.414 3   -103543.162 2
  23391502.901     -975141.904 2   -759847.582 1
  24270670.662     -416890.639 2   -324850.644 1
  20857041.566      687886.413 4    536013.248 3
  23158399.577    -1643423.012 2  -1280584.277 1
 91  4 24 20  7  0.0000000  0  5 19 11 16 18 02
  20865575.158     -133974.757 3   -104395.908 2
  23386737.997    -1000184.851 2   -779361.485 1
  24265286.398     -445205.201 2   -346913.977 1
  20861372.971      710648.378 4    553749.792 3
  23149970.302    -1687709.008 2  -1315092.730 2
 91  4 24 20  7 15.0000000  0  5 19 11 16 18 02
  20865384.794     -134956.478 3   -105160.886 3
  23382008.465    -1025038.415 2   -798727.839 1
  24259940.192     -473330.282 2   -368829.551 1
  20865737.655      733591.301 4    571627.352 3
  23141565.021    -1731864.914 2  -1349499.801 1
 91  4 24 20  7 30.0000000  0  5 19 11 16 18 02
  20865221.111     -135823.381 3   -105836.390 3
  23377317.026    -1049700.229 2   -817944.785 1
  24254620.668     -501263.977 2   -390596.133 1
  20870138.006      756717.596 4    589647.796 3
  23133193.017    -1775888.490 2  -1383803.772 2
 91  4 24 20  7 45.0000000  0  5 19 11 16 18 02
  20865078.700     -136579.546 3   -106425.609 2
  23372660.941    -1074174.095 2   -837015.257 1
  24249344.036     -529010.132 2   -412216.466 1
  20874575.230      780022.967 4    607807.766 3
  23124843.210    -1819783.667 2  -1418007.678 1
 91  4 24 20  8  0.0000000  0  5 19 11 16 18 02
  20864956.391     -137226.840 3   -106930.004 3
  23368037.838    -1098461.586 2   -855940.516 1
  24244098.553     -556570.238 2   -433691.916 1
  20879041.840      803505.483 4    626105.779 3
  23116507.782    -1863552.064 2  -1452112.796 1
 91  4 24 20  8 15.0000000  0  5 19 11 16 18 02
  20864854.168     -137760.029 3   -107345.484 3
  23363454.625    -1122557.246 2   -874716.245 1
  24238892.368     -583938.949 2   -455018.122 1
  20883547.417      827169.983 4    644545.597 3
  23108207.115    -1907188.348 2  -1486114.952 1
 91  4 24 20  8 30.0000000  0  5 19 11 16 18 02
  20864772.623     -138181.262 3   -107673.713 3
  23358903.172    -1146462.863 2   -893343.972 1
  24233715.254     -611118.324 2   -476196.905 1
  20888084.788      851014.482 4    663125.673 3
  23099933.146    -1950694.593 2  -1520015.822 1
 91  4 24 20  8 45.0000000  0  5 19 11 16 18 02
  20864711.460     -138490.602 3   -107914.769 3
  23354386.498    -1170178.013 2   -911823.219 1
  24228577.998     -638108.070 2   -497227.871 1
  20892655.418      875038.863 4    681845.922 3
  23091675.057    -1994070.634 2  -1553815.216 1
 91  4 24 20  9  0.0000000  0  5 19 11 16 18 02
  20864678.479     -138686.447 3   -108067.369 3
  23349911.791    -1193701.001 2   -930152.729 1
  24223485.134     -664906.562 2   -518109.812 1
  20897261.124      899244.633 4    700707.507 3
  23083441.870    -2037314.870 2  -1587511.899 2
 91  4 24 20  9 15.0000000  0  6 19 11 16 18 06 02
  20864658.690     -138767.481 3   -108130.521 3
  23345477.254    -1217030.285 2   -948331.335 1
  24218424.641     -691512.234 2   -538841.512 1
  20901901.922      923632.832 4    719711.247 3
  24674909.616      104804.87112     81668.667 1
  23075243.444    -2080425.777 2  -1621104.697 1
 91  4 24 20  9 30.0000000  0  6 19 11 16 18 06 02
  20864670.696     -138737.600 3   -108107.235 3
  23341066.118    -1240169.371 2   -966361.726 1
  24213389.625     -717928.994 2   -559425.993 1
  20906575.684      948199.522 4    738854.075 3
  24668469.177       70988.285 2     55318.208 1
  23067060.304    -2123407.075 2  -1654596.500 1
 91  4 24 20  9 45.0000000  0  6 19 11 16 18 06 02
  20864694.376     -138599.748 3   -107999.823 3
  23336706.234    -1263120.861 2   -984245.947 1
  24208400.171     -744159.394 2   -579865.258 1
  20911286.318      972941.728 4    758133.659 3
  24662045.821       37253.521 2     29031.438 1
  23058905.049    -2166261.624 2  -1687989.585 1
 91  4 24 20 10  0.0000000  0  6 19 11 16 18 06 02
  20864740.549     -138351.056 3   -107806.053 3
  23332375.439    -1285881.593 2  -1001981.507 1
  24203438.010     -770200.392 2   -600156.964 1
  20916028.135      997862.318 4    777552.258 3
  24655644.959        3603.259 2      2810.583 1
  23050779.774    -2208986.374 2  -1721281.446 1
 91  4 24 20 10 15.0000000  0  6 19 11 16 18 06 02
  20864809.792     -137990.076 3   -107524.777 3
  23328075.810    -1308449.857 2  -1019567.098 1
  24198523.505     -796050.349 2   -620299.786 1
  20920807.418     1022962.631 4    797110.884 3
  24649257.569      -29961.014 2    -23343.388 1
  23042673.398    -2251579.746 2  -1754470.977 1
 91  4 24 20 10 30.0000000  0  6 19 11 16 18 06 02
  20864901.824     -137512.657 3   -107152.762 3
  23323819.649    -1330821.155 2  -1036999.219 1
  24193644.389     -821705.109 2   -640290.545 1
  20925616.402     1048246.442 4    816812.514 3
  24642887.890      -63435.256 2    -49427.446 1
  23034590.090    -2294037.359 2  -1787554.701 1
 91  4 24 20 10 45.0000000  0  6 19 11 16 18 06 02
  20865010.347     -136924.902 3   -106694.773 3
  23319597.080    -1353001.289 2  -1054282.337 1
  24188801.535     -847170.627 2   -660133.776 1
  20930461.036     1073708.008 4    836652.642 3
  24636529.293      -96825.587 2    -75445.721 1
  23026534.354    -2336365.362 2  -1820537.440 1
 91  4 24 20 11  0.0000000  0  6 19 11 16 18 06 02
  20865150.054     -136229.141 3   -106152.627 2
  23315412.867    -1374992.334 2  -1071418.184 1
  24183985.973     -872448.782 2   -679831.049 1
  20935339.262     1099344.697 4    856629.241 3
  24630198.860     -130134.265 2   -101400.482 1
  23018502.316    -2378565.775 2  -1853420.784 1
 91  4 24 20 11 15.0000000  0  6 19 11 16 18 06 02
  20865299.358     -135426.345 3   -105527.086 3
  23311261.949    -1396794.952 2  -1088407.167 1
  24179208.784     -897540.379 2   -699382.951 1
  20940251.673     1125155.382 4    876741.403 3
  24623872.650     -163362.546 2   -127292.546 1
  23010494.271    -2420639.593 2  -1886205.440 1
 91  4 24 20 11 30.0000000  0  6 19 11 16 18 06 02
  20865472.935     -134519.601 3   -104820.540 3
  23307150.294    -1418412.095 2  -1105251.627 1
  24174476.250     -922448.463 2   -718791.866 1
  20945198.233     1151136.980 4    896986.752 3
  24617563.523     -196513.442 2   -153124.251 1
  23002511.390    -2462589.790 2  -1918893.783 1
 91  4 24 20 11 45.0000000  0  6 19 11 16 18 06 02
  20865659.705     -133507.823 3   -104032.147 3
  23303081.514    -1439842.462 2  -1121950.521 1
  24169762.615     -947171.913 2   -738056.905 1
  20950172.994     1177290.260 4    917365.884 3
  24611268.480     -229586.223 2   -178895.103 1
  22994557.302    -2504415.420 2  -1951485.088 1
 91  4 24 20 12  0.0000000  0  6 19 11 16 18 06 02
  20865876.454     -132389.883 3   -103161.034 3
  23299033.412    -1461084.702 2  -1138502.876 1
  24165094.559     -971709.618 2   -757177.187 1
  20955179.828     1203616.282 4    937879.607 3
  24604997.116     -262579.821 2   -204604.329 1
  22986622.391    -2546115.155 2  -1983978.279 1
 91  4 24 20 12 15.0000000  0  6 19 11 16 18 06 02
  20866107.896     -131163.205 3   -102205.191 3
  23295020.700    -1482135.773 2  -1154906.206 1
  24160466.657     -996058.931 2   -776150.732 1
  20960225.645     1230117.586 4    958529.926 3
  24598728.456     -295491.593 2   -230249.683 1
  22978712.364    -2587686.118 3  -2016371.124 1
 91  4 24 20 12 30.0000000  0  6 19 11 16 18 06 02
  20866362.722     -129827.826 3   -101164.648 2
  23291061.036    -1502995.488 2  -1171160.478 1
  24155865.139    -1020219.592 2   -794977.199 1
  20965303.223     1256794.015 4    979316.690 3
  24592484.385     -328321.688 2   -255831.457 1
  22970829.926    -2629128.156 3  -2048663.507 1
 91  4 24 20 12 45.0000000  0  6 19 11 16 18 06 02
  20866632.223     -128388.862 3   -100043.379 3
  23287117.566    -1523668.590 2  -1187269.316 1
  24151303.495    -1044196.447 2   -813660.508 1
  20970412.594     1283640.338 4   1000235.850 3
  24586245.094     -361075.089 2   -281353.389 1
  22962959.774    -2670446.225 3  -2080859.286 1
 91  4 24 20 13  0.0000000  0  6 19 11 16 18 06 02
  20866931.424     -126846.284 3    -98841.378 3
  23283226.865    -1544154.754 2  -1203232.503 1
  24146778.130    -1067989.073 2   -832200.197 1
  20975550.130     1310656.643 4   1021287.458 3
  24580027.704     -393751.937 2   -306815.757 1
  22955122.008    -2711640.165 2  -2112958.357 1
 91  4 24 20 13 15.0000000  0  6 19 11 16 18 06 02
  20867240.206     -125198.687 3    -97557.544 3
  23279365.237    -1564452.560 2  -1219048.910 1
  24142286.339    -1091595.732 2   -850594.983 1
  20980726.947     1337843.992 4   1042472.346 3
  24573824.396     -426351.068 2   -332217.569 1
  22947308.516    -2752708.723 2  -2144959.742 2
 91  4 24 20 13 30.0000000  0  6 19 11 16 18 06 02
  20867581.375     -123452.172 3    -96196.629 3
  23275532.087    -1584567.759 2  -1234723.035 1
  24137828.734    -1115022.835 2   -868849.876 1
  20985933.446     1365196.361 4   1063785.823 3
  24567632.779     -458878.632 2   -357563.615 1
  22939510.607    -2793657.686 2  -2176867.888 1
 91  4 24 20 13 45.0000000  0  6 19 11 16 18 06 02
  20867924.342     -121604.563 3    -94756.945 3
  23271741.516    -1604497.929 2  -1250252.975 1
  24133401.701    -1138268.038 2   -886963.048 1
  20991167.813     1392715.744 4   1085229.443 3
  24561460.655     -491332.456 2   -382852.158 1
  22931746.883    -2834484.879 2  -2208681.196 2
 91  4 24 20 14  0.0000000  0  6 19 11 16 18 06 02
  20868303.866     -119651.637 3    -93235.183 3
  23267983.908    -1624238.438 2  -1265635.115 1
  24129015.431    -1161327.037 2   -904931.068 1
  20996438.459     1420406.292 4   1106806.430 3
  24555304.410     -523708.340 2   -408079.931 1
  22924001.447    -2875185.919 3  -2240396.154 1
 91  4 24 20 14 15.0000000  0  6 19 11 16 18 06 02
  20868687.614     -117599.291 3    -91635.966 2
  23264261.690    -1643795.025 2  -1280873.969 1
  24124658.252    -1184205.556 2   -922758.593 1
  21001737.305     1448261.928 4   1128512.062 2
  24549151.777     -556012.246 2   -433251.641 1
  22916277.597    -2915766.528 3  -2272017.307 2
 91  4 24 20 14 30.0000000  0  6 19 11 16 18 06 02
  20869101.917     -115446.465 3    -89958.440 3
  23260576.047    -1663166.354 2  -1295968.459 1
  24120346.024    -1206902.399 2   -940444.413 1
  21007067.614     1476283.583 4   1150347.050 2
  24543028.513     -588243.204 2   -458366.599 1
  22908578.020    -2956225.409 3  -2303543.588 2
 91  4 24 20 14 45.0000000  0  6 19 11 16 18 06 02
  20869526.725     -113194.548 3    -88203.702 3
  23256920.662    -1682353.613 2  -1310919.501 1
  24116056.900    -1229418.609 2   -957989.510 1
  21012433.294     1504469.740 4   1172310.238 3
  24536895.966     -620402.725 2   -483425.860 1
  22900900.639    -2996563.975 3  -2334976.132 1
 91  4 24 20 15  0.0000000  0  6 19 11 16 18 06 02
  20869975.510     -110842.071 3    -86370.618 3
  23253309.060    -1701355.101 2  -1325725.779 1
  24111816.636    -1251752.811 2   -975392.825 1
  21017829.565     1532821.760 4   1194402.656 3
  24530800.884     -652489.515 2   -508428.355 1
  22893250.830    -3036780.611 3  -2366313.659 1
 91  4 24 20 15 15.0000000  0  6 19 11 16 18 06 02
  20870442.600     -108391.047 3    -84460.734 3
  23249729.846    -1720172.462 2  -1340388.620 1
  24107594.661    -1273906.764 2   -992655.616 1
  21023255.204     1561337.447 4   1216622.622 3
  24524694.110     -684505.483 2   -533375.824 1
  22885624.108    -3076877.344 3  -2397557.776 2
 91  4 24 20 15 30.0000000  0  6 19 11 16 18 06 02
  20870928.850     -105843.524 3    -82475.659 3
  23246184.503    -1738807.602 2  -1354909.430 1
  24103416.154    -1295882.534 2  -1009779.623 1
  21028709.025     1590014.696 4   1238968.475 3
  24518618.520     -716452.968 2   -558269.753 1
  22878012.375    -3116856.211 3  -2428710.033 2
 91  4 24 20 15 45.0000000  0  6 19 11 16 18 06 02
  20871426.216     -103197.164 3    -80413.563 3
  23242669.139    -1757257.925 2  -1369286.277 1
  24099261.920    -1317677.391 2  -1026762.644 1
  21034198.532     1618855.688 4   1261441.912 3
  24512552.214     -748329.719 2   -583108.654 1
  22870422.229    -3156714.616 2  -2459768.427 2
 91  4 24 20 16  0.0000000  0  6 19 11 16 18 06 02
  20871953.841     -100451.910 3    -78274.396 3
  23239196.947    -1775523.037 2  -1383518.741 1
  24095156.564    -1339291.439 2  -1043604.771 1
  21039719.205     1647860.299 4   1284042.841 2
  24506509.291     -780135.530 2   -607892.226 1
  22862862.375    -3196452.179 2  -2490732.658 2
 91  4 24 20 16 15.0000000  0  6 19 11 16 18 06 02
  20872493.768      -97607.399 3    -76057.904 3
  23235754.717    -1793602.509 2  -1397606.592 1
  24091071.905    -1360724.097 2  -1060305.565 1
  21045270.154     1677028.633 4   1306771.343 2
  24500453.489     -811870.327 1   -632620.498 1
  22855326.778    -3236068.731 2  -2521602.604 2
 91  4 24 20 16 30.0000000  0  5 19 11 16 18 02
  20873058.580      -94667.487 3    -73767.059 3
  23232349.377    -1811499.764 2  -1411552.425 1
  24087025.007    -1381978.984 2  -1076867.823 1
  21050852.601     1706357.029 4   1329624.574 3
  22847807.985    -3275568.041 2  -2552381.153 1
 91  4 24 20 16 45.0000000  0  5 19 11 16 18 02
  20873628.783      -91630.949 3    -71400.928 3
  23228980.316    -1829213.250 2  -1425355.097 1
  24083018.873    -1403054.410 2  -1093290.273 1
  21056460.508     1735846.711 4   1352603.484 2
  22840314.077    -3314948.540 2  -2583067.174 1
 91  4 24 20 17  0.0000000  0  5 19 11 16 18 02
  20874226.278      -88499.425 3    -68960.785 3
  23225645.126    -1846744.635 2  -1439015.878 1
  24079036.437    -1423952.637 2  -1109574.632 1
  21062104.414     1765495.146 4   1375706.090 2
  22832845.349    -3354212.101 2  -2613662.039 2
 91  4 24 20 17 15.0000000  0  5 19 11 16 18 02
  20874841.154      -85270.741 3    -66444.928 3
  23222341.415    -1864091.457 2  -1452532.825 1
  24075097.155    -1444671.119 2  -1125718.892 1
  21067780.377     1795305.229 4   1398934.663 2
  22825394.908    -3393356.198 3  -2644163.830 2
 91  4 24 20 17 30.0000000  0  5 19 11 16 18 02
  20875475.505      -81946.015 3    -63854.243 3
  23219076.672    -1881254.546 2  -1465906.613 1
  24071183.961    -1465210.569 2  -1141723.679 1
  21073482.724     1825275.527 4   1422288.076 3
  22817969.055    -3432381.826 3  -2674573.304 2
 91  4 24 20 17 45.0000000  0  5 19 11 16 18 02
  20876124.565      -78527.268 3    -61190.287 3
  23215846.706    -1898235.794 2  -1479138.669 1
  24067315.440    -1485573.006 2  -1157590.537 1
  21079213.864     1855403.558 4   1445764.402 3
  22810564.771    -3471291.156 2  -2704892.157 2
 91  4 24 20 18  0.0000000  0  5 19 11 16 18 02
  20876792.490      -75015.274 3    -58453.668 3
  23212647.313    -1915035.626 2  -1492229.417 1
  24063475.101    -1505759.213 2  -1173320.109 1
  21084977.078     1885688.735 4   1469363.169 3
  22803178.792    -3510084.657 3  -2735120.771 2
 91  4 24 20 18 15.0000000  0  5 19 11 16 18 02
  20877479.330      -71407.556 3    -55642.465 3
  23209483.310    -1931651.301 2  -1505176.627 1
  24059662.647    -1525766.669 2  -1188910.326 1
  21090771.754     1916133.168 4   1493086.042 3
  22795825.479    -3548759.702 2  -2765257.069 1
 91  4 24 20 18 30.0000000  0  5 19 11 16 18 02
  20878190.427      -67705.052 3    -52757.402 3
  23206351.083    -1948083.571 2  -1517980.938 1
  24055892.458    -1545596.230 2  -1204361.884 1
  21096594.037     1946735.860 4   1516932.232 3
  22788485.656    -3587317.218 2  -2795301.783 1
 91  4 24 20 18 45.0000000  0  5 19 11 16 18 02
  20878905.135      -63911.354 3    -49801.279 3
  23203264.715    -1964335.769 2  -1530644.922 1
  24052156.733    -1565251.055 2  -1219677.372 1
  21102445.985     1977492.814 4   1540898.624 3
  22781171.328    -3625760.609 2  -2825257.554 1
 91  4 24 20 19  0.0000000  0  5 19 11 16 18 02
  20879647.712      -60023.328 3    -46771.654 3
  23200207.437    -1980404.544 2  -1543165.998 1
  24048443.501    -1584727.872 2  -1234854.100 1
  21108330.303     2008407.279 4   1564987.749 3
  22773873.472    -3664086.745 2  -2855121.988 1
 91  4 24 20 19 15.0000000  0  5 19 11 16 18 02
  20880403.202      -56040.655 3    -43668.269 3
  23197183.419    -1996289.425 2  -1555543.792 1
  24044772.847    -1604026.644 2  -1249892.131 1
  21114239.522     2039479.548 4   1589199.838 3
  22766604.409    -3702295.237 3  -2884894.735 1
 91  4 24 20 19 30.0000000  0  5 19 11 16 18 02
  20881179.353      -51965.166 3    -40492.583 3
  23194195.697    -2011992.029 2  -1567779.542 1
  24041136.065    -1623148.713 2  -1264792.454 1
  21120182.299     2070707.385 4   1613533.163 2
  22759358.730    -3740387.841 3  -2914577.197 2
 91  4 24 20 19 45.0000000  0  6 19 11 16 18 06 02
  20881969.917      -47798.058 3    -37245.490 3
  23191242.440    -2027513.169 2  -1579873.890 1
  24037525.371    -1642095.361 2  -1279556.126 1
  21126156.573     2102089.717 4   1637986.867 3
  24417248.792      106653.81412     83112.656 1
  22752130.134    -3778365.530 3  -2944170.098 2
 91  4 24 20 20  0.0000000  0  5 19 11 16 18 02
  20882782.050      -43536.940 3    -33925.148 3
  23188329.353    -2042850.277 2  -1591824.850 1
  24033960.535    -1660863.928 2  -1294180.949 1
  21132160.512     2133628.733 4   1662562.652 3
  22744927.609    -3816225.760 3  -2973671.475 2
 91  4 24 20 20 15.0000000  0  5 19 11 16 18 02
  20883613.675      -39183.685 3    -30533.007 3
  23185438.149    -2058005.110 2  -1603633.750 1
  24030417.583    -1679456.300 2  -1308668.536 1
  21138188.445     2165322.370 4   1687258.924 3
  22737742.796    -3853970.514 3  -3003082.863 1
 91  4 24 20 20 30.0000000  0  6 19 11 16 18 06 02
  20884461.791      -34739.340 3    -27069.877 3
  23182591.931    -2072978.511 2  -1615301.289 1
  24026918.413    -1697873.613 2  -1323019.702 1
  21144255.031     2197169.470 4   1712074.785 3
  24399726.522      125132.99712     97512.202 1
  22730579.255    -3891600.734 3  -3032405.028 1
 91  4 24 20 20 45.0000000  0  6 19 11 16 18 06 02
  20885318.597      -30202.870 3    -23534.980 3
  23179780.771    -2087769.186 3  -1626826.456 1
  24023448.018    -1716114.600 2  -1337233.416 1
  21150341.126     2229170.706 4   1737010.750 2
  24393915.041       94569.780 2     73696.488 1
  22723440.598    -3929115.189 3  -3061636.979 2
 91  4 24 20 21  0.0000000  0  6 19 11 16 18 06 02
  20886199.082      -25576.651 3    -19930.141 3
  23176992.104    -2102379.211 2  -1638210.873 1
  24020005.788    -1734181.569 2  -1351311.596 1
  21156459.294     2261323.527 4   1762064.832 3
  24388108.063       64066.626 2     49927.929 1
  22716324.120    -3966516.237 3  -3090780.572 1
 91  4 24 20 21 15.0000000  0  6 19 11 16 18 06 02
  20887096.372      -20861.049 3    -16255.657 3
  23174249.296    -2116808.862 2  -1649454.688 1
  24016602.856    -1752074.858 2  -1365254.409 1
  21162604.127     2293627.386 4   1787236.601 2
  24382313.369       33623.072 2     26205.775 1
  22709229.524    -4003804.164 3  -3119836.001 1
 91  4 24 20 21 30.0000000  0  6 19 11 16 18 06 02
  20888011.933      -16055.124 3    -12510.793 3
  23171544.582    -2131056.971 3  -1660557.076 1
  24013229.293    -1769793.326 2  -1379060.994 1
  21168780.160     2326083.310 4   1812526.862 3
  24376534.572        3239.974 2      2530.737 1
  22702159.220    -4040978.053 3  -3148802.576 1
 91  4 24 20 21 45.0000000  0  6 19 11 16 18 06 02
  20888939.796      -11160.607 3     -8696.888 3
  23168860.232    -2145125.048 2  -1671519.173 1
  24009889.304    -1787338.204 2  -1392732.326 1
  21174987.360     2358689.549 4   1837934.250 2
  24370762.372      -27084.475 2    -21098.606 1
  22695104.498    -4078039.284 3  -3177681.363 1
 91  4 24 20 22  0.0000000  0  6 19 11 16 18 06 02
  20889894.323       -6175.334 3     -4812.272 3
  23166218.758    -2159010.797 2  -1682339.185 1
  24006584.093    -1804707.607 2  -1406266.938 1
  21181219.147     2391448.089 4   1863460.317 3
  24365000.956      -57348.261 2    -44680.699 1
  22688072.269    -4114985.688 3  -3206470.684 2
 91  4 24 20 22 15.0000000  0  6 19 11 16 18 06 02
  20890855.167       -1100.822 3      -858.126 3
  23163610.561    -2172715.505 2  -1693018.170 1
  24003313.050    -1821903.140 2  -1419666.049 1
  21187483.304     2424357.133 4   1889103.662 3
  24359257.845      -87552.926 2    -68216.632 1
  22681066.129    -4151818.602 3  -3235171.558 1
 91  4 24 20 22 30.0000000  0  6 19 11 16 18 06 02
  20891835.188        4060.169 3      3163.420 3
  23161034.455    -2186241.660 2  -1703557.986 1
  24000076.785    -1838927.285 2  -1432931.584 1
  21193774.753     2457413.481 4   1914861.788 2
  24353516.810     -117701.424 2    -91708.944 1
  22674074.665    -4188540.899 3  -3263786.241 2
 91  4 24 20 22 45.0000000  0  6 19 11 16 18 06 02
  20892839.780        9309.918 3      7254.126 3
  23158499.707    -2199586.823 2  -1713956.769 1
  23996863.624    -1855778.123 2  -1446062.120 1
  21200098.572     2490619.440 4   1940736.491 2
  24347794.081     -147791.461 2   -115155.567 1
  22667108.084    -4225150.216 3  -3292312.888 2
 91  4 24 20 23  0.0000000  0  6 19 11 16 18 06 02
  20893854.283       14647.091 3     11412.957 3
  23155987.748    -2212752.084 2  -1724215.399 1
  23993691.820    -1872456.257 2  -1459058.037 1
  21206438.882     2523973.498 4   1966726.592 2
  24342076.727     -177824.396 2   -138557.777 1
  22660163.700    -4261647.617 3  -3320752.324 2
 91  4 24 20 23 15.0000000  0  6 19 11 16 18 06 02
  20894887.668       20071.082 3     15639.435 3
  23153519.554    -2225737.986 2  -1734334.207 1
  23990552.683    -1888962.431 2  -1471920.056 1
  21212813.673     2557474.785 4   1992831.425 3
  24336370.785     -207801.116 2   -161916.119 1
  22653239.680    -4298033.910 3  -3349105.201 1
 91  4 24 20 23 30.0000000  0  6 19 11 16 18 06 02
  20895939.043       25582.920 3     19934.356 3
  23151081.340    -2238543.076 2  -1744312.157 1
  23987439.633    -1905295.673 2  -1484647.250 1
  21219218.148     2591124.586 4   2019051.973 2
  24330681.926     -237720.363 2   -185229.737 1
  22646335.467    -4334307.852 3  -3377370.530 2
 91  4 24 20 23 45.0000000  0  6 19 11 16 18 06 02
  20896999.406       31182.560 3     24297.692 3
  23148680.609    -2251167.186 2  -1754149.097 1
  23984364.678    -1921455.673 2  -1497239.440 1
  21225649.896     2624922.518 4   2045387.955 2
  24324995.459     -267582.498 2   -208498.799 1
  22639453.729    -4370469.262 3  -3405548.150 2
 91  4 24 20 24  0.0000000  0  6 19 11 16 18 06 02
  20898090.062       36869.979 3     28729.439 3
  23146315.842    -2263610.335 2  -1763845.028 1
  23981320.872    -1937442.581 2  -1509696.751 1
  21232110.421     2658868.315 4   2071839.143 3
  24319324.888     -297387.548 2   -231723.453 1
  22632589.686    -4406518.084 2  -3433638.049 2
 91  4 24 20 24 15.0000000  0  6 19 11 16 18 06 02
  20899179.200       42644.419 3     33228.994 3
  23143981.056    -2275873.021 2  -1773400.319 1
  23978320.254    -1953256.719 2  -1522019.473 1
  21238598.830     2692960.984 4   2098404.786 2
  24313660.303     -327136.433 2   -254904.283 1
  22625754.418    -4442455.201 2  -3461640.900 2
 91  4 24 20 24 30.0000000  0  6 19 11 16 18 06 02
  20900296.834       48504.148 3     37795.013 3
  23141679.843    -2287956.759 2  -1782816.185 1
  23975338.222    -1968900.211 2  -1534209.176 1
  21245114.812     2727198.715 4   2125083.467 2
  24308016.118     -356830.883 2   -278042.622 1
  22618937.438    -4478282.265 3  -3489558.013 2
 91  4 24 20 24 45.0000000  0  6 19 11 16 18 06 02
  20901428.236       54445.989 3     42425.001 3
  23139417.911    -2299864.612 3  -1792094.982 2
  23972396.063    -1984375.964 2  -1546268.239 1
  21251656.287     2761578.086 4   2151872.514 2
  24302367.412     -386474.182 2   -301141.236 1
  22612141.434    -4514002.202 3  -3517391.638 2
 91  4 24 20 25  0.0000000  0  6 19 11 16 18 06 02
  20902574.646       60474.748 3     47122.721 3
  23137182.067    -2311591.654 2  -1801232.891 2
  23969482.976    -1999679.124 2  -1558192.799 1
  21258223.537     2796103.817 4   2178775.608 2
  24296741.218     -416061.750 2   -324196.442 1
  22605362.233    -4549610.243 3  -3545138.060 2
 91  4 24 20 25 15.0000000  0  6 19 11 16 18 06 02
  20903738.436       66589.621 3     51887.549 3
  23134987.580    -2323138.483 2  -1810230.378 1
  23966604.963    -2014810.444 2  -1569983.436 1
  21264824.972     2830774.686 4   2205791.793 3
  24291119.508     -445594.414 2   -347208.759 1
  22598606.102    -4585107.072 3  -3572797.846 2
 91  4 24 20 25 30.0000000  0  6 19 11 16 18 06 02
  20904923.515       72794.285 3     56722.343 2
  23132820.385    -2334501.234 2  -1819084.429 1
  23963755.430    -2029766.476 2  -1581637.516 1
  21271450.680     2865594.547 4   2232924.075 3
  24285506.192     -475068.667 2   -370175.581 1
  22591878.764    -4620489.044 3  -3600368.130 2
 91  4 24 20 25 45.0000000  0  6 19 11 16 18 06 02
  20906114.893       79084.125 3     61623.508 3
  23130697.252    -2345684.198 2  -1827798.394 1
  23960944.584    -2044551.455 2  -1593158.289 1
  21278103.070     2900558.303 4   2260168.481 2
  24279917.760     -504489.131 2   -393100.571 1
  22585164.619    -4655760.567 3  -3627852.354 2
 91  4 24 20 26  0.0000000  0  6 19 11 16 18 06 02
  20907339.253       85460.218 3     66591.880 3
  23128600.800    -2356686.389 2  -1836371.477 2
  23958166.701    -2059164.402 2  -1604545.014 1
  21284785.142     2935667.080 4   2287525.900 3
  24274324.843     -533854.775 2   -415982.738 1
  22578476.247    -4690920.685 3  -3655249.762 2
 91  4 24 20 26 15.0000000  0  6 19 11 16 18 06 02
  20908561.501       91922.973 3     71627.771 3
  23126540.034    -2367507.023 2  -1844803.117 1
  23955415.203    -2073604.767 2  -1615797.297 1
  21291491.802     2970920.964 3   2314996.382 2
  24268748.992     -563165.415 2   -438822.144 1
  22571803.458    -4725968.824 3  -3682559.902 2
 91  4 24 20 26 30.0000000  0  6 19 11 16 18 06 02
  20909812.542       98469.118 3     76728.654 3
  23124517.327    -2378149.198 3  -1853095.683 1
  23952704.783    -2087875.271 2  -1626917.128 1
  21298226.050     3006316.656 3   2342577.357 2
  24263178.848     -592424.213 2   -461621.058 1
  22565154.367    -4760907.938 3  -3709785.098 2
 91  4 24 20 26 45.0000000  0  6 19 11 16 18 06 02
  20911069.865      105100.398 3     81895.873 3
  23122530.306    -2388610.859 2  -1861247.588 1
  23950020.451    -2101974.450 2  -1637903.542 1
  21304989.667     3041855.539 3   2370269.924 2
  24257626.695     -621629.448 2   -484378.239 1
  22558531.957    -4795736.400 3  -3736924.067 2
 91  4 24 20 27  0.0000000  0  6 19 11 16 18 06 02
  20912352.980      111819.264 3     87131.344 3
  23120575.358    -2398889.753 3  -1869257.077 1
  23947358.281    -2115899.791 2  -1648754.442 1
  21311779.669     3077539.868 3   2398075.819 2
  24252079.933     -650778.932 2   -507092.072 1
  22551922.425    -4830451.816 3  -3763974.945 2
 91  4 24 20 27 15.0000000  0  6 19 11 16 18 06 02
  20913637.595      118621.875 3     92432.068 3
  23118651.593    -2408989.471 2  -1877126.937 1
  23944748.601    -2129655.451 2  -1659473.201 1
  21318596.335     3113365.794 3   2425992.051 2
  24246531.672     -679876.616 2   -529765.468 1
  22545339.592    -4865057.908 3  -3790940.657 2
 91  4 24 20 27 30.0000000  0  6 19 11 16 18 06 02
  20914953.987      125507.767 3     97797.683 3
  23116761.997    -2418910.175 2  -1884857.310 1
  23942164.084    -2143241.546 2  -1670059.743 1
  21325442.701     3149332.734 3   2454018.158 2
  24241012.203     -708923.049 2   -552398.910 1
  22538769.637    -4899555.045 3  -3817821.455 2
 91  4 24 20 27 45.0000000  0  6 19 11 16 18 06 02
  20916277.865      132478.965 3    103229.775 2
  23114911.087    -2428649.770 2  -1892446.563 1
  23939610.454    -2156655.871 2  -1680512.483 1
  21332315.138     3185442.362 3   2482155.452 2
  24235484.619     -737916.272 2   -574990.924 1
  22532230.570    -4933941.246 3  -3844615.800 2
 91  4 24 20 28  0.0000000  0  6 19 11 16 18 06 02
  20917622.736      139532.596 3    108726.104 2
  23113089.843    -2438210.809 2  -1899896.668 1
  23937092.789    -2169901.203 2  -1690833.570 1
  21339213.069     3221691.709 3   2510401.615 2
  24229980.733     -766859.232 2   -597543.747 1
  22525702.286    -4968219.168 3  -3871325.796 2
 91  4 24 20 28 15.0000000  0  6 19 11 16 18 06 02
  20918976.594      146668.725 3    114286.710 3
  23111304.581    -2447593.254 2  -1907207.641 1
  23934604.510    -2182977.818 2  -1701023.127 1
  21346137.979     3258080.757 3   2538756.643 2
  24224484.630     -795752.013 2   -620057.499 1
  22519204.872    -5002388.617 3  -3897951.243 2
 91  4 24 20 28 30.0000000  0  6 19 11 16 18 06 02
  20920352.945      153889.472 3    119913.260 3
  23109552.893    -2456794.743 2  -1914377.559 2
  23932148.915    -2195883.407 2  -1711079.443 1
  21353091.070     3294611.034 3   2567221.735 2
  24219002.034     -824592.516 2   -642530.556 1
  22512722.465    -5036447.373 3  -3924490.439 2
 91  4 24 20 28 45.0000000  0  6 19 11 16 18 06 02
  20921742.471      161194.109 3    125605.172 3
  23107830.888    -2465815.778 2  -1921406.892 1
  23929725.097    -2208618.613 2  -1721002.972 1
  21360065.137     3331282.097 3   2595796.495 2
  24213518.233     -853381.593 2   -664963.457 1
  22506261.348    -5070396.276 3  -3950944.033 2
 91  4 24 20 29  0.0000000  0  6 19 11 16 18 06 02
  20923150.895      168583.567 3    131363.179 2
  23106156.243    -2474655.357 3  -1928294.840 2
  23927328.851    -2221182.404 2  -1730792.948 1
  21367073.075     3368094.533 3   2624481.428 2
  24208054.814     -882118.256 2   -687355.544 1
  22499818.500    -5104234.411 3  -3977311.326 2
 91  4 24 20 29 15.0000000  0  6 19 11 16 18 06 02
  20924569.825      176054.433 3    137184.622 3
  23104499.886    -2483316.618 2  -1935043.832 2
  23924969.791    -2233577.985 2  -1740451.838 1
  21374103.820     3405044.707 3   2653273.700 2
  24202592.303     -910806.105 2   -709709.567 1
  22493403.539    -5137964.763 3  -4003594.625 2
 91  4 24 20 29 30.0000000  0  6 19 11 16 18 06 02
  20926007.618      183607.893 3    143070.435 3
  23102893.296    -2491798.385 2  -1941652.915 1
  23922643.694    -2245804.119 2  -1749978.728 1
  21381160.932     3442133.491 3   2682173.975 2
  24197132.478     -939444.095 2   -732024.862 1
  22487005.975    -5171586.320 3  -4029793.150 2
 91  4 24 20 29 45.0000000  0  6 19 11 16 18 06 02
  20927458.621      191243.511 3    149020.255 3
  23101309.794    -2500101.063 3  -1948122.533 1
  23920354.488    -2257861.531 2  -1759374.085 1
  21388245.930     3479360.161 3   2711181.689 2
  24191693.944     -968032.852 2   -754301.657 1
  22480629.089    -5205099.669 3  -4055907.351 2
 91  4 24 20 30  0.0000000  0  6 19 11 16 18 06 02
  20928930.599      198958.353 3    155031.808 3
  23099769.760    -2508227.415 3  -1954454.711 2
  23918095.243    -2269753.251 2  -1768640.347 1
  21395353.404     3516721.600 3   2740294.421 2
  24186265.600     -996575.345 2   -776542.466 1
  22474268.380    -5238507.532 3  -4081939.390 2
 91  4 24 20 30 15.0000000  0  6 19 11 16 18 06 02
  20930409.174      206756.085 3    161107.944 3
  23098245.623    -2516173.530 2  -1960646.412 1
  23915856.101    -2281475.422 2  -1777774.507 1
  21402491.467     3554221.441 3   2769514.997 2
  24180848.651    -1025068.050 2   -798744.482 1
  22467931.683    -5271806.256 3  -4107886.344 2
 91  4 24 20 30 30.0000000  0  6 19 11 16 18 06 02
  20931907.240      214634.135 3    167246.684 3
  23096774.831    -2523941.743 2  -1966699.538 1
  23913661.910    -2293030.174 2  -1786778.206 1
  21409652.007     3591857.091 3   2798841.393 2
  24175427.793    -1053513.455 2   -820909.644 1
  22461620.148    -5304998.210 3  -4133750.104 2
 91  4 24 20 30 45.0000000  0  6 19 11 16 18 06 02
  20933425.095      222592.393 3    173447.913 3
  23095329.238    -2531531.917 2  -1972613.898 1
  23911498.013    -2304417.815 2  -1795651.717 1
  21416841.026     3629628.194 3   2828273.346 2
  24170034.838    -1081911.537 2   -843037.944 1
  22455323.010    -5338083.414 3  -4159530.687 2
 91  4 24 20 31  0.0000000  0  6 19 11 16 18 06 02
  20934962.128      230631.636 3    179712.254 3
  23093916.014    -2538943.268 2  -1978388.915 2
  23909359.297    -2315637.664 2  -1804394.400 1
  21424053.445     3667535.156 3   2857811.157 2
  24164633.175    -1110261.894 2   -865128.964 1
  22449045.050    -5371061.017 3  -4185227.433 2
 91  4 24 20 31 15.0000000  0  6 19 11 16 18 06 02
  20936495.566      238752.652 3    186040.310 3
  23092542.962    -2546175.035 2  -1984024.030 1
  23907254.452    -2326689.024 2  -1813005.931 1
  21431292.528     3705578.421 3   2887455.171 2
  24159254.896    -1138564.071 2   -887182.477 1
  22442790.473    -5403930.365 3  -4210839.825 2
 91  4 24 20 31 30.0000000  0  6 19 11 16 18 06 02
  20938065.579      246956.113 3    192432.602 3
  23091202.890    -2553226.488 3  -1989518.620 1
  23905180.790    -2337571.202 2  -1821485.502 1
  21438562.184     3743758.520 3   2917205.823 2
  24153874.820    -1166817.419 2   -909198.063
  22436555.702    -5436690.902 3  -4236367.429 2
 91  4 24 20 31 45.0000000  0  6 19 11 16 18 06 02
  20939636.186      255241.350 3    198888.623 3
  23089891.593    -2560097.971 2  -1994872.941 1
  23903146.095    -2348284.501 2  -1829833.573 1
  21445852.554     3782074.835 3   2947062.605 2
  24148508.232    -1195022.391 2   -931175.793 1
  22430344.001    -5469342.946 3  -4261810.493 2
 91  4 24 20 32  0.0000000  0  6 19 11 16 18 06 02
  20941230.787      263605.982 3    205406.509 3
  23088623.486    -2566791.602 2  -2000088.726 1
  23901138.378    -2358831.168 2  -1838051.748 1
  21453166.882     3820524.928 3   2977023.644 2
  24143151.835    -1223181.487 2   -953117.858 1
  22424148.493    -5501888.706 3  -4287170.738 2
 91  4 24 20 32 15.0000000  0  6 19 11 16 18 06 02
  20942835.579      272051.284 3    211987.251 3
  23087380.245    -2573306.170 3  -2005164.967 1
  23899165.159    -2369210.249 2  -1846139.330 1
  21460510.894     3859109.434 3   3007089.410 2
  24137797.253    -1251293.862 2   -975023.502 1
  22417977.258    -5534327.195 3  -4312447.390 2
 91  4 24 20 32 30.0000000  0  6 19 11 16 18 06 02
  20944459.548      280575.600 3    218629.568 3
  23086175.377    -2579643.099 3  -2010102.766 2
  23897222.496    -2379423.258 2  -1854097.562 1
  21467878.899     3897826.526 3   3037258.488 2
  24132457.347    -1279360.840 2   -996893.745 1
  22411823.125    -5566659.766 3  -4337641.513 2
 91  4 24 20 32 45.0000000  0  6 19 11 16 18 06 02
  20946099.712      289180.500 3    225334.667 3
  23085003.490    -2585800.883 3  -2014901.006 1
  23895305.625    -2389468.895 2  -1861925.338 1
  21475271.474     3936677.650 3   3067532.016 2
  24127127.335    -1307381.326 2  -1018727.719 1
  22405695.656    -5598884.930 3  -4362751.929 2
 91  4 24 20 33  0.0000000  0  6 19 11 16 18 06 02
  20947755.772      297865.257 3    232102.003 3
  23083859.768    -2591780.025 2  -2019560.032 1
  23893429.831    -2399347.689 2  -1869623.086 1
  21482690.749     3975661.901 3   3097909.275 2
  24121800.325    -1335356.046 2  -1040526.208 1
  22399582.600    -5631003.354 3  -4387779.202 2
 91  4 24 20 33 15.0000000  0  6 19 11 16 18 06 02
  20949416.928      306629.695 3    238931.426 3
  23082758.345    -2597580.550 2  -2024079.865 1
  23891582.499    -2409059.884 2  -1877191.099 1
  21490132.795     4014779.139 3   3128390.161 2
  24116483.208    -1363285.296 2  -1062289.074 1
  22393489.612    -5663015.337 3  -4412723.507 2
 91  4 24 20 33 30.0000000  0  6 19 11 16 18 06 02
  20951101.153      315472.916 3    245822.242 3
  23081691.369    -2603203.119 3  -2028461.045 1
  23889765.460    -2418606.298 2  -1884629.820 1
  21497601.523     4054027.877 3   3158973.506 2
  24111175.376    -1391169.840 2  -1084017.174 1
  22387418.507    -5694921.383 3  -4437585.273 2
 91  4 24 20 33 45.0000000  0  6 19 11 16 18 06 02
  20952799.775      324392.736 3    252772.732 3
  23080657.095    -2608649.877 3  -2032705.199 1
  23887980.791    -2427988.698 2  -1891940.824 1
  21505095.432     4093405.651 3   3189657.401 2
  24105878.641    -1419012.004 2  -1105712.336 1
  22381364.503    -5726723.706 3  -4462366.204 2
 91  4 24 20 34  0.0000000  0  6 19 11 16 18 06 02
  20954510.699      333390.655 3    259784.087 3
  23079644.703    -2613919.214 2  -2036811.143 1
  23886222.804    -2437205.799 2  -1899123.024 1
  21512613.928     4132914.101 3   3220443.122 2
  24100590.911    -1446810.400 2  -1127373.276 1
  22375333.882    -5758420.797 3  -4487065.151 2
 91  4 24 20 34 15.0000000  0  6 19 11 16 18 06 02
  20956238.096      342468.216 3    266857.493 3
  23078683.562    -2619009.373 3  -2040777.472 1
  23884499.002    -2446255.966 2  -1906175.115 1
  21520153.400     4172554.742 3   3251331.852 2
  24095307.962    -1474563.576 2  -1148999.029 1
  22369322.142    -5790010.824 3  -4511680.674 2
 91  4 24 20 34 30.0000000  0  6 19 11 16 18 06 02
  20957980.186      351624.805 3    273992.487 3
  23077747.602    -2623920.974 3  -2044604.644 1
  23882810.274    -2455140.003 2  -1913097.736 1
  21527726.166     4212326.486 3   3282322.744 2
  24090043.005    -1502272.305 2  -1170590.112 1
  22363328.394    -5821494.714 3  -4536213.484 2
 91  4 24 20 34 45.0000000  0  6 19 11 16 18 06 02
  20959738.174      360859.219 3    281188.123 3
  23076849.736    -2628655.400 3  -2048293.748 2
  23881157.512    -2463859.279 2  -1919892.033 1
  21535316.016     4252227.424 3   3313414.299 2
  24084770.858    -1529938.146 2  -1192147.774 1
  22357359.215    -5852873.940 3  -4560664.766 2
 91  4 24 20 35  0.0000000  0  6 19 11 16 18 06 02
  20961508.446      370171.762 3    288444.634 3
  23075974.940    -2633212.081 2  -2051844.383 1
  23879528.447    -2472413.576 2  -1926557.768 1
  21542934.641     4292257.741 3   3344606.675 2
  24079512.200    -1557560.712 2  -1213671.744 1
  22351408.639    -5884147.902 3  -4585034.008 2
 91  4 24 20 35 15.0000000  0  6 19 11 16 18 06 02
  20963293.411      379561.585 3    295761.370 3
  23075143.018    -2637591.532 3  -2055256.902 1
  23877930.844    -2480803.362 2  -1933095.274 1
  21550577.243     4332416.691 3   3375899.280 2
  24074270.626    -1585140.701 2  -1235162.531 1
  22345479.945    -5915317.213 3  -4609321.701 2
 91  4 24 20 35 30.0000000  0  6 19 11 16 18 06 02
  20965098.462      389024.655 3    303135.177 3
  23074346.468    -2641797.903 3  -2058534.537 1
  23876365.630    -2489033.002 2  -1939507.959 1
  21558244.433     4372700.086 3   3407288.850 2
  24069028.755    -1612682.541 2  -1256623.609 1
  22339565.333    -5946385.936 3  -4633531.016 2
 91  4 24 20 35 45.0000000  0  6 19 11 16 18 06 02
  20966907.718      398562.386 3    310567.175 3
  23073582.288    -2645829.492 3  -2061676.013 1
  23874828.004    -2497100.790 2  -1945794.603 1
  21565935.006     4413109.073 3   3438776.292 2
  24063792.887    -1640184.720 2  -1278053.768 1
  22333672.325    -5977352.518 3  -4657660.737 2
 91  4 24 20 36  0.0000000  0  6 19 11 16 18 06 02
  20968748.437      408181.063 3    318062.225 3
  23072840.898    -2649680.001 3  -2064676.350 1
  23873324.249    -2505000.692 2  -1951950.348 1
  21573645.384     4453649.720 3   3470366.318 2
  24058568.100    -1667641.156 2  -1299448.301 1
  22327799.978    -6008210.772 3  -4681706.039 2
 91  4 24 20 36 15.0000000  0  6 19 11 16 18 06 02
  20970586.468      417876.943 3    325617.440 3
  23072143.291    -2653353.031 3  -2067538.414 1
  23871852.253    -2512736.415 2  -1957978.218 1
  21581386.022     4494318.041 3   3502055.829 2
  24053355.004    -1695055.586 2  -1320810.015 1
  22321948.640    -6038964.483 3  -4705669.895 2
 91  4 24 20 36 30.0000000  0  6 19 11 16 18 06 02
  20972449.069      427649.107 3    333232.101 3
  23071476.256    -2656849.452 3  -2070262.855 1
  23870414.163    -2520308.662 2  -1963878.697 1
  21589150.636     4535112.779 3   3533843.859 2
  24048148.208    -1722429.317 2  -1342140.124 1
  22316114.369    -6069614.502 3  -4729552.960 2
 91  4 24 20 36 45.0000000  0  6 19 11 16 18 06 02
  20974320.082      437497.540 3    340906.193 3
  23070851.782    -2660169.422 3  -2072849.818 1
  23869001.236    -2527717.681 2  -1969651.942 1
  21596936.556     4576033.443 3   3565730.003 2
  24042943.209    -1749762.275 2  -1363438.406 1
  22310298.700    -6100160.953 3  -4753355.305 2
 91  4 24 20 37  0.0000000  0  6 19 11 16 18 06 02
  20976211.179      447420.959 3    348638.712 2
  23070248.005    -2663314.081 3  -2075300.168 2
  23867617.696    -2534964.763 2  -1975299.075 1
  21604747.640     4617078.775 3   3597713.293 2
  24037747.512    -1777055.956 2  -1384706.082 1
  22304507.619    -6130604.945 3  -4777077.821 2
 91  4 24 20 37 15.0000000  0  6 19 11 16 18 06 02
  20978111.857      457418.754 3    356429.199 3
  23069682.583    -2666283.885 3  -2077614.245 1
  23866267.119    -2542050.526 2  -1980820.407 1
  21612581.514     4658248.013 3   3629793.126 2
  24032559.004    -1804310.942 2  -1405943.625
  22298732.714    -6160946.988 3  -4800720.883 2
 91  4 24 20 37 30.0000000  0  6 19 11 16 18 06 02
  20980027.524      467494.684 3    364280.553 2
  23069152.253    -2669074.923 2  -2079789.067 1
  23864958.230    -2548971.219 2  -1986213.158 1
  21620440.883     4699544.653 3   3661972.244 2
  24027385.485    -1831523.532 2  -1427148.152 1
  22292982.396    -6191183.296 3  -4824281.587 2
 91  4 24 20 37 45.0000000  0  6 19 11 16 18 06 02
  20981959.700      477647.885 3    372192.131 3
  23068656.109    -2671687.907 3  -2081825.111 1
  23863666.426    -2555727.583 2  -1991477.866 1
  21628323.931     4740967.856 3   3694249.965 2
  24022207.779    -1858694.613 2  -1448320.331 1
  22287245.253    -6221314.751 3  -4847760.565 2
 91  4 24 20 38  0.0000000  0  6 19 11 16 18 06 02
  20983910.739      487875.770 3    380161.896 3
  23068191.130    -2674125.277 3  -2083724.321 1
  23862416.589    -2562321.937 2  -1996616.331 1
  21636227.955     4782514.467 3   3726623.855 2
  24017051.344    -1885826.999 2  -1469462.270 1
  22281530.917    -6251344.016 3  -4871159.918 2
 91  4 24 20 38 15.0000000  0  6 19 11 16 18 06 02
  20985869.281      498179.115 3    388190.463 2
  23067766.916    -2676386.261 3  -2085486.111 1
  23861194.044    -2568753.838 2  -2001628.169 1
  21644158.957     4824185.026 3   3759094.332 2
  24011899.708    -1912919.971 2  -1490573.528 1
  22275838.150    -6281270.275 3  -4894479.021 2
 91  4 24 20 38 30.0000000  0  6 19 11 16 18 06 02
  20987847.316      508558.424 3    396278.238 2
  23067366.398    -2678470.183 2  -2087109.883 1
  23860003.869    -2575022.672 2  -2006512.993 1
  21652115.454     4865980.058 3   3791661.799 2
  24006744.478    -1939972.954 2  -1511653.662 1
  22270162.188    -6311092.775 3  -4917717.254 2
 91  4 24 20 38 45.0000000  0  6 19 11 16 18 06 02
  20989832.243      519012.655 3    404424.374 3
  23067003.346    -2680378.138 3  -2088596.574 1
  23858835.281    -2581129.838 2  -2011271.796 1
  21660092.332     4907898.157 3   3824325.154 2
  24001603.033    -1966987.338 2  -1532703.744 1
  22264505.996    -6340812.662 3  -4940875.531 2
 91  4 24 20 39  0.0000000  0  6 19 11 16 18 06 02
  20991840.851      529540.652 3    412628.001 3
  23066677.464    -2682111.039 3  -2089946.881 1
  23857704.454    -2587076.334 2  -2015905.468 1
  21668087.795     4949938.062 3   3857083.429 2
  23996466.998    -1993964.209 2  -1553724.580 1
  22258870.797    -6370430.854 3  -4963954.577 2
 91  4 24 20 39 15.0000000  0  6 19 11 16 18 06 02
  20993852.756      540143.461 3    420889.925 3
  23066383.672    -2683668.068 3  -2091160.092 2
  23856602.717    -2592861.583 2  -2020413.438 1
  21676112.033     4992100.404 3   3889937.109 2
  23991343.840    -2020902.688 2  -1574715.442 1
  22253253.293    -6399946.510 3  -4986953.713 2
 91  4 24 20 39 30.0000000  0  6 19 11 16 18 06 02
  20995895.252      550820.732 3    429209.871 3
  23066114.764    -2685049.478 3  -2092236.496 1
  23855524.957    -2598485.413 2  -2024795.662 1
  21684159.969     5034384.668 3   3922885.797 2
  23986223.388    -2047803.344 2  -1595676.903 1
  22247657.968    -6429359.864 3  -5009873.125 2
 91  4 24 20 39 45.0000000  0  6 19 11 16 18 06 02
  20997930.540      561571.014 3    437586.711 2
  23065884.822    -2686256.488 3  -2093176.999 1
  23854490.979    -2603949.250 2  -2029053.184 1
  21692228.287     5076788.982 3   3955928.043 2
  23981116.111    -2074667.441 2  -1616609.799 1
  22242077.336    -6458672.449 3  -5032714.039 2
 91  4 24 20 40  0.0000000  0  6 19 11 16 18 06 02
  20999993.714      572395.310 3    446021.212 3
  23065689.362    -2687288.065 3  -2093980.779 1
  23853486.370    -2609252.492 2  -2033185.578 1
  21700320.877     5119314.289 3   3989064.553 2
  23976014.243    -2101494.430 2  -1637513.881 1
  22236520.681    -6487883.201 3  -5055475.596 2
 91  4 24 20 40 15.0000000  0  6 19 11 16 18 06 02
  21002064.968      583295.027 3    454514.486 3
  23065528.663    -2688142.667 3  -2094646.677 1
  23852507.552    -2614393.577 2  -2037191.574 1
  21708436.555     5161961.888 3   4022296.344 2
  23970909.688    -2128282.729 2  -1658387.787 1
  22230982.016    -6516990.658 3  -5078156.664 2
 91  4 24 20 40 30.0000000  0  6 19 11 16 18 06 02
  21004156.028      594271.511 3    463067.584 2
  23065400.352    -2688818.771 3  -2095173.475 1
  23851556.306    -2619371.013 2  -2041070.102 1
  21716577.431     5204732.756 3   4055624.204 2
  23965815.010    -2155031.062 2  -1679230.509 1
  22225462.530    -6545993.429 3  -5100756.160 2
 91  4 24 20 40 45.0000000  0  6 19 11 16 18 06 02
  21006258.465      605322.347 3    471678.617 2
  23065300.223    -2689318.955 3  -2095563.194 1
  23850638.948    -2624187.589 2  -2044823.330 1
  21724735.372     5247624.047 3   4089045.892 2
  23960738.026    -2181742.100 2  -1700044.189 1
  22219961.349    -6574894.012 3  -5123276.012 2
 91  4 24 20 41  0.0000000  0  6 19 11 16 18 06 02
  21008378.300      616448.050 3    480347.990 3
  23065237.576    -2689642.720 3  -2095815.456 1
  23849753.960    -2628842.959 2  -2048450.829 1
  21732926.016     5290636.199 3   4122561.763 2
  23955660.135    -2208415.542 2  -1720828.644 1
  22214480.235    -6603692.012 3  -5145715.951 2
 91  4 24 20 41 15.0000000  0  6 19 11 16 18 06 02
  21010507.122      627647.135 3    489074.538 3
  23065212.989    -2689791.405 3  -2095931.250 1
  23848903.751    -2633338.325 2  -2051953.729 1
  21741131.929     5333767.418 3   4156170.409 2
  23950585.559    -2235052.843 2  -1741584.848 1
  22209023.116    -6632388.797 3  -5168077.015 2
 91  4 24 20 41 30.0000000  0  6 19 11 16 18 06 02
  21012652.137      638917.958 3    497856.986 3
  23065217.177    -2689766.351 3  -2095911.697 1
  23848073.330    -2637675.015 2  -2055332.970
  21749360.631     5377015.948 3   4189870.467 2
  23945530.458    -2261655.468 2  -1762314.102 1
  22203582.173    -6660985.750 3  -5190360.278 2
 91  4 24 20 41 45.0000000  0  6 19 11 16 18 06 02
  21014810.956      650263.580 3    506697.722 2
  23065254.049    -2689564.537 3  -2095754.412 1
  23847280.375    -2641850.560 2  -2058586.584 1
  21757614.514     5420384.728 3   4223664.229 2
  23940471.762    -2288220.748 2  -1783014.173 1
  22198159.832    -6689479.758 3  -5212563.340 2
 91  4 24 20 42  0.0000000  0  6 19 11 16 18 06 02
  21016983.543      661680.814 3    515594.267 3
  23065326.904    -2689189.264 3  -2095461.963 1
  23846521.604    -2645868.325 2  -2061717.359 1
  21765886.389     5463870.036 3   4257548.790 2
  23935426.851    -2314751.806 2  -1803687.660 1
  22192755.482    -6717874.297 3  -5234688.883 2
 91  4 24 20 42 15.0000000  0  6 19 11 16 18 06 02
  21019168.729      673170.719 3    524547.424 3
  23065431.239    -2688639.375 3  -2095033.436 1
  23845786.200    -2649726.905 2  -2064724.080 1
  21774183.740     5507472.572 3   4291524.688 2
  23930381.941    -2341247.841 2  -1824333.888 1
  22187368.513    -6746168.367 3  -5256736.132 2
 91  4 24 20 42 30.0000000  0  6 19 11 16 18 06 02
  21021366.218      684733.507 3    533557.386 3
  23065573.929    -2687914.627 3  -2094468.651 1
  23845080.792    -2653426.420 2  -2067606.798 1
  21782505.086     5551192.595 3   4325592.144 2
  23925357.727    -2367708.720 2  -1844952.614 1
  22182001.314    -6774361.639 3  -5278704.859 2
 91  4 24 20 42 45.0000000  0  6 19 11 16 18 06 02
  21023581.977      696368.045 3    542623.242 2
  23065738.816    -2687016.078 3  -2093768.465 1
  23844401.473    -2656967.898 2  -2070366.380 1
  21790845.016     5595028.634 3   4359749.996 2
  23920315.504    -2394135.676 2  -1865544.934 1
  22176659.611    -6802455.063 3  -5300595.767 2
 91  4 24 20 43  0.0000000  0  6 19 11 16 18 06 02
  21025809.427      708074.613 3    551745.238 3
  23065943.281    -2685943.532 3  -2092932.677 1
  23843768.605    -2660351.128 2  -2073002.686 1
  21799211.924     5638980.674 3   4393998.243 2
  23915290.696    -2420528.512 2  -1886110.670 1
  22171331.414    -6830448.525 3  -5322408.784 2
 91  4 24 20 43 15.0000000  0  6 19 11 16 18 06 02
  21028050.681      719854.687 3    560924.509 3
  23066183.413    -2684695.288 3  -2091959.991 1
  23843146.226    -2663574.588 2  -2075514.502 1
  21807600.715     5683050.010 3   4428337.894 2
  23910282.658    -2446885.667 2  -1906648.685 1
  22166023.581    -6858340.478 3  -5344142.710 2
 91  4 24 20 43 30.0000000  0  6 19 11 16 18 06 02
  21030313.817      731708.317 3    570161.087 2
  23066455.026    -2683271.339 3  -2090850.399 1
  23842566.739    -2666638.488 2  -2077901.954 1
  21816006.293     5727236.269 3   4462768.654 2
  23905274.027    -2473207.505 2  -1927159.102 1
  22160734.943    -6886130.830 3  -5365797.464 2
 91  4 24 20 43 45.0000000  0  6 19 11 16 18 06 02
  21032575.452      743635.679 3    579455.110 3
  23066759.008    -2681671.558 3  -2089603.786 1
  23842012.416    -2669542.786 2  -2080165.019 1
  21824436.755     5771539.319 3   4497290.412 2
  23900274.086    -2499493.714 2  -1947641.804 1
  22155466.391    -6913819.342 3  -5387372.859 2
 91  4 24 20 44  0.0000000  0  6 19 11 16 18 06 02
  21034860.768      755634.601 3    588804.906 2
  23067096.286    -2679897.845 3  -2088221.615 1
  23841489.572    -2672289.211 2  -2082305.137 1
  21832888.803     5815957.072 3   4531901.555 2
  23895278.943    -2525746.581 2  -1968098.485 1
  22150215.533    -6941408.210 3  -5408870.604 2
 91  4 24 20 44 15.0000000  0  6 19 11 16 18 06 02
  21037158.386      767705.380 3    598210.698 2
  23067464.433    -2677950.003 3  -2086703.815 1
  23841003.025    -2674877.784 2  -2084322.225 1
  21841364.531     5860489.528 3   4566602.078 2
  23890287.396    -2551965.927 2  -1988529.147 1
  22144986.837    -6968897.294 3  -5430290.617 2
 91  4 24 20 44 30.0000000  0  6 19 11 16 18 06 02
  21039467.974      779848.618 3    607672.947 2
  23067870.954    -2675827.387 3  -2085049.784 1
  23840539.233    -2677308.045 2  -2086215.940 1
  21849859.751     5905136.934 3   4601392.161 2
  23885306.039    -2578151.317 2  -2008933.238 1
  22139773.759    -6996285.911 3  -5451632.339 2
 91  4 24 20 44 45.0000000  0  6 19 11 16 18 06 02
  21041791.069      792061.778 3    617189.686 2
  23068304.749    -2673532.542 3  -2083261.573 1
  23840102.734    -2679582.679 2  -2087988.375 1
  21858376.260     5949896.456 3   4636269.616 2
  23880325.590    -2604305.257 2  -2029312.783 1
  22134579.842    -7023576.493 3  -5472897.652 2
 91  4 24 20 45  0.0000000  0  6 19 11 16 18 06 02
  21044129.451      804344.183 3    626760.370 2
  23068771.525    -2671066.200 3  -2081339.714 1
  23839701.326    -2681702.339 2  -2089640.083 1
  21866917.042     5994767.020 3   4671233.588 2
  23875358.037    -2630428.674 2  -2049668.711 1
  22129406.323    -7050769.916 3  -5494087.275 2
 91  4 24 20 45 15.0000000  0  6 19 11 16 18 06 02
  21046479.821      816698.172 3    636386.847 2
  23069277.267    -2668425.891 3  -2079282.277 1
  23839328.083    -2683664.722 2  -2091169.225 1
  21875476.426     6039750.956 3   4706285.924 2
  23870394.671    -2656519.256 2  -2069998.873 1
  22124248.999    -7077863.753 3  -5515199.289 2
 91  4 24 20 45 30.0000000  0  6 19 11 16 18 06 02
  21048854.778      829132.701 3    646076.082 3
  23069816.007    -2665602.694 3  -2077082.371 1
  23838985.710    -2685461.044 2  -2092568.994 1
  21884060.380     6084856.905 3   4741433.313 2
  23865434.604    -2682568.240 2  -2090296.698 1
  22119114.150    -7104849.003 3  -5536226.683 2
 91  4 24 20 45 45.0000000  0  6 19 11 16 18 06 02
  21051224.046      841638.906 3    655821.166 2
  23070385.600    -2662605.269 3  -2074746.675 1
  23838667.628    -2687100.523 2  -2093846.500 1
  21892665.327     6130075.615 3   4776668.583 2
  23860479.929    -2708584.393 2  -2110569.005 1
  22113996.699    -7131734.373 3  -5557176.272 2
 91  4 24 20 46  0.0000000  0  6 19 11 16 18 06 02
  21053621.479      854216.635 3    665621.988 2
  23070991.489    -2659433.899 3  -2072275.449 1
  23838390.326    -2688582.821 2  -2095001.536 1
  21901288.247     6175406.646 3   4811991.366 2
  23855542.651    -2734568.098 2  -2130815.922 1
  22108899.333    -7158520.115 3  -5578048.206 2
 91  4 24 20 46 15.0000000  0  6 19 11 16 18 06 02
  21056025.212      866864.403 3    675477.364 2
  23071627.043    -2656089.888 3  -2069669.693 1
  23838131.609    -2689909.327 2  -2096035.217 1
  21909939.070     6220848.450 3   4847400.469 2
  23850593.386    -2760520.734 2  -2151038.651 1
  22103822.035    -7185207.563 3  -5598843.548 2
 91  4 24 20 46 30.0000000  0  6 19 11 16 18 06 02
  21058446.936      879581.762 3    685386.988 2
  23072292.577    -2652573.722 2  -2066929.764 1
  23837912.452    -2691080.722 2  -2096948.025 1
  21918607.257     6266400.506 3   4882895.471 2
  23845667.486    -2786442.998 2  -2171237.709 1
  22098761.542    -7211797.349 3  -5619562.797 2
 91  4 24 20 46 45.0000000  0  6 19 11 16 18 06 02
  21060883.353      892372.068 3    695353.444 2
  23072993.797    -2648882.201 3  -2064053.243 1
  23837722.088    -2692094.146 2  -2097737.721 1
  21927294.341     6312065.406 3   4918478.423 2
  23840742.197    -2812331.680 2  -2191410.586 1
  22093721.727    -7238286.170 3  -5640203.383 2
 91  4 24 20 47  0.0000000  0  6 19 11 16 18 06 02
  21063331.164      905231.171 3    705373.510 2
  23073732.482    -2645019.554 3  -2061043.371 1
  23837555.106    -2692953.932 2  -2098407.713 1
  21936007.811     6357838.812 3   4954145.906 2
  23835820.206    -2838191.053 2  -2211560.691 1
  22088699.310    -7264678.216 3  -5660768.548 2
 91  4 24 20 47 15.0000000  0  6 19 11 16 18 06 02
  21065788.853      918162.018 3    715449.492 2
  23074499.349    -2640982.538 3  -2057897.624 1
  23837424.998    -2693656.806 2  -2098955.400 1
  21944739.272     6403723.720 3   4989900.285 2
  23830902.403    -2864018.047 2  -2231685.574 1
  22083697.868    -7290970.283 3  -5681255.812 2
 91  4 24 20 47 30.0000000  0  6 19 11 16 18 06 02
  21068266.644      931163.236 3    725580.294 2
  23075300.995    -2636772.502 3  -2054617.025 1
  23837325.758    -2694204.386 2  -2099382.075 1
  21953490.521     6449718.393 3   5025740.178 2
  23825995.698    -2889814.185 2  -2251786.279 1
  22078713.231    -7317163.800 3  -5701666.283 2
 91  4 24 20 47 45.0000000  0  6 19 11 16 18 06 02
  21070748.920      944232.304 3    735763.970 2
  23076128.728    -2632392.045 3  -2051203.652 1
  23837251.106    -2694599.197 2  -2099689.774 1
  21962263.339     6495819.723 3   5061663.202 2
  23821094.403    -2915582.153 2  -2271865.133 1
  22073745.957    -7343261.508 3  -5722002.104 2
 91  4 24 20 48  0.0000000  0  6 19 11 16 18 06 02
  21073249.484      957366.561 3    745998.447 2
  23077003.229    -2627844.086 3  -2047659.769 1
  23837206.137    -2694843.945 2  -2099880.549 1
  21971056.259     6542024.960 3   5097667.173 2
  23816190.700    -2941324.943 2  -2291924.359 1
  22068794.894    -7369266.428 3  -5742265.613 2
 91  4 24 20 48 15.0000000  0  6 19 11 16 18 06 02
  21075760.256      970570.785 3    756287.447 2
  23077902.299    -2623123.564 3  -2043981.430 1
  23837182.754    -2694934.082 2  -2099950.790 1
  21979867.747     6588338.763 3   5133755.742 2
  23811297.485    -2967037.688 2  -2311960.160 1
  22063866.307    -7395173.340 3  -5762452.757 2
 91  4 24 20 48 30.0000000  0  6 19 11 16 18 06 02
  21078292.301      983842.406 3    766628.947 2
  23078829.551    -2618233.024 3  -2040170.569 1
  23837195.056    -2694872.400 2  -2099902.713 1
  21988701.134     6634758.236 3   5169926.661 2
  23806411.773    -2992722.937 2  -2331974.574 1
  22058956.304    -7420984.729 3  -5782565.466 2
 91  4 24 20 48 45.0000000  0  6 19 11 16 18 06 02
  21080827.939      997186.187 3    777026.694 2
  23079795.194    -2613167.891 3  -2036223.689 1
  23837233.726    -2694654.243 2  -2099732.776 1
  21997556.108     6681287.701 3   5206183.271 2
  23801533.843    -3018376.077 2  -2351963.913 1
  22054062.495    -7446696.082 3  -5802600.222 2
 91  4 24 20 49  0.0000000  0  6 19 11 16 18 06 02
  21083385.775     1010598.883 3    787478.135 2
  23080789.001    -2607931.450 3  -2032143.315 1
  23837308.674    -2694282.735 2  -2099443.280 1
  22006431.759     6727923.674 3   5242522.868 2
  23796651.726    -3044000.630 2  -2371930.899 1
  22049187.864    -7472310.551 3  -5822559.487 2
 91  4 24 20 49 15.0000000  0  6 19 11 16 18 06 02
  21085946.001     1024083.052 3    797985.264 2
  23081816.993    -2602520.964 3  -2027927.304 1
  23837408.804    -2693755.199 2  -2099032.235 1
  22015329.608     6774668.719 3   5278947.464 2
  23791787.583    -3069593.952 2  -2391873.736 1
  22044335.116    -7497825.281 3  -5842441.034 2
 91  4 24 20 49 30.0000000  0  6 19 11 16 18 06 02
  21088525.126     1037637.010 3    808546.787 2
  23082881.247    -2596938.092 3  -2023577.009 1
  23837537.115    -2693073.546 2  -2098501.118 1
  22024241.836     6821520.580 3   5315455.304 2
  23786919.565    -3095157.799 2  -2411793.570 1
  22039496.170    -7523242.220 3  -5862246.385 2
 91  4 24 20 49 45.0000000  0  6 19 11 16 18 06 02
  21091119.519     1051259.292 3    819161.537 2
  23083978.203    -2591184.267 3  -2019093.485 1
  23837693.609    -2692239.462 2  -2097851.201 1
  22033179.540     6868477.818 3   5352045.216 2
  23782054.218    -3120693.660 2  -2431691.507 1
  22034678.811    -7548562.737 3  -5881976.604 2
 91  4 24 20 50  0.0000000  0  6 19 11 16 18 06 02
  21093726.215     1064951.990 3    829831.159 2
  23085102.416    -2585257.488 3  -2014475.193 1
  23837877.988    -2691250.892 2  -2097080.901 1
  22042133.142     6915542.053 3   5388718.545 2
  23777206.879    -3146199.578 2  -2451566.118 1
  22029876.127    -7573784.834 3  -5901630.132 2
 91  4 24 20 50 15.0000000  0  6 19 11 16 18 06 02
  21096338.304     1078712.977 3    840553.994 2
  23086264.111    -2579159.916 3  -2009723.814 1
  23838100.129    -2690110.210 2  -2096192.165 1
  22051112.536     6962710.967 3   5425473.425 2
  23772357.446    -3171677.879 2  -2471419.331 1
  22025095.640    -7598910.580 3  -5921208.581 2
 91  4 24 20 50 30.0000000  0  6 19 11 16 18 06 02
  21098978.574     1092541.753 3    851329.653 2
  23087462.680    -2572892.265 3  -2004839.893 1
  23838345.654    -2688818.117 2  -2095185.281 1
  22060105.715     7009983.759 3   5462309.254 2
  23767514.888    -3197129.220 2  -2491251.395 1
  22020330.736    -7623940.773 3  -5940712.567 2
 91  4 24 20 50 45.0000000  0  6 19 11 16 18 06 02
  21101614.359     1106438.077 3    862157.950 2
  23088682.240    -2566454.683 3  -1999823.579 1
  23838620.268    -2687374.831 2  -2094060.716 1
  22069122.557     7057359.785 3   5499225.526 2
  23762670.551    -3222553.873 2  -2511062.716 1
  22015587.732    -7648875.588 3  -5960142.236 2
 91  4 24 20 51  0.0000000  0  6 19 11 16 18 06 02
  21104277.716     1120404.385 3    873040.776 2
  23089941.064    -2559844.600 3  -1994672.842 1
  23838923.657    -2685777.838 2  -2092816.334 1
  22078157.407     7104841.142 3   5536223.859 2
  23757848.078    -3247949.499 2  -2530851.473 1
  22010860.590    -7673712.531 3  -5979495.636 2
 91  4 24 20 51 15.0000000  0  6 19 11 16 18 06 02
  21106943.761     1134439.934 3    883977.553 2
  23091230.182    -2553062.905 3  -1989388.380 1
  23839255.525    -2684028.123 2  -2091452.928 1
  22087216.530     7152426.948 3   5573303.590 2
  23753012.135    -3273316.882 2  -2550618.139 1
  22006153.865    -7698452.325 3  -5998773.338 2
 91  4 24 20 51 30.0000000  0  6 19 11 16 18 06 02
  21109635.596     1148543.661 3    894967.453 2
  23092552.262    -2546110.670 3  -1983971.052 1
  23839621.579    -2682126.868 2  -2089971.440 1
  22096290.050     7200115.902 3   5610463.694 2
  23748194.164    -3298657.218 2  -2570363.764 1
  22001461.798    -7723096.103 3  -6017976.231 2
 91  4 24 20 51 45.0000000  0  6 19 11 16 18 06 02
  21112324.134     1162706.394 3    906003.343 2
  23093908.214    -2538997.110 3  -1978427.973 1
  23840007.106    -2680083.503 2  -2088379.266 1
  22105380.357     7247898.574 3   5647696.824 2
  23743380.993    -3323979.766 2  -2590095.539 1
  21996791.945    -7747652.992 3  -6037111.424 2
 91  4 24 20 52  0.0000000  0  6 19 11 16 18 06 02
  21115038.463     1176929.375 3    917086.178 2
  23095291.755    -2531721.071 3  -1972758.309 1
  23840426.819    -2677896.772 2  -2086675.358 1
  22114493.158     7295775.876 3   5685003.682 2
  23738563.633    -3349283.503 2  -2609812.674 1
  21992134.063    -7772121.894 3  -6056178.042 2
 91  4 24 20 52 15.0000000  0  6 19 11 16 18 06 02
  21117749.791     1191220.864 3    928222.379 2
  23096706.479    -2524274.212 3  -1966955.544 1
  23840873.213    -2675558.563 2  -2084853.402 1
  22123623.042     7343755.491 3   5722390.276 2
  23733751.666    -3374560.049 2  -2629508.603 1
  21987496.581    -7796494.422 3  -6075169.572 2
 91  4 24 20 52 30.0000000  0  6 19 11 16 18 06 02
  21120485.688     1205585.555 3    939415.636 2
  23098160.169    -2516651.910 3  -1961016.055 1
  23841347.475    -2673063.910 2  -2082909.593 1
  22132772.104     7391842.064 3   5759860.207 2
  23728943.590    -3399804.845 2  -2649179.781 1
  21982874.978    -7820765.999 3  -6094082.437 2
 91  4 24 20 52 45.0000000  0  6 19 11 16 18 06 02
  21123232.091     1220023.879 3    950666.267 2
  23099642.059    -2508853.676 3  -1954939.497 1
  23841860.128    -2670412.577 2  -2080843.641 1
  22141942.752     7440035.847 3   5797413.688 2
  23724150.818    -3425017.586 2  -2668825.974 1
  21978279.149    -7844936.109 3  -6112916.215 2
 91  4 24 20 53  0.0000000  0  6 19 11 16 18 06 02
  21125997.078     1234535.192 3    961973.771 2
  23101162.601    -2500880.214 3  -1948726.395 1
  23842382.360    -2667605.588 2  -2078656.479 1
  22151135.596     7488335.975 3   5835050.028 2
  23719357.732    -3450198.969 2  -2688447.766 1
  21973700.421    -7869005.337 3  -6131671.414 2
 91  4 24 20 53 15.0000000  0  6 19 11 16 18 06 02
  21128765.363     1249118.430 3    973337.322 2
  23102708.027    -2492732.515 3  -1942377.535 1
  23842945.671    -2664644.021 2  -2076348.762 1
  22160346.414     7536741.068 3   5872768.166 2
  23714567.944    -3475350.109 2  -2708045.996 1
  21969139.074    -7892974.883 3  -6150348.925 2
 91  4 24 20 53 30.0000000  0  6 19 11 16 18 06 02
  21131558.235     1263773.772 3    984757.059 2
  23104295.736    -2484410.590 3  -1935892.894 1
  23843541.351    -2661528.177 2  -2073920.892 1
  22169582.413     7585250.871 3   5910567.893 2
  23709790.161    -3500471.010 2  -2727620.617 1
  21964596.032    -7916844.530 3  -6168948.591 2
 91  4 24 20 53 45.0000000  0  6 19 11 16 18 06 02
  21134359.187     1278497.983 3    996230.450 2
  23105913.109    -2475917.804 3  -1929275.140 1
  23844161.933    -2658261.208 2  -2071375.238 1
  22178828.917     7633862.030 3   5948446.583 2
  23705012.065    -3525565.089 2  -2747174.377 1
  21960071.260    -7940617.592 3  -6187473.007 2
 91  4 24 20 54  0.0000000  0  6 19 11 16 18 06 02
  21137179.038     1293291.719 3   1007758.034 2
  23107557.478    -2467253.405 3  -1922523.626 1
  23844815.182    -2654842.539 2  -2068711.386 1
  22188097.897     7682574.732 3   5986404.405 2
  23700244.456    -3550631.554 2  -2766706.626 1
  21955566.573    -7964293.562 3  -6205921.754 2
 91  4 24 20 54 15.0000000  0  6 19 11 16 18 06 02
  21140005.781     1308176.125 3   1019356.252 2
  23109241.110    -2458396.334 3  -1915621.996 1
  23845493.909    -2651251.122 2  -2065912.878 1
  22197390.871     7731409.893 3   6024457.653 2
  23695481.053    -3575649.621 2  -2786201.141 1
  21951084.380    -7987851.299 3  -6224278.370 2
 91  4 24 20 54 30.0000000  0  6 19 11 16 18 06 02
  21142852.016     1323125.012 3   1031004.718 2
  23110967.006    -2449372.866 3  -1908590.735 1
  23846203.225    -2647513.205 2  -2063000.334 1
  22206703.319     7780340.851 3   6062585.545 2
  23690723.059    -3600645.381 2  -2805678.287 1
  21946616.566    -8011316.951 3  -6242563.257 2
 91  4 24 20 54 45.0000000  0  6 19 11 16 18 06 02
  21145710.222     1338139.822 3   1042704.550 2
  23112712.708    -2440181.683 3  -1901428.755 2
  23846941.910    -2643627.605 2  -2059972.615 1
  22216033.165     7829369.004 3   6100789.177 2
  23685975.535    -3625617.634 2  -2825137.127 1
  21942169.745    -8034689.241 3  -6260775.371 2
 91  4 24 20 55  0.0000000  0  6 19 11 16 18 06 02
  21148575.653     1353218.332 3   1054454.023 2
  23114492.875    -2430824.988 3  -1894137.820 1
  23847717.468    -2639596.949 2  -2056831.919 1
  22225377.984     7878491.869 3   6139066.612 2
  23681218.135    -3650568.595 2  -2844579.381 1
  21937743.619    -8057970.233 3  -6278916.351 2
 91  4 24 20 55 15.0000000  0  6 19 11 16 18 06 02
  21151457.259     1368362.120 3   1066254.364 2
  23116300.316    -2421301.150 3  -1886716.645 2
  23848512.517    -2635419.464 2  -2053576.767 1
  22234745.313     7927710.594 3   6177418.735 2
  23676481.413    -3675496.772 2  -2864003.845 1
  21933329.168    -8081158.212 3  -6296984.853 2
 91  4 24 20 55 30.0000000  0  6 19 11 16 18 06 02
  21154353.245     1383568.647 3   1078103.601 2
  23118149.743    -2411612.906 3  -1879167.355 2
  23849324.964    -2631097.953 2  -2050209.294 1
  22244128.504     7977022.123 3   6215843.164 2
  23671739.892    -3700404.868 2  -2883412.701 1
  21928930.910    -8104256.131 3  -6314983.177 2
 91  4 24 20 55 45.0000000  0  6 19 11 16 18 06 02
  21157257.939     1398838.960 3   1090002.526 2
  23120022.238    -2401759.197 3  -1871489.160 1
  23850185.365    -2626631.484 2  -2046729.028 1
  22253526.406     8026427.290 3   6254340.581 2
  23667004.374    -3725291.891 2  -2902805.115 1
  21924553.348    -8127262.836 3  -6332910.434 2
 91  4 24 20 56  0.0000000  0  6 19 11 16 18 06 02
  21160185.405     1414173.366 3   1101951.400 2
  23121928.919    -2391739.618 3  -1863681.683 2
  23851052.955    -2622019.802 2  -2043135.485 1
  22262951.583     8075926.240 3   6292911.054 2
  23662266.762    -3750157.638 2  -2922180.916 1
  21920194.668    -8150178.021 3  -6350766.366 2
 91  4 24 20 56 15.0000000  0  6 19 11 16 18 06 02
  21163107.478     1429570.133 3   1113948.863 2
  23123866.783    -2381556.089 3  -1855746.452 2
  23851963.734    -2617264.922 2  -2039430.445 1
  22272388.155     8125517.009 3   6331553.064 2
  23657539.620    -3775003.759 2  -2941541.435 1
  21915848.569    -8173003.448 3  -6368552.360 2
 91  4 24 20 56 30.0000000  0  6 19 11 16 18 06 02
  21166053.843     1445029.213 3   1125994.878 2
  23125834.627    -2371208.755 3  -1847683.590 1
  23852893.394    -2612366.931 2  -2035613.923 1
  22281841.496     8175199.186 3   6370266.297 2
  23652825.688    -3799830.593 2  -2960886.999 1
  21911524.667    -8195739.245 3  -6386268.511 2
 91  4 24 20 56 45.0000000  0  6 19 11 16 18 06 02
  21169002.005     1460548.313 3   1138087.669 2
  23127835.434    -2360700.002 3  -1839494.949 1
  23853858.112    -2607328.359 2  -2031687.787 1
  22291313.143     8224970.259 3   6409048.840 1
  23648106.050    -3824640.512 2  -2980219.355 1
  21907214.254    -8218387.588 3  -6403916.525 2
 91  4 24 20 57  0.0000000  0  6 19 11 16 18 06 02
  21171968.455     1476129.843 3   1150229.104 2
  23129862.625    -2350027.455 3  -1831178.688 1
  23854838.430    -2602146.847 2  -2027650.245 1
  22300802.170     8274832.326 3   6447902.276 2
  23643383.428    -3849431.133 2  -2999536.670 1
  21902920.628    -8240946.293 3  -6421494.688 2
 91  4 24 20 57 15.0000000  0  6 19 11 16 18 06 02
  21174942.687     1491772.077 3   1162417.848 2
  23131924.595    -2339192.794 3  -1822736.076 1
  23855850.246    -2596824.056 2  -2023502.660 1
  22310303.499     8324783.379 3   6486825.047 2
  23638672.183    -3874204.192 2  -3018840.259 1
  21898643.492    -8263416.951 3  -6439004.245 2
 91  4 24 20 57 30.0000000  0  6 19 11 16 18 06 02
  21177935.818     1507475.967 3   1174654.631 2
  23134015.358    -2328195.265 3  -1814166.589 2
  23856890.524    -2591359.563 2  -2019244.629 1
  22319832.400     8374824.030 3   6525817.621 2
  23633958.844    -3898958.934 2  -3038129.605 1
  21894384.941    -8285798.712 3  -6456444.525 2
 91  4 24 20 57 45.0000000  0  6 19 11 16 18 06 02
  21180931.340     1523241.652 3   1186939.560 2
  23136146.571    -2317034.741 3  -1805470.072 1
  23857961.374    -2585753.336 2  -2014876.205 1
  22329368.194     8424954.080 3   6564879.863 2
  23629251.508    -3923695.263 2  -3057404.553 1
  21890141.362    -8308091.345 3  -6473815.360 2
 91  4 24 20 58  0.0000000  0  6 19 11 16 18 06 02
  21183949.059     1539068.486 3   1199272.143 2
  23138298.794    -2305712.084 3  -1796647.218 1
  23859055.014    -2580006.119 2  -2010397.843 1
  22338927.685     8475172.618 3   6604011.062 2
  23624541.764    -3948414.010 2  -3076665.928 1
  21885916.699    -8330295.800 3  -6491117.482 2
 91  4 24 20 58 15.0000000  0  6 19 11 16 18 06 02
  21186965.277     1554956.982 3   1211652.774 2
  23140484.870    -2294226.832 2  -1787697.689 1
  23860170.240    -2574117.512 2  -2005809.398 1
  22348500.351     8525479.805 3   6643211.328 2
  23619847.918    -3973114.718 2  -3095913.098 1
  21881707.602    -8352411.564 3  -6508350.502 2
 91  4 24 20 58 30.0000000  0  6 19 11 16 18 06 02
  21189997.967     1570906.147 3   1224080.676 2
  23142702.740    -2282580.038 3  -1778622.269 1
  23861319.947    -2568088.806 2  -2001111.743 1
  22358087.116     8575874.242 3   6682479.583 2
  23615149.272    -3997798.576 2  -3115147.206 1
  21877515.309    -8374439.702 3  -6525515.229 2
 91  4 24 20 58 45.0000000  0  6 19 11 16 18 06 02
  21193049.260     1586914.482 3   1236554.691 2
  23144950.293    -2270773.371 3  -1769422.266 1
  23862498.744    -2561921.609 2  -1996306.174 1
  22367695.765     8626354.120 3   6721814.419 1
  23610450.033    -4022467.086 2  -3134369.332 1
  21873338.600    -8396381.815 3  -6542612.929 2
 91  4 24 20 59  0.0000000  0  6 19 11 16 18 06 02
  21196110.133     1602982.421 3   1249075.145 2
  23147227.215    -2258806.317 3  -1760097.299 2
  23863696.405    -2555615.636 2  -1991392.464 1
  22377316.401     8676919.728 3   6761216.043 2
  23605761.875    -4047119.853 2  -3153579.214 1
  21869179.881    -8418237.199 3  -6559643.060 2
 91  4 24 20 59 15.0000000  0  6 19 11 16 18 06 02
  21199175.211     1619109.683 3   1261641.827 2
  23149531.411    -2246679.265 2  -1750647.655 1
  23864916.856    -2549171.174 2  -1986370.835 1
  22386953.528     8727570.510 3   6800684.062 2
  23601077.922    -4071757.268 2  -3172777.154 1
  21865038.247    -8440006.376 3  -6576605.999 2
 91  4 24 20 59 30.0000000  0  6 19 11 16 18 06 02
  21202257.688     1635296.624 3   1274255.009 2
  23151867.402    -2234391.709 3  -1741072.942 1
  23866173.289    -2542588.061 2  -1981241.216 1
  22396612.555     8778306.486 3   6840218.445 1
  23596386.170    -4096378.948 2  -3191962.777 1
  21860913.696    -8461688.787 3  -6593501.344 2
 91  4 24 20 59 45.0000000  0  6 19 11 16 18 06 02
  21205346.446     1651543.530 3   1286914.924 2
  23154241.452    -2221943.774 3  -1731373.255 1
  23867451.901    -2535866.123 2  -1976003.401 1
  22406282.960     8829127.772 3   6879819.302 2
  23591715.095    -4120984.841 2  -3211136.155 1
  21856803.855    -8483284.289 3  -6610328.966 2
 91  4 24 21  0  0.0000000  0  6 19 11 16 18 06 02
  21208451.991     1667850.159 3   1299621.368 2
  23156640.386    -2209335.721 3  -1721548.799 1
  23868757.195    -2529005.850 2  -1970657.791 1
  22415968.040     8880033.672 3   6919486.089 2
  23587027.845    -4145575.116 2  -3230297.359 1
  21852711.378    -8504793.165 3  -6627089.077 2
 91  4 24 21  0 15.0000000  0  6 19 11 16 18 06 02
  21211565.040     1684219.340 3   1312376.553 2
  23159063.907    -2196564.726 3  -1711597.356 1
  23870093.079    -2522004.398 2  -1965202.122 1
  22425672.333     8931026.677 3   6959220.755 2
  23582350.174    -4170147.110 2  -3249444.274 1
  21848634.501    -8526212.695 3  -6643779.571 2
 91  4 24 21  0 30.0000000  0  6 19 11 16 18 06 02
  21214693.673     1700648.386 3   1325178.390 2
  23161529.099    -2183633.532 3  -1701521.121 1
  23871448.734    -2514864.831 2  -1959638.903 1
  22435393.099     8982103.863 3   6999021.025 2
  23577677.006    -4194703.530 2  -3268579.035 1
  21844574.708    -8547545.556 3  -6660402.536 2
 91  4 24 21  0 45.0000000  0  6 19 11 16 18 06 02
  21217830.402     1717135.923 3   1338025.800 2
  23164026.679    -2170543.750 3  -1691321.298 1
  23872835.887    -2507588.646 2  -1953969.229 1
  22445127.668     9033263.472 3   7038885.508 1
  23573002.651    -4219245.902 2  -3287702.960 1
  21840533.517    -8568793.255 3  -6676959.137 2
 91  4 24 21  1  0.0000000  0  6 19 11 16 18 06 02
  21220981.213     1733684.001 3   1350920.390 2
  23166539.842    -2157293.201 3  -1680996.188 1
  23874243.997    -2500174.039 2  -1948191.675 1
  22454880.508     9084507.546 3   7078815.806 2
  23568342.378    -4243772.196 2  -3306814.267 1
  21836507.298    -8589953.699 3  -6693447.743 2
 91  4 24 21  1 15.0000000  0  6 19 11 16 18 06 02
  21224136.544     1750293.008 3   1363862.451 2
  23169096.473    -2143881.741 3  -1670545.721 1
  23875685.106    -2492620.774 2  -1942306.069 1
  22464646.243     9135835.755 3   7118811.663 1
  23563675.806    -4268282.206 2  -3325912.921 1
  21832495.178    -8611026.603 3  -6709868.146 2
 91  4 24 21  1 30.0000000  0  6 19 11 16 18 06 02
  21227316.741     1766962.658 3   1376851.768 2
  23171678.286    -2130309.620 3  -1659970.058 2
  23877145.096    -2484929.073 2  -1936312.572 1
  22474429.969     9187247.929 3   7158872.936 1
  23559017.331    -4292776.201 2  -3344999.090 1
  21828502.237    -8632012.280 3  -6726220.579 2
 91  4 24 21  1 45.0000000  0  6 19 11 16 18 06 02
  21230493.030     1783690.451 3   1389886.396 2
  23174290.374    -2116579.636 3  -1649271.384 1
  23878635.362    -2477101.936 2  -1930213.592 1
  22484230.797     9238740.854 3   7198997.146 1
  23554356.465    -4317256.829 2  -3364074.866 1
  21824525.804    -8652913.307 3  -6742507.040 2
 91  4 24 21  2  0.0000000  0  6 19 11 16 18 06 02
  21233691.219     1800476.119 3   1402966.120 2
  23176932.145    -2102692.221 3  -1638450.004 1
  23880152.606    -2469139.872 2  -1924009.399 1
  22494041.204     9290313.918 3   7239183.797 2
  23549700.381    -4341724.604 2  -3383140.572 1
  21820561.341    -8673730.188 3  -6758727.949 2
 91  4 24 21  2 15.0000000  0  6 19 11 16 18 06 02
  21236891.205     1817322.095 3   1416092.829 2
  23179601.487    -2088644.904 2  -1627504.026 1
  23881686.358    -2461040.438 2  -1917698.250 1
  22503873.198     9341969.481 3   7279434.730 2
  23545044.313    -4366177.066 2  -3402194.381 1
  21816614.870    -8694460.353 3  -6774881.277 2
 91  4 24 21  2 30.0000000  0  6 19 11 16 18 06 02
  21240107.384     1834229.327 3   1429267.269 2
  23182304.124    -2074436.977 3  -1616432.942 1
  23883262.968    -2452803.136 2  -1911279.648 1
  22513721.071     9393707.758 3   7319750.117 2
  23540396.029    -4390613.553 2  -3421235.708 1
  21812690.595    -8715103.090 3  -6790966.480 2
 91  4 24 21  2 45.0000000  0  6 19 11 16 18 06 02
  21243341.241     1851194.763 3   1442487.069 2
  23185042.133    -2060071.639 3  -1605239.187 1
  23884854.253    -2444431.080 2  -1904756.039 1
  22523578.246     9445525.707 3   7360127.602 2
  23535749.246    -4415037.013 2  -3440266.931 1
  21808777.698    -8735661.350 3  -6806985.860 2
 91  4 24 21  3  0.0000000  0  6 19 11 16 18 06 02
  21246584.992     1868219.221 3   1455752.859 2
  23187807.417    -2045547.971 3  -1593922.040 1
  23886468.939    -2435923.484 2  -1898126.794 1
  22533455.819     9497424.023 3   7400567.691 2
  23531099.757    -4439446.480 2  -3459287.220 1
  21804879.790    -8756133.973 3  -6822938.499 2
 91  4 24 21  3 15.0000000  0  6 19 11 16 18 06 02
  21249829.058     1885302.761 3   1469064.673 2
  23190598.178    -2030866.121 3  -1582481.650 1
  23888114.198    -2427280.602 2  -1891392.162 1
  22543348.662     9549402.264 3   7441070.057 2
  23526460.477    -4463842.254 2  -3478296.852 1
  21801001.689    -8776521.313 3  -6838824.693 2
 91  4 24 21  3 30.0000000  0  6 19 11 16 18 06 02
  21253101.288     1902445.834 3   1482422.881 2
  23193423.735    -2016025.777 3  -1570917.751 2
  23889788.843    -2418501.899 2  -1884551.662 1
  22553255.604     9601460.487 3   7481634.748 2
  23521819.086    -4488223.789 2  -3497295.366 1
  21797138.856    -8796823.104 3  -6854644.232 2
 91  4 24 21  3 45.0000000  0  6 19 11 16 18 06 02
  21256364.217     1919648.650 3   1495827.653 2
  23196273.861    -2001026.795 2  -1559230.243 1
  23891486.261    -2409587.651 2  -1877605.570 1
  22563173.034     9653598.783 3   7522261.830 2
  23517186.384    -4512591.012 2  -3516282.713 1
  21793291.013    -8817038.880 3  -6870396.720 2
 91  4 24 21  4  0.0000000  0  6 19 11 16 18 06 02
  21259660.144     1936911.148 3   1509278.927 2
  23199162.361    -1985869.331 3  -1547419.240 1
  23893206.172    -2400538.106 2  -1870554.044 1
  22573113.551     9705816.799 3   7562951.032 2
  23512553.404    -4536944.109 2  -3535259.105 1
  21789461.772    -8837168.734 3  -6886082.273 2
 91  4 24 21  4 15.0000000  0  6 19 11 16 18 06 02
  21262946.770     1954233.683 3   1522776.974 2
  23202081.137    -1970553.058 3  -1535484.480 1
  23894956.359    -2391352.902 2  -1863396.816 1
  22583065.462     9758114.576 3   7603702.389 2
  23507919.813    -4561282.658 2  -3554224.158 1
  21785649.615    -8857212.570 3  -6901700.803 2
 91  4 24 21  4 30.0000000  0  6 19 11 16 18 06 02
  21266262.765     1971614.776 3   1536320.663 2
  23205022.092    -1955079.667 2  -1523427.291 1
  23896724.537    -2382034.088 2  -1856135.513 1
  22593029.379     9810490.167 3   7644514.380 1
  23503282.923    -4585608.345 2  -3573179.194 1
  21781847.946    -8877171.960 3  -6917253.533 2
 91  4 24 21  4 45.0000000  0  6 19 11 16 18 06 02
  21269575.183     1989055.981 3   1549911.190 2
  23207996.342    -1939447.688 2  -1511246.516 1
  23898528.698    -2372580.045 2  -1848768.789 1
  22603012.754     9862944.946 3   7685388.086 2
  23498663.415    -4609919.806 2  -3592123.090 1
  21778066.065    -8897045.244 3  -6932739.165 2
 91  4 24 21  5  0.0000000  0  6 19 11 16 18 06 02
  21272907.669     2006556.997 3   1563548.320 2
  23210999.367    -1923657.605 2  -1498942.585 1
  23900348.441    -2362991.113 2  -1841296.946 1
  22613006.633     9915478.196 3   7726322.910 2
  23494041.812    -4634217.317 2  -3611056.172 1
  21774302.768    -8916832.892 3  -6948158.066 2
 91  4 24 21  5 15.0000000  0  6 19 11 16 18 06 02
  21276245.860     2024116.271 3   1577230.837 2
  23214038.951    -1907711.234 3  -1486516.858 2
  23902202.649    -2353269.043 2  -1833721.383 1
  22623019.707     9968087.861 3   7767317.319 2
  23489422.914    -4658502.595 2  -3629979.702 1
  21770554.165    -8936536.606 3  -6963511.562 2
 91  4 24 21  5 30.0000000  0  6 19 11 16 18 06 02
  21279600.839     2041734.359 3   1590959.200 2
  23217100.434    -1891607.872 2  -1473968.772 1
  23904076.349    -2343413.528 2  -1826041.865 1
  22633045.660    10020774.368 3   7808371.560 1
  23484806.703    -4682774.923 2  -3648893.124 1
  21766820.237    -8956155.551 3  -6978799.012 2
 91  4 24 21  5 45.0000000  0  6 19 11 16 18 06 02
  21282961.804     2059411.777 3   1604733.782 2
  23220196.993    -1875347.313 2  -1461298.231 2
  23905985.437    -2333424.512 2  -1818258.271 1
  22643087.214    10073537.853 3   7849485.817 2
  23480186.601    -4707034.186 2  -3667796.367 1
  21763101.020    -8975689.647 3  -6994020.337 2
 91  4 24 21  6  0.0000000  0  6 19 11 16 18 06 02
  21286335.384     2077148.067 3   1618554.240 2
  23223320.233    -1858930.150 3  -1448505.636 1
  23907901.401    -2323302.428 2  -1810371.003 1
  22653143.163    10126377.590 3   7890659.467 2
  23475571.594    -4731280.819 2  -3686689.803 1
  21759399.480    -8995139.312 3  -7009175.878 2
 91  4 24 21  6 15.0000000  0  6 19 11 16 18 06 02
  21289720.936     2094944.482 3   1632421.556 2
  23226474.046    -1842355.340 3  -1435590.196 2
  23909847.066    -2313046.411 2  -1802379.354 1
  22663211.084    10179294.550 3   7931893.287 2
  23470954.493    -4755513.600 2  -3705572.410 1
  21755717.431    -9014503.168 3  -7024264.545 2
 91  4 24 21  6 30.0000000  0  6 19 11 16 18 06 02
  21293121.477     2112799.244 3   1646334.331 2
  23229660.246    -1825624.705 3  -1422553.346 1
  23911831.976    -2302658.460 2  -1794284.962 1
  22673294.012    10232286.581 3   7973185.628 1
  23466347.287    -4779734.354 2  -3724445.668 1
  21752046.778    -9033783.246 3  -7039287.935 2
 91  4 24 21  6 45.0000000  0  6 19 11 16 18 06 02
  21296528.615     2130714.159 3   1660293.967 2
  23232870.720    -1808736.651 3  -1409393.836 1
  23913835.802    -2292137.067 2  -1786086.519 1
  22683397.007    10285355.012 3   8014537.507 1
  23461738.876    -4803941.472 2  -3743308.336 1
  21748395.006    -9052977.959 3  -7054244.807 2
 91  4 24 21  7  0.0000000  0  6 19 11 16 18 06 02
  21299952.243     2148688.239 3   1674299.722 2
  23236112.970    -1791692.226 3  -1396112.493 1
  23915863.883    -2281482.962 2  -1777784.745 1
  22693509.618    10338498.731 3   8055948.018 1
  23457141.267    -4828135.854 2  -3762160.995 1
  21744757.019    -9072088.263 3  -7069135.905 2
 91  4 24 21  7 15.0000000  0  6 19 11 16 18 06 02
  21303383.078     2166717.683 3   1688348.622 2
  23239386.108    -1774495.305 3  -1382712.301 2
  23917907.880    -2270700.354 2  -1769382.747 1
  22703632.402    10391713.529 3   8097413.934 1
  23452531.653    -4852321.433 2  -3781006.860 1
  21741137.617    -9091117.895 3  -7083964.146 2
 91  4 24 21  7 30.0000000  0  6 19 11 16 18 06 02
  21306823.196     2184805.578 3   1702443.044 2
  23242688.317    -1757142.888 3  -1369190.950 1
  23919989.342    -2259786.268 2  -1760878.409
  22713773.788    10445002.214 3   8138937.417 1
  23447938.232    -4876495.175 2  -3799843.503 1
  21737530.518    -9110063.862 3  -7098727.188 2
 91  4 24 21  7 45.0000000  0  6 19 11 16 18 06 02
  21310276.507     2202952.894 3   1716583.782 2
  23246018.115    -1739634.355 3  -1355547.958 1
  23922095.077    -2248740.298 2  -1752271.193 1
  22723924.754    10498365.450 2   8180519.000 1
  23443339.715    -4900656.304 2  -3818670.235 1
  21733940.205    -9128925.142 3  -7113424.253 2
 91  4 24 21  8  0.0000000  0  6 19 11 16 18 06 02
  21313743.010     2221159.245 3   1730770.524 2
  23249384.489    -1721970.260 3  -1341783.734 1
  23924221.805    -2237562.893 2  -1743561.621 1
  22734102.716    10551802.591 3   8222158.146 1
  23438741.792    -4924805.304 2  -3837487.618 1
  21730368.774    -9147702.299 3  -7128055.764 2
 91  4 24 21  8 15.0000000  0  6 19 11 16 18 06 02
  21317214.295     2239423.045 3   1745002.022 2
  23252770.948    -1704152.371 3  -1327899.673 1
  23926363.226    -2226256.009 2  -1734751.135 1
  22744284.865    10605311.405 3   8263853.156 1
  23434153.467    -4948943.906 2  -3856296.850 1
  21726809.942    -9166397.139 3  -7142623.123 2
 91  4 24 21  8 30.0000000  0  6 19 11 16 18 06 02
  21320711.685     2257742.955 3   1759277.249 2
  23256190.074    -1686182.027 3  -1313896.826 1
  23928548.708    -2214820.993 2  -1725840.822 1
  22754479.893    10658890.698 3   8305603.074 1
  23429554.654    -4973073.330 2  -3875098.933 1
  21723269.990    -9185010.796 4  -7157127.225 2
 91  4 24 21  8 45.0000000  0  6 19 11 16 18 06 02
  21324200.664     2276121.111 3   1773597.849 2
  23259641.291    -1668057.092 3  -1299773.507 1
  23930735.989    -2203255.921 2  -1716829.151 1
  22764687.241    10712542.098 3   8347409.186 1
  23424971.721    -4997191.345 2  -3893892.104 1
  21719742.027    -9203541.107 3  -7171566.391 2
 91  4 24 21  9  0.0000000  0  6 19 11 16 18 06 02
  21327715.731     2294561.610 3   1787967.054 2
  23263124.267    -1649773.872 3  -1285526.848 1
  23932978.446    -2191557.064 2  -1707713.235 1
  22774908.357    10766268.988 3   8389274.111 1
  23420382.802    -5021294.297 2  -3912673.571 1
  21716233.557    -9221984.197 3  -7185937.585 2
 91  4 24 21  9 15.0000000  0  6 19 11 16 18 06 02
  21331231.095     2313059.329 3   1802380.833 2
  23266630.051    -1631337.542 3  -1271160.892 1
  23935223.888    -2179729.376 2  -1698496.951 1
  22785144.480    10820066.279 3   8431193.903 1
  23415802.574    -5045387.225 2  -3931447.228 1
  21712738.592    -9240345.220 3  -7200244.830 2
 91  4 24 21  9 30.0000000  0  6 19 11 16 18 06 02
  21334762.653     2331617.208 3   1816841.485 2
  23270163.406    -1612745.263 2  -1256673.426 2
  23937494.824    -2167770.774 2  -1689178.675 1
  22795397.967    10873936.624 3   8473170.633 1
  23411213.952    -5069467.175 2  -3950210.745 1
  21709260.694    -9258621.363 3  -7214485.941 2
 91  4 24 21  9 45.0000000  0  6 19 11 16 18 06 02
  21338304.401     2350233.826 3   1831347.918 2
  23273733.930    -1593998.621 3  -1242065.655 2
  23939800.522    -2155682.484 2  -1679759.260 1
  22805667.071    10927878.221 3   8515202.865 1
  23406636.428    -5093535.639 2  -3968965.346 1
  21705798.989    -9276813.990 3  -7228661.960 2
 91  4 24 21 10  0.0000000  0  6 19 11 16 18 06 02
  21341859.342     2368910.417 3   1845901.069 2
  23277326.039    -1575096.649 2  -1227336.861 1
  23942123.320    -2143463.399 2  -1670237.999 1
  22815946.348    10981892.028 3   8557291.370 1
  23402055.886    -5117591.581 2  -3987710.160 1
  21702353.775    -9294922.124 3  -7242772.160 2
 91  4 24 21 10 15.0000000  0  6 19 11 16 18 06 02
  21345421.769     2387646.567 3   1860500.641 2
  23280960.431    -1556039.840 3  -1212487.429 1
  23944479.989    -2131114.163 2  -1660615.265 1
  22826238.225    11035977.108 3   8599435.415 1
  23397483.161    -5141635.459 2  -4006445.622 1
  21698922.347    -9312946.109 3  -7256816.785 2
 91  4 24 21 10 30.0000000  0  6 19 11 16 18 06 02
  21349002.502     2406440.326 3   1875145.101 2
  23284614.001    -1536830.365 3  -1197518.996 2
  23946846.239    -2118636.933 2  -1650892.823 1
  22836541.497    11090131.559 3   8641633.504 1
  23392911.919    -5165669.210 2  -4025173.141 1
  21695509.818    -9330888.105 3  -7270797.516 2
 91  4 24 21 10 45.0000000  0  6 19 11 16 18 06 02
  21352585.904     2425293.881 3   1889836.150 2
  23288300.551    -1517466.136 2  -1182430.012 1
  23949253.880    -2106029.800 2  -1641069.184 1
  22846860.055    11144357.119 3   8683887.000 2
  23388334.395    -5189690.710 2  -4043891.134 1
  21692111.370    -9348745.917 3  -7284712.653 2
 91  4 24 21 11  0.0000000  0  6 19 11 16 18 06 02
  21356190.019     2444207.804 3   1904574.256 2
  23292011.671    -1497946.876 3  -1167220.226 1
  23951674.993    -2093292.866 2  -1631144.343 1
  22857190.601    11198653.897 3   8726195.997 1
  23383771.251    -5213699.583 2  -4062599.260 1
  21688728.506    -9366519.089 3  -7298561.847 2
 91  4 24 21 11 15.0000000  0  6 19 11 16 18 06 02
  21359795.025     2463180.913 3   1919358.462 2
  23295760.589    -1478273.864 3  -1151890.634 2
  23954120.100    -2080427.370 2  -1621119.369 1
  22867541.233    11253020.286 3   8768559.249 1
  23379201.213    -5237697.163 2  -4081298.617 1
  21685362.132    -9384208.945 3  -7312346.109 2
 91  4 24 21 11 30.0000000  0  6 19 11 16 18 06 02
  21363420.116     2482213.052 3   1934188.675 2
  23299527.777    -1458447.341 3  -1136441.399 1
  23956590.702    -2067433.651 2  -1610994.506 1
  22877896.070    11307455.896 3   8810976.423 1
  23374637.179    -5261683.466 2  -4099989.182 1
  21682012.563    -9401815.402 3  -7326065.381 2
 91  4 24 21 11 45.0000000  0  6 19 11 16 18 06 02
  21367048.505     2501305.857 3   1949066.163 2
  23303329.446    -1438465.900 2  -1120871.464 1
  23959089.765    -2054310.138 2  -1600768.418 1
  22888270.381    11361962.008 3   8853448.523 1
  23370073.127    -5285657.083 2  -4118669.877 1
  21678677.058    -9419337.249 3  -7339718.727 2
 91  4 24 21 12  0.0000000  0  6 19 11 16 18 06 02
  21370699.666     2520457.442 3   1963989.450 2
  23307164.987    -1418331.803 3  -1105182.592 2
  23961615.213    -2041059.235 2  -1590443.159 1
  22898659.089    11416536.338 3   8895973.790 1
  23365512.983    -5309619.932 2  -4137342.144 1
  21675357.468    -9436776.546 3  -7353307.750 2
 91  4 24 21 12 15.0000000  0  6 19 11 16 18 06 02
  21374351.438     2539668.049 3   1978958.720 2
  23311024.521    -1398044.897 3  -1089374.626 1
  23964158.059    -2027680.835 2  -1580018.501 1
  22909050.502    11471178.641 3   8938552.012 1
  23360954.952    -5333571.943 2  -4156005.976 1
  21672057.650    -9454132.872 3  -7366832.120 2
 91  4 24 21 12 30.0000000  0  6 19 11 16 18 06 02
  21378022.109     2558938.158 3   1993974.367 2
  23314913.128    -1377604.884 3  -1073447.354 1
  23966729.087    -2014174.671 2  -1569494.246 1
  22919464.390    11525889.413 3   8981183.594 1
  23356396.902    -5357512.649 2  -4174661.019 1
  21668768.022    -9471406.031 3  -7380291.691 2
 91  4 24 21 12 45.0000000  0  6 19 11 16 18 06 02
  21381696.968     2578267.147 3   2009035.881 2
  23318826.915    -1357012.433 3  -1057401.316 2
  23969322.887    -2000541.442 2  -1558871.070 1
  22929886.376    11580667.720 3   9023867.810 1
  23351846.653    -5381442.719 2  -4193307.742 1
  21665496.996    -9488596.607 3  -7393686.899 2
 91  4 24 21 13  0.0000000  0  6 19 11 16 18 06 02
  21385389.800     2597657.435 3   2024145.167 2
  23322781.780    -1336265.305 3  -1041234.730 1
  23971949.372    -1986779.409 2  -1548147.473 1
  22940325.742    11635515.475 3   9066606.144 1
  23347299.406    -5405359.741 2  -4211944.306 1
  21662242.740    -9505702.101 3  -7407015.831 2
 91  4 24 21 13 15.0000000  0  6 19 11 16 18 06 02
  21389088.950     2617105.047 3   2039299.132 2
  23326759.121    -1315367.676 3  -1024950.877 1
  23974590.235    -1972892.273 2  -1537326.428 1
  22950776.503    11690428.450 2   9109395.287 1
  23342747.359    -5429267.662 2  -4230573.848 1
  21659004.084    -9522726.636 3  -7420281.667 3
 91  4 24 21 13 30.0000000  0  6 19 11 16 18 06 02
  21392803.072     2636612.393 3   2054499.626 2
  23330761.049    -1294317.243 3  -1008547.956 1
  23977248.497    -1958877.896 2  -1526406.235 1
  22961237.158    11745408.783 2   9152236.917 1
  23338196.500    -5453164.245 2  -4249194.466 1
  21655778.917    -9539667.773 3  -7433482.512 2
 91  4 24 21 13 45.0000000  0  6 19 11 16 18 06 02
  21396522.900     2656177.433 3   2069745.086 2
  23334795.365    -1273116.268 3   -992027.747 1
  23979947.836    -1944738.712 2  -1515388.781 1
  22971711.023    11800454.023 2   9195129.112 1
  23333653.144    -5477051.512 2  -4267807.826 1
  21652570.538    -9556527.618 3  -7446620.021 2
 91  4 24 21 14  0.0000000  0  6 19 11 16 18 06 02
  21400261.905     2675802.521 3   2085037.334 2
  23338860.550    -1251762.671 3   -975388.606 2
  23982658.850    -1930472.796 2  -1504272.558 1
  22982200.750    11855565.960 2   9238073.286 1
  23329109.194    -5500927.247 2  -4286412.285 1
  21649378.945    -9573304.060 3  -7459692.532 2
 91  4 24 21 14 15.0000000  0  6 19 11 16 18 06 02
  21404003.023     2695487.543 3   2100376.289 2
  23342952.714    -1230256.856 3   -958630.846 2
  23985398.063    -1916080.493 2  -1493057.846 1
  22992703.390    11910744.331 2   9281069.212 1
  23324569.136    -5524791.772 2  -4305007.964 1
  21646202.046    -9589997.262 3  -7472700.193 3
 91  4 24 21 14 30.0000000  0  6 19 11 16 18 06 02
  21407764.208     2715232.173 3   2115761.686 2
  23347067.964    -1208599.136 3   -941754.701 1
  23988152.841    -1901562.010 2  -1481744.830 1
  23003215.297    11965988.534 2   9324116.456 1
  23320028.781    -5548645.279 2  -4323595.016 1
  21643040.730    -9606607.518 3  -7485643.210 2
 91  4 24 21 14 45.0000000  0  6 19 11 16 18 06 02
  21411527.801     2735035.014 3   2131192.444 2
  23351223.681    -1186791.156 3   -924761.491 1
  23990944.806    -1886918.975 2  -1470334.780 1
  23013742.525    12021296.913 2   9367213.689 1
  23315491.428    -5572489.300 2  -4342174.728 1
  21639896.515    -9623136.468 3  -7498522.874 2
 91  4 24 21 15  0.0000000  0  6 19 11 16 18 06 02
  21415310.293     2754898.693 3   2146670.607 2
  23355403.688    -1164830.625 3   -907649.436 1
  23993760.172    -1872149.678 2  -1458826.288 1
  23024277.221    12076671.481 2   9410362.502 1
  23310957.059    -5596321.501 2  -4360745.196 1
  21636765.474    -9639581.704 3  -7511337.307 2
 91  4 24 21 15 15.0000000  0  6 19 11 16 18 06 02
  21419102.068     2774822.927 3   2162195.948 2
  23359610.377    -1142717.927 3   -890418.771 1
  23996589.306    -1857254.489 2  -1447219.760 1
  23034829.612    12132111.746 2   9453562.497 1
  23306424.190    -5620142.035 2  -4379306.586 1
  21633652.129    -9655943.484 3  -7524086.720 2
 91  4 24 21 15 30.0000000  0  6 19 11 16 18 06 02
  21422906.128     2794806.958 3   2177767.885 2
  23363847.343    -1120454.111 3   -873070.340 1
  23999450.531    -1842234.294 2  -1435515.753 1
  23045393.398    12187616.723 2   9496812.939 1
  23301893.433    -5643951.718 2  -4397859.530 1
  21630554.087    -9672222.575 3  -7536771.694 2
 91  4 24 21 15 45.0000000  0  6 19 11 16 18 06 02
  21426717.692     2814852.826 3   2193388.012 2
  23368108.302    -1098037.233 3   -855602.689 2
  24002330.341    -1827087.350 2  -1423713.093 1
  23055962.297    12243188.000 2   9540115.043 1
  23297368.976    -5667748.506 2  -4416402.439 1
  21627474.019    -9688417.010 3  -7549390.690 2
 91  4 24 21 16  0.0000000  0  6 19 11 16 18 06 02
  21430552.046     2834958.872 3   2209055.032 2
  23372406.727    -1075468.961 3   -838017.011 1
  24005241.316    -1811815.238 2  -1411812.792 1
  23066549.466    12298823.614 2   9583467.252 1
  23292836.107    -5691534.070 2  -4434936.604 1
  21624405.031    -9704528.459 3  -7561945.035 2
 91  4 24 21 16 15.0000000  0  6 19 11 16 18 06 02
  21434382.787     2855125.633 3   2224769.352 2
  23376731.833    -1052749.127 3   -820313.264 1
  24008173.284    -1796417.600 2  -1399814.767 1
  23077150.718    12354523.835 2   9626869.839 1
  23288316.431    -5715308.170 2  -4453461.800 1
  21621357.054    -9720556.632 4  -7574434.493 2
 91  4 24 21 16 30.0000000  0  6 19 11 16 18 06 02
  21438237.820     2875351.932 3   2240530.074 2
  23381086.308    -1029879.124 3   -802492.508 1
  24011121.446    -1780896.206 2  -1387720.252 1
  23087763.068    12410286.893 2   9670321.361 1
  23283791.066    -5739071.877 2  -4471978.920 1
  21618325.253    -9736502.711 3  -7586859.979 2
 91  4 24 21 16 45.0000000  0  6 19 11 16 18 06 02
  21442094.039     2895638.449 3   2256337.727 2
  23385461.776    -1006858.353 3   -784554.256 1
  24014097.790    -1765250.485 2  -1375528.909 1
  23098388.017    12466113.695 2   9713822.582 1
  23279276.485    -5762824.368 2  -4490487.306 1
  21615306.034    -9752365.873 4  -7599220.844 2
 91  4 24 21 17  0.0000000  0  6 19 11 16 18 06 02
  21445967.673     2915984.571 3   2272191.807 2
  23389875.634     -983687.736 3   -766499.269 1
  24017102.910    -1749481.395 2  -1363241.387 1
  23109020.155    12522002.939 2   9757372.430 1
  23274756.216    -5786566.558 2  -4508987.661 1
  21612301.211    -9768146.909 4  -7611517.718 2
 91  4 24 21 17 15.0000000  0  6 19 11 16 18 06 02
  21449845.774     2936390.659 3   2288092.609 2
  23394314.062     -960367.267 3   -748327.509 1
  24020125.706    -1733589.013 2  -1350857.794 1
  23119666.097    12577954.566 2   9800970.876 1
  23270234.445    -5810298.195 2  -4527479.771 1
  21609312.879    -9783845.748 4  -7623750.542 2
 91  4 24 21 17 30.0000000  0  6 19 11 16 18 06 02
  21453746.980     2956859.421 3   2304042.260 2
  23398776.170     -936894.389 3   -730036.927 1
  24023184.502    -1717570.867 2  -1338376.234 1
  23130330.902    12633970.691 2   9844619.588 1
  23265722.273    -5834016.634 2  -4545961.655 1
  21606341.037    -9799459.792 4  -7635917.295 2
 91  4 24 21 17 45.0000000  0  6 19 11 16 18 06 02
  21457645.777     2977389.647 3   2320039.811 2
  23403266.163     -913270.447 2   -711628.696 1
  24026240.280    -1701428.264 2  -1325797.645 1
  23140999.319    12690050.222 2   9888317.692 1
  23261213.102    -5857723.157 2  -4564434.199 1
  21603386.279    -9814990.299 4  -7648018.957 2
 91  4 24 21 18  0.0000000  0  6 19 11 16 18 06 02
  21461570.366     2997979.608 3   2336083.910 2
  23407794.529     -889497.286 2   -693104.175 2
  24029341.027    -1685163.340 2  -1313123.823 1
  23151677.335    12746191.209 2   9932063.721 1
  23256700.318    -5881419.349 2  -4582898.715 1
  21600446.528    -9830438.858 4  -7660056.767 2
 91  4 24 21 18 15.0000000  0  6 19 11 16 18 06 02
  21465494.048     3018631.262 3   2352176.070 2
  23412352.561     -865573.187 3   -674462.047 1
  24032457.670    -1668774.206 2  -1300353.188 1
  23162376.028    12802395.065 2   9975858.723 1
  23252195.632    -5905103.363 2  -4601353.715 1
  21597522.639    -9845803.681 4  -7672029.323 2
 91  4 24 21 18 30.0000000  0  6 19 11 16 18 06 02
  21469436.314     3039344.567 3   2368316.279 2
  23416929.491     -841498.624 3   -655702.634 1
  24035603.404    -1652261.392 2  -1287486.104 1
  23173085.803    12858661.025 2  10019702.101 1
  23247696.058    -5928775.502 2  -4619799.474 1
  21594615.852    -9861085.028 4  -7683936.824 2
 91  4 24 21 18 45.0000000  0  6 19 11 16 18 06 02
  21473393.587     3060118.137 3   2384503.447 2
  23421534.604     -817275.189 2   -636827.294 1
  24038768.611    -1635626.446 2  -1274523.892 1
  23183803.988    12914987.674 2  10063592.785 1
  23243191.965    -5952437.113 2  -4638237.063 1
  21591723.164    -9876284.459 4  -7695780.502 2
 91  4 24 21 19  0.0000000  0  6 19 11 16 18 06 02
  21477356.531     3080951.525 3   2400737.219 2
  23426180.201     -792903.260 3   -617836.188 1
  24041957.202    -1618869.929 2  -1261466.966 1
  23194538.350    12971374.356 2  10107530.238 1
  23238687.296    -5976088.590 2  -4656666.731 1
  21588846.950    -9891402.163 4  -7707560.491 3
 91  4 24 21 19 15.0000000  0  6 19 11 16 18 06 02
  21481328.794     3101847.351 3   2417019.647 2
  23430847.960     -768380.424 3   -598727.493 1
  24045170.974    -1601989.597 2  -1248313.550 1
  23205278.121    13027823.240 2  10151516.160 1
  23234192.207    -5999727.292 2  -4675086.413 1
  21585985.131    -9906435.725 4  -7719274.920 2
 91  4 24 21 19 30.0000000  0  6 19 11 16 18 06 02
  21485323.812     3122806.139 3   2433351.141 2
  23435535.821     -743706.532 3   -579501.146 1
  24048414.429    -1584985.283 2  -1235063.507 1
  23216028.084    13084334.533 2  10195550.708 1
  23229697.118    -6023352.960 2  -4693495.984 1
  21583138.303    -9921384.913 4  -7730923.602 3
 91  4 24 21 19 45.0000000  0  6 19 11 16 18 06 02
  21489318.847     3143824.748 3   2449729.234 2
  23440263.835     -718885.216 3   -560159.841 1
  24051663.572    -1567860.316 2  -1221719.504 1
  23226794.222    13140904.608 2  10239631.055 1
  23225200.826    -6046968.895 2  -4711897.970 1
  21580311.263    -9936252.864 4  -7742508.988 3
 91  4 24 21 20  0.0000000  0  6 19 11 16 18 06 02
  21493331.577     3164900.659 3   2466152.001 2
  23445014.360     -693918.786 3   -540705.506 1
  24054945.714    -1550617.512 2  -1208283.648 1
  23237571.756    13197530.854 2  10283755.202 1
  23220708.738    -6070577.286 2  -4730294.032 1
  21577496.804    -9951041.978 4  -7754032.934 2
 91  4 24 21 20 15.0000000  0  6 19 11 16 18 06 02
  21497353.591     3186036.533 3   2482621.488 2
  23449797.238     -668805.075 3   -521136.411 1
  24058249.720    -1533254.611 2  -1194754.212 1
  23248358.887    13254215.364 2  10327924.727 1
  23216216.651    -6094175.767 2  -4748682.383 1
  21574698.540    -9965749.881 4  -7765493.602 2
 91  4 24 21 20 30.0000000  0  6 19 11 16 18 06 02
  21501391.798     3207237.073 3   2499141.360 2
  23454597.828     -643539.464 2   -501448.951 1
  24061575.610    -1515766.866 2  -1181127.506 1
  23259157.117    13310962.703 2  10372143.221 1
  23211726.361    -6117759.596 2  -4767059.345 1
  21571915.876    -9980371.916 4  -7776887.367 2
 91  4 24 21 20 45.0000000  0  6 19 11 16 18 06 02
  21505430.895     3228499.572 3   2515709.510 2
  23459435.866     -618124.769 2   -481645.309 1
  24064924.603    -1498157.492 2  -1167405.990 1
  23269969.429    13367769.914 2  10416408.823 1
  23207248.652    -6141331.502 2  -4785427.024 1
  21569149.091    -9994910.776 4  -7788216.305 3
 91  4 24 21 21  0.0000000  0  6 19 11 16 18 06 02
  21509497.581     3249821.835 3   2532324.240 2
  23464301.807     -592563.646 3   -461727.553 1
  24068295.758    -1480429.146 2  -1153591.829 1
  23280786.243    13424634.104 2  10460718.333 1
  23202756.862    -6164893.874 2  -4803787.218 1
  21566398.798   -10009368.860 4  -7799482.312 2
 91  4 24 21 21 15.0000000  0  6 19 11 16 18 06 02
  21513559.468     3271202.629 3   2548984.563 2
  23469192.614     -566857.450 2   -441696.798 1
  24071694.816    -1462583.175 2  -1139685.912 1
  23291618.954    13481553.891 2  10505071.182 1
  23198279.171    -6188447.962 2  -4822140.981 1
  21563662.289   -10023747.572 4  -7810686.474 3
 91  4 24 21 21 30.0000000  0  6 19 11 16 18 06 02
  21517642.052     3292644.974 3   2565692.857 2
  23474114.605     -541003.422 3   -421550.800 1
  24075117.537    -1444616.960 2  -1125686.388 1
  23302458.244    13538531.873 2  10549469.394 1
  23193800.572    -6211990.773 2  -4840485.999 2
  21560941.678   -10038044.021 4  -7821826.530 2
 91  4 24 21 21 45.0000000  0  6 19 11 16 18 06 02
  21521732.121     3314148.613 3   2582448.916 2
  23479060.276     -515002.033 2   -401289.990 1
  24078563.065    -1426530.868 2  -1111593.423 1
  23313320.324    13595567.533 2  10593912.546 1
  23189319.269    -6235522.587 2  -4858822.407 1
  21558236.947   -10052258.542 4  -7832902.741 2
 91  4 24 21 22  0.0010000  0  6 19 11 16 18 06 02
  21525835.682     3335715.020 3   2599253.873 2
  23484034.743     -488851.880 2   -380913.302 1
  24082024.755    -1408324.135 2  -1097406.469 1
  23324180.314    13652664.147 2  10638403.184 1
  23184841.860    -6259045.083 2  -4877151.571 1
  21555546.301   -10066392.123 4  -7843915.878 3
 91  4 24 21 22 15.0010000  0  6 19 11 16 18 06 02
  21529950.322     3357340.934 3   2616105.203 2
  23489040.670     -462557.011 3   -360423.796 1
  24085509.843    -1389999.900 2  -1083127.921 1
  23335054.678    13709813.557 2  10682934.962 1
  23180368.061    -6282555.586 2  -4895471.387 2
  21552873.364   -10080443.404 4  -7854864.895 2
 91  4 24 21 22 30.0010000  0  6 19 11 16 18 06 02
  21534079.060     3379027.998 3   2633004.184 2
  23494075.686     -436115.600 2   -339820.145 1
  24089023.723    -1371556.576 2  -1068756.618 1
  23345943.440    13767019.603 2  10727511.341 1
  23175896.059    -6306055.359 2  -4913782.815 1
  21550212.694   -10094412.982 4  -7865750.246 3
 91  4 24 21 22 45.0010000  0  6 19 11 16 18 06 02
  21538216.507     3400775.544 3   2649950.295 2
  23499130.194     -409528.729 2   -319103.128 1
  24092550.779    -1352995.760 2  -1054293.755 1
  23356841.502    13824281.206 2  10772130.562 1
  23171432.747    -6329545.148 2  -4932086.520 1
  21547569.737   -10108301.674 4  -7876572.561 2
 91  4 24 21 23  0.0010000  0  6 19 11 16 18 06 02
  21542371.927     3422582.509 3   2666942.716 2
  23504217.962     -382797.625 2   -298273.704 1
  24096104.219    -1334318.462 2  -1039740.136 1
  23367745.550    13881596.633 2  10816791.703 1
  23166956.853    -6353026.109 2  -4950383.314 1
  21544944.142   -10122110.852 4  -7887332.934 2
 91  4 24 21 23 15.0010000  0  6 19 11 16 18 06 02
  21546525.254     3444451.223 3   2683983.241 2
  23509332.132     -355920.104 2   -277330.205 1
  24099684.044    -1315522.576 2  -1025094.096 1
  23378666.385    13938968.108 2  10861496.518 1
  23162491.447    -6376495.972 2  -4968671.439 1
  21542332.350   -10135838.084 4  -7898029.436 2
 91  4 24 21 23 30.0010000  0  6 19 11 16 18 06 02
  21550701.667     3466377.646 3   2701068.731 2
  23514476.875     -328900.550 3   -256276.024 1
  24103284.251    -1296612.457 2  -1010358.973 1
  23389595.317    13996391.030 2  10906241.407 1
  23158024.226    -6399958.823 2  -4986954.170 1
  21539732.547   -10149487.376 4  -7908665.213 3
 91  4 24 21 23 45.0010000  0  6 19 11 16 18 06 02
  21554882.861     3488365.276 3   2718201.919 2
  23519643.483     -301735.741 2   -235108.676 1
  24106905.729    -1277584.892 2   -995532.366 1
  23400528.750    14053868.699 2  10951028.975 1
  23153564.823    -6423411.205 2  -5005228.655 1
  21537152.532   -10163055.488 4  -7919237.734 3
 91  4 24 21 24  0.0010000  0  6 19 11 16 18 06 02
  21559083.251     3510417.072 3   2735385.113 2
  23524840.995     -274422.865 2   -213825.949 1
  24110543.123    -1258437.414 2   -980612.384 1
  23411478.064    14111403.827 2  10995861.310 1
  23149105.403    -6446850.068 2  -5023492.653 1
  21534587.507   -10176539.444 4  -7929744.686 2
 91  4 24 21 24 15.0010000  0  6 19 11 16 18 06 02
  21563289.050     3532529.560 3   2752615.588 2
  23530067.580     -246965.797 2   -192430.825 1
  24114211.682    -1239173.738 2   -965601.906 1
  23422434.881    14168992.412 2  11040735.283 1
  23144649.001    -6470279.076 2  -5041748.966 1
  21532035.082   -10189943.040 4  -7940189.003 2
 91  4 24 21 24 30.0010000  0  6 19 11 16 18 06 02
  21567511.322     3554704.453 3   2769894.700 2
  23535324.737     -219362.935 3   -170922.152 1
  24117898.529    -1219792.134 2   -950499.385 1
  23433407.596    14226636.052 2  11085652.651 1
  23140189.284    -6493696.386 2  -5059996.185 1
  21529501.240   -10203264.617 4  -7950569.426 2
 91  4 24 21 24 45.0010000  0  6 19 11 16 18 06 02
  21571737.800     3576940.998 3   2787221.843 2
  23540599.886     -191615.216 2   -149300.560 1
  24121611.150    -1200293.950 2   -935306.047 1
  23444382.090    14284333.629 2  11130611.572 1
  23135735.255    -6517102.922 2  -5078234.962 1
  21526978.776   -10216504.936 3  -7960886.518 2
 91  4 24 21 25  0.0010000  0  6 19 11 16 18 06 02
  21575982.565     3599235.758 3   2804594.366 2
  23545906.200     -163726.278 2   -127568.968 1
  24125346.264    -1180682.653 2   -920024.678 1
  23455373.982    14342081.377 2  11175609.596 1
  23131283.652    -6540502.074 2  -5096468.028 1
  21524477.322   -10229667.348 4  -7971142.914 2
 91  4 24 21 25 15.0010000  0  6 19 11 16 18 06 02
  21580236.317     3621591.756 3   2822014.590 2
  23551237.713     -135693.600 2   -105725.360 1
  24129096.369    -1160956.005 2   -904653.335 1
  23466377.269    14399881.743 2  11220648.616 1
  23126831.735    -6563891.009 2  -5114693.097 1
  21521984.245   -10242749.040 4  -7981336.403 2
 91  4 24 21 25 30.0010000  0  6 19 11 16 18 06 02
  21584500.261     3644007.356 3   2839481.258 2
  23556603.707     -107519.081 2    -83771.219 1
  24132871.357    -1141115.993 2   -889193.721 1
  23477381.743    14457732.813 2  11265727.593 1
  23122381.616    -6587271.466 2  -5132911.595 1
  21519512.456   -10255752.147 4  -7991468.674 3
 91  4 24 21 25 45.0010000  0  6 19 11 16 18 06 02
  21588778.600     3666484.445 3   2856995.836 2
  23561992.771      -79201.013 2    -61705.201 1
  24136670.932    -1121160.829 2   -873644.345 1
  23488403.318    14515636.132 2  11310846.827 1
  23117937.481    -6610641.620 2  -5151122.067 1
  21517052.360   -10268674.910 3  -8001538.323 2
 91  4 24 21 26  0.0010000  0  6 19 11 16 18 06 02
  21593073.134     3689023.594 3   2874558.771 2
  23567404.921      -50738.986 2    -39527.024 1
  24140489.092    -1101090.005 2   -858004.854 1
  23499429.081    14573591.987 2  11356006.987 1
  23113490.660    -6634000.796 2  -5169323.973 1
  21514609.643   -10281516.678 4  -8011544.859 3
 91  4 24 21 26 15.0010000  0  6 19 11 16 18 06 02
  21597369.447     3711622.007 3   2892167.888 2
  23572851.256      -22135.965 3    -17238.989 1
  24144338.122    -1080906.244 2   -842277.416 1
  23510474.929    14631597.396 2  11401205.784 1
  23109045.042    -6657351.592 2  -5187519.321 1
  21512178.636   -10294279.831 3  -8021490.148 3
 91  4 24 21 26 30.0010000  0  6 19 11 16 18 06 02
  21601687.364     3734281.624 3   2909824.699 2
  23578321.864        6609.646 3      5160.155 1
  24148192.857    -1060608.401 2   -826460.972 1
  23521519.294    14689653.795 2  11446444.777 1
  23104609.616    -6680692.281 2  -5205706.845 1
  21509767.696   -10306962.846 4  -8031372.987 2
 91  4 24 21 26 45.0010000  0  6 19 11 16 18 06 02
  21606003.780     3757002.149 3   2927528.974 2
  23583817.357       35497.228 3     27669.946 1
  24152073.664    -1040197.195 2   -810556.248 1
  23532574.740    14747760.540 2  11491723.001 1
  23100163.981    -6704023.230 2  -5223886.756 2
  21507366.669   -10319566.301 4  -8041193.824 3
 91  4 24 21 27  0.0010000  0  6 19 11 16 18 06 02
  21610341.468     3779783.418 3   2945280.579 2
  23589343.736       64526.336 3     50290.009 1
  24155982.059    -1019673.053 2   -794563.553 1
  23543643.972    14805917.108 2  11537039.575 1
  23095729.462    -6727344.650 2  -5242059.217 1
  21504985.412   -10332090.344 4  -8050952.781 2
 91  4 24 21 27 15.0010000  0  6 19 11 16 18 06 02
  21614687.863     3802625.842 3   2963079.833 2
  23594890.794       93697.038 3     73020.405 2
  24159914.448     -999036.050 2   -778482.878 1
  23554720.707    14864123.633 2  11582395.546 1
  23091293.128    -6750656.205 2  -5260224.009 1
  21502615.550   -10344534.536 3  -8060649.526 3
 91  4 24 21 27 30.0010000  0  6 19 11 16 18 06 02
  21619046.841     3825530.123 3   2980927.295 2
  23600471.740      123009.676 3     95861.368 1
  24163850.711     -978285.577 2   -762313.678 1
  23565800.740    14922380.451 2  11627790.220 1
  23086858.295    -6773957.289 2  -5278380.670 1
  21500263.976   -10356898.457 4  -8070283.718 3
 91  4 24 21 27 45.0010000  0  6 19 11 16 18 06 02
  21623417.527     3848495.113 3   2998822.045 2
  23606078.460      152462.936 3    118811.929 1
  24167828.069     -957423.137 2   -746057.387 1
  23576904.453    14980685.967 2  11673222.860 1
  23082423.479    -6797249.091 2  -5296530.065 1
  21497924.094   -10369183.365 3  -8079856.335 2
 91  4 24 21 28  0.0010000  0  6 19 11 16 18 06 02
  21627794.181     3871521.079 3   3016764.328 2
  23611707.953      182057.240 2    141872.417 2
  24171822.197     -936448.509 2   -729713.639 1
  23588006.962    15039040.432 2  11718694.104 1
  23077991.036    -6820530.999 2  -5314671.745 1
  21495604.611   -10381388.693 4  -8089366.949 3
 91  4 24 21 28 15.0010000  0  6 19 11 16 18 06 02
  21632191.252     3894609.283 3   3034755.098 2
  23617371.037      211793.312 3    165043.329 1
  24175835.520     -915360.896 2   -713281.852 1
  23599119.662    15097444.532 2  11764204.038 1
  23073567.301    -6843802.109 2  -5332805.042 1
  21493297.396   -10393513.731 4  -8098815.002 3
 91  4 24 21 28 30.0010000  0  6 19 11 16 18 06 02
  21636602.999     3917759.854 3   3052794.475 2
  23623051.501      241670.899 3    188324.522 1
  24179863.537     -894160.597 2   -696762.180 1
  23610241.070    15155897.816 2  11809751.832 1
  23069142.362    -6867062.286 2  -5350929.802 1
  21491005.484   -10405558.451 4  -8108200.462 2
 91  4 24 21 28 45.0010000  0  6 19 11 16 18 06 02
  21641012.337     3940972.199 3   3070881.977 2
  23628766.448      271689.031 3    211715.278 1
  24183924.220     -872848.359 2   -680155.431 1
  23621375.356    15214399.405 2  11855337.706 1
  23064715.329    -6890312.242 2  -5369046.602 1
  21488726.468   -10417523.611 4  -8117523.929 3
 91  4 24 21 29  0.0010000  0  6 19 11 16 18 06 02
  21645447.764     3964244.433 2   3089016.155 2
  23634505.074      301845.706 2    235213.954 1
  24187996.595     -851426.613 2   -663463.213 1
  23632518.646    15272947.060 2  11900959.504 1
  23060292.799    -6913553.782 2  -5387156.856 1
  21486466.037   -10429410.963 4  -8126786.771 3
 91  4 24 21 29 15.0010000  0  6 19 11 16 18 06 02
  21649883.190     3987578.741 3   3107198.693 2
  23640265.583      332142.823 2    258822.049 2
  24192100.764     -829893.414 2   -646684.271 1
  23643670.330    15331542.784 2  11946618.273 1
  23055872.955    -6936784.773 2  -5405258.857 1
  21484216.093   -10441218.344 4  -8135987.292 2
 91  4 24 21 29 30.0010000  0  6 19 11 16 18 06 02
  21654343.815     4010974.886 3   3125429.403 2
  23646060.277      362579.867 2    282539.190 1
  24196222.296     -808249.214 2   -629818.655 1
  23654831.908    15390185.948 2  11992313.999 1
  23051453.408    -6960005.420 2  -5423352.813 1
  21481987.735   -10452946.234 4  -8145125.873 2
 91  4 24 21 29 45.0010000  0  6 19 11 16 18 06 02
  21658796.325     4034431.750 3   3143707.449 2
  23651879.837      393155.410 2    306364.283 2
  24200355.240     -786495.489 2   -612867.866
  23665994.376    15448875.127 2  12038046.063 1
  23047031.767    -6983217.036 2  -5441439.747 1
  21479770.458   -10464596.001 4  -8154203.581 3
 91  4 24 21 30  0.0010000  0  6 19 11 16 18 06 02
  21663279.426     4057950.343 3   3162033.580 2
  23657722.798      423870.298 3    330297.948 1
  24204519.054     -764631.674 2   -595831.249 1
  23677171.834    15507610.897 2  12083814.430 1
  23042619.724    -7006418.519 2  -5459518.774 1
  21477568.188   -10476166.829 4  -8163219.778 2
 91  4 24 21 30 15.0010000  0  6 19 11 16 18 06 02
  21667760.729     4081531.688 3   3180408.632 2
  23663592.737      454725.191 2    354340.677 1
  24208699.969     -742657.235 2   -578708.377 1
  23688356.498    15566393.982 2  12129619.679 1
  23038207.384    -7029608.900 2  -5477589.128 1
  21475379.407   -10487657.625 4  -8172173.613 3
 91  4 24 21 30 30.0010000  0  6 19 11 16 18 06 02
  21672263.600     4105176.116 3   3198832.826 2
  23669494.453      485720.178 2    378492.599 1
  24212897.654     -720571.895 2   -561499.133 1
  23699555.542    15625224.455 2  12175461.845 1
  23033799.826    -7052787.844 2  -5495650.617 1
  21473211.305   -10499068.033 4  -8181064.807 3
 91  4 24 21 30 45.0010000  0  6 19 11 16 18 06 02
  21676773.086     4128881.077 3   3217304.199 2
  23675418.645      516852.335 3    402751.398 1
  24217113.644     -698378.450 2   -544205.650 1
  23710758.791    15684099.202 2  12221338.031 1
  23029388.393    -7075957.991 2  -5513705.222 1
  21471052.504   -10510400.684 4  -8189895.416 3
 91  4 24 21 31  0.0010000  0  6 19 11 16 18 06 02
  21681293.059     4152648.765 3   3235824.445 2
  23681366.534      548123.539 2    427118.515 2
  24221364.692     -676075.255 2   -526826.699 1
  23721971.027    15743020.095 2  12267250.169 1
  23024979.037    -7099117.187 2  -5531751.281 1
  21468912.880   -10521653.732 4  -8198663.994 2
 91  4 24 21 31 15.0010000  0  6 19 11 16 18 06 02
  21685829.504     4176478.726 3   3254393.212 2
  23687347.387      579533.057 3    451593.462 1
  24225627.448     -653662.946 2   -509362.772 1
  23733194.344    15801986.461 2  12313198.222 1
  23020574.183    -7122265.851 2  -5549789.142 1
  21466786.449   -10532827.487 4  -8207370.789 2
 91  4 24 21 31 30.0010000  0  6 19 11 16 18 06 02
  21690377.659     4200371.688 3   3273011.068 2
  23693350.437      611081.315 3    476176.518 2
  24229911.773     -631141.127 2   -491813.328 1
  23744421.587    15860998.696 2  12359181.964 1
  23016173.239    -7145403.426 2  -5567818.378 1
  21464675.915   -10543921.717 4  -8216015.610 3
 91  4 24 21 31 45.0010000  0  6 19 11 16 18 06 02
  21694930.910     4224327.394 3   3291677.819 2
  23699377.759      642767.899 2    500867.327 2
  24234216.201     -608510.359 2   -474179.094 1
  23755664.396    15920055.950 2  12405200.388 1
  23011775.278    -7168530.036 2  -5585839.048 1
  21462578.259   -10554936.579 4  -8224598.590 2
 91  4 24 21 32  0.0010000  0  6 19 11 16 18 06 02
  21699504.245     4248343.826 3   3310391.884 2
  23705432.967      674590.452 2    525664.101 1
  24238550.905     -585773.021 2   -456461.775 1
  23766904.221    15979156.163 2  12451252.726 1
  23007374.333    -7191647.766 2  -5603852.810 1
  21460497.705   -10565874.063 4  -8233121.269 3
 91  4 24 21 32 15.0010000  0  6 19 11 16 18 06 02
  21704088.069     4272423.014 3   3329154.857 2
  23711511.262      706550.832 2    550568.275 1
  24242897.894     -562927.350 2   -438660.069 1
  23778157.518    16038300.951 2  12497339.810 1
  23002976.668    -7214754.456 2  -5621857.948 1
  21458431.843   -10576732.177 4  -8241582.104 3
 91  4 24 21 32 30.0010000  0  6 19 11 16 18 06 02
  21708681.786     4296561.742 3   3347964.224 2
  23717624.928      738645.451 3    575577.048 1
  24247263.467     -539977.092 2   -420776.905 1
  23789423.727    16097486.483 2  12543458.626 1
  22998582.320    -7237853.502 2  -5639857.140 1
  21456380.361   -10587514.569 4  -8249983.936 3
 91  4 24 21 32 45.0010000  0  6 19 11 16 18 06 02
  21713281.506     4320762.164 3   3366821.670 2
  23723755.679      770876.197 2    600691.891 1
  24251650.923     -516919.990 2   -402810.480 1
  23800694.718    16156714.823 2  12589610.820 1
  22994183.765    -7260942.740 2  -5657848.719 1
  21454342.070   -10598218.887 4  -8258324.940 2
 91  4 24 21 33  0.0010000  0  6 19 11 16 18 06 02
  21717901.312     4345023.475 3   3385726.558 2
  23729918.816      803242.085 2    625912.053 1
  24256070.470     -493757.509 2   -384761.845 1
  23811977.715    16215984.928 2  12635795.532 1
  22989792.697    -7284022.914 2  -5675833.189 2
  21452318.177   -10608846.123 4  -8266605.864 3
 91  4 24 21 33 15.0010000  0  6 19 11 16 18 06 02
  21722530.698     4369346.104 3   3404679.221 2
  23736097.537      835743.188 2    651237.541 1
  24260492.704     -470489.498 2   -366631.090 1
  23823260.397    16275296.823 2  12682012.827 1
  22985403.741    -7307093.563 2  -5693810.281 1
  21450312.553   -10619396.029 4  -8274826.533 3
 91  4 24 21 33 30.0010000  0  6 19 11 16 18 06 02
  21727178.982     4393728.947 3   3423678.813 2
  23742310.443      868377.993 2    676667.255 1
  24264933.540     -447117.365 2   -348419.137 1
  23834556.586    16334648.878 2  12728261.426 1
  22981015.674    -7330155.976 2  -5711780.923 1
  21448319.529   -10629869.875 4  -8282987.946 2
 91  4 24 21 33 45.0010000  0  6 19 11 16 18 06 02
  21731818.576     4418173.460 3   3442726.455 2
  23748550.920      901147.737 2    702202.093 1
  24269408.230     -423640.164 2   -330125.369 1
  23845860.262    16394042.284 2  12774542.234 1
  22976630.016    -7353208.618 2  -5729743.962 2
  21446339.401   -10640266.048 4  -8291088.824 2
 91  4 24 21 34  0.0010000  0  6 19 11 16 18 06 02
  21736489.040     4442675.281 3   3461818.750 2
  23754806.997      934047.682 2    727838.435 1
  24273885.938     -400062.427 2   -311753.149 1
  23857175.018    16453472.319 2  12820851.586 1
  22972245.840    -7376255.881 2  -5747702.815 1
  21444376.670   -10650589.221 4  -8299132.822 2
 91  4 24 21 34 15.0010000  0  6 19 11 16 18 06 02
  21741156.816     4467238.420 3   3480958.829 2
  23761090.646      967081.563 2    753579.074 1
  24278398.721     -376380.663 2   -293300.014
  23868487.086    16512942.690 2  12867192.317 1
  22967861.089    -7399293.877 2  -5765654.431 1
  21442425.317   -10660835.581 4  -8307116.974 3
 91  4 24 21 34 30.0010000  0  6 19 11 16 18 06 02
  21745846.457     4491862.287 3   3500146.244 2
  23767404.275     1000248.278 2    779423.245 1
  24282922.882     -352595.859 2   -274766.477 1
  23879810.847    16572452.223 2  12913563.629 1
  22963474.209    -7422323.359 2  -5783599.425 1
  21440492.251   -10671006.012 4  -8315041.953 2
 91  4 24 21 34 45.0010000  0  6 19 11 16 18 06 02
  21750539.711     4516550.065 3   3519383.445 2
  23773739.786     1033550.901 2    805373.332 1
  24287465.034     -328704.850 2   -256150.207 1
  23891145.409    16632003.906 2  12959967.787 1
  22959099.649    -7445340.993 2  -5801535.183 1
  21438571.192   -10681097.255 4  -8322905.222 3
 91  4 24 21 35  0.0010000  0  6 19 11 16 18 06 02
  21755254.253     4541297.913 3   3538667.447 2
  23780104.369     1066985.225 2    831426.040 1
  24292039.574     -304711.950 2   -237454.567 1
  23902483.862    16691593.396 2  13006401.374 1
  22954716.381    -7468350.745 2  -5819464.787 2
  21436665.698   -10691113.284 4  -8330709.882 3
 91  4 24 21 35 15.0010000  0  6 19 11 16 18 06 02
  21759969.983     4566107.896 3   3557999.868 2
  23786490.852     1100553.296 2    857582.962 1
  24296624.305     -280615.387 2   -218678.121 1
  23913837.288    16751222.839 2  13052866.101 1
  22950339.413    -7491350.201 2  -5837386.400 1
  21434773.414   -10701051.774 4  -8338454.144 3
 91  4 24 21 35 30.0010000  0  6 19 11 16 18 06 02
  21764709.706     4590978.424 3   3577379.472 2
  23792907.314     1134253.208 2    883842.635 1
  24301227.916     -256417.124 2   -199822.500 1
  23925176.946    16810890.298 2  13099360.472 1
  22945968.133    -7514341.021 2  -5855301.269 2
  21432896.119   -10710914.609 4  -8346139.429 3
 91  4 24 21 35 45.0010000  0  6 19 11 16 18 06 02
  21769450.616     4615910.087 3   3596806.714 2
  23799339.656     1168085.268 2    910205.243 1
  24305856.412     -232116.586 2   -180887.187 1
  23936544.768    16870595.920 2  13145884.549 1
  22941592.072    -7537322.551 2  -5873208.868 1
  21431035.909   -10720701.234 4  -8353765.337 3
 91  4 24 21 36  0.0010000  0  6 19 11 16 18 06 02
  21774211.036     4640903.767 3   3616282.290 2
  23805804.979     1202049.914 2    936671.162 1
  24310498.990     -207713.406 2   -161871.846 1
  23947912.904    16930340.008 2  13192438.602 1
  22937219.292    -7560294.216 2  -5891108.812 1
  21429186.482   -10730411.071 4  -8361331.407 3
 91  4 24 21 36 15.0010000  0  6 19 11 16 18 06 02
  21778974.125     4665956.154 3   3635803.601 2
  23812296.687     1236143.503 2    963237.591 1
  24315157.762     -183211.511 2   -142779.531 1
  23959287.323    16990119.132 2  13239019.951 1
  22932855.516    -7583259.345 2  -5909003.646 1
  21427351.452   -10740047.636 4  -8368840.392 3
 91  4 24 21 36 30.0010000  0  6 19 11 16 18 06 02
  21783753.425     4691069.748 3   3655372.617 2
  23818806.980     1270368.401 2    989906.334 1
  24319839.324     -158608.583 2   -123608.565 1
  23970671.042    17049935.304 2  13285630.169 1
  22928484.237    -7606215.324 2  -5926891.360 1
  21425532.319   -10749608.400 4  -8376290.300 3
 91  4 24 21 36 45.0010000  0  6 19 11 16 18 06 02
  21788540.212     4716243.577 3   3674988.558 2
  23825342.767     1304723.210 2   1016676.286 1
  24324534.375     -133905.970 2   -104359.848 1
  23982065.563    17109787.273 2  13332268.280 1
  22924117.756    -7629163.051 2  -5944772.656 1
  21423727.862   -10759094.444 4  -8383681.996 3
 91  4 24 21 37  0.0010000  0  6 19 11 16 18 06 02
  21793350.975     4741479.140 3   3694652.594 2
  23831908.813     1339208.997 2   1043548.266 1
  24329259.109     -109102.846 2    -85032.940 1
  23993460.974    17169676.040 2  13378934.602 1
  22919750.682    -7652101.220 2  -5962646.493 1
  21421935.411   -10768504.555 4  -8391014.517 3
 91  4 24 21 37 15.0010000  0  6 19 11 16 18 06 02
  21798158.755     4766775.384 3   3714363.942 2
  23838491.052     1373824.259 2   1070521.205 1
  24334011.710      -84200.381 2    -65628.477 1
  24004859.090    17229600.294 2  13425629.036 1
  22915388.703    -7675030.944 2  -5980513.752 2
  21420160.636   -10777839.768 4  -8398288.671 3
 91  4 24 21 37 30.0010000  0  6 19 11 16 18 06 02
  21802984.211     4792131.320 3   3734121.794 2
  23845105.976     1408567.845 2   1097594.134 1
  24338758.327      -59199.632 2    -46147.534 1
  24016273.678    17289558.734 2  13472350.107 1
  22911028.225    -7697953.056 2  -5998375.072 1
  21418397.257   -10787101.074 4  -8405505.252 3
 91  4 24 21 37 45.0010000  0  6 19 11 16 18 06 02
  21807820.155     4817547.794 3   3753926.807 2
  23851739.188     1443440.175 2   1124767.348 1
  24343532.218      -34100.095 2    -26589.595 1
  24027687.674    17349551.815 2  13519098.180 1
  22906668.044    -7720866.759 2  -6016229.855 2
  21416650.961   -10796287.899 4  -8412663.779 3
 91  4 24 21 38  0.0010000  0  6 19 11 16 18 06 02
  21812670.495     4843023.937 3   3773778.317 2
  23858402.675     1478440.262 2   1152040.133 1
  24348319.912       -8903.149 2     -6955.714 1
  24039112.174    17409578.025 2  13565872.070 1
  22902306.066    -7743772.924 2  -6034078.739 1
  21414916.968   -10805401.200 4  -8419765.019 3
 91  4 24 21 38 15.0010000  0  6 19 11 16 18 06 02
  21817530.433     4868558.840 3   3793675.622 2
  23865085.341     1513566.919 2   1179411.557 1
  24353144.461       16389.951 2     12753.047 1
  24050545.051    17469636.455 2  13612671.072 1
  22897947.385    -7766672.449 2  -6051922.469 1
  21413195.853   -10814441.940 4  -8426809.716 3
 91  4 24 21 38 30.0010000  0  6 19 11 16 18 06 02
  21822404.471     4894155.370 3   3813620.945 2
  23871795.595     1548822.682 2   1206883.531 1
  24357977.421       41781.626 2     32538.650 1
  24061974.647    17529729.623 2  13659497.166 1
  22893592.003    -7789562.515 2  -6069758.842 1
  21411489.134   -10823407.474 4  -8433795.821 3
 91  4 24 21 38 45.0010000  0  6 19 11 16 18 06 02
  21827279.696     4919812.036 3   3833613.132 2
  23878525.935     1584205.640 2   1234454.640 1
  24362825.964       67270.046 2     52399.654 1
  24073418.622    17589855.642 2  13706348.800 1
  22889241.402    -7812444.609 2  -6087588.968 1
  21409797.109   -10832299.470 4  -8440724.625 3
 91  4 24 21 39  0.0010000  0  6 19 11 16 18 06 02
  21832183.399     4945528.135 3   3853651.623 2
  23885282.659     1619714.886 2   1262124.160 1
  24367694.592       92854.428 2     72335.386 1
  24084865.302    17650013.506 2  13753225.274 1
  22884889.317    -7835319.377 2  -6105413.408 1
  21408119.759   -10841118.452 4  -8447596.528 3
 91  4 24 21 39 15.0010000  0  6 19 11 16 18 06 02
  21837079.302     4971302.333 3   3873735.387 2
  23892069.066     1655348.706 2   1289890.771 1
  24372569.816      118532.806 2     92344.404 1
  24096322.766    17710201.380 2  13800125.133 1
  22880531.841    -7858188.245 2  -6123233.243 1
  21406453.822   -10849866.031 4  -8454412.795 3
 91  4 24 21 39 30.0010000  0  6 19 11 16 18 06 02
  21841996.808     4997137.647 3   3893866.771 2
  23898867.758     1691109.862 2   1317756.589 1
  24377486.712      144308.034 2    112428.921 1
  24107778.136    17770422.057 2  13847050.545 1
  22876180.943    -7881048.062 2  -6141046.035 1
  21404804.968   -10858539.231 4  -8461171.101 3
 91  4 24 21 39 45.0010000  0  6 19 11 16 18 06 02
  21846921.486     5023035.268 3   3914046.706 2
  23905699.728     1726999.152 2   1345722.242 1
  24382415.613      170181.024 2    132589.604 2
  24119245.494    17830676.338 2  13894002.174 1
  22871828.266    -7903897.736 2  -6158850.932 1
  21403170.494   -10867137.135 4  -8467870.740 3
 91  4 24 21 40  0.0010000  0  6 19 11 16 18 06 02
  21851861.468     5048994.082 3   3934274.326 2
  23912558.082     1763015.254 2   1373786.699 1
  24387350.185      196150.025 2    152824.986 1
  24130717.651    17890962.994 2  13940978.981 1
  22867489.670    -7926738.240 2  -6176648.643 1
  21401544.727   -10875660.710 4  -8474512.458 3
 91  4 24 21 40 15.0010000  0  6 19 11 16 18 06 02
  21856812.845     5075015.338 3   3954550.607 2
  23919429.018     1799158.884 2   1401950.560 1
  24392311.754      222215.800 2    173135.810 1
  24142200.296    17951282.683 2  13987981.530 1
  22863142.978    -7949568.535 2  -6194438.416 1
  21399937.527   -10884109.039 4  -8481095.544 3
 91  4 24 21 40 30.0010000  0  6 19 11 16 18 06 02
  21861777.712     5101099.294 2   3974875.745 2
  23926336.233     1835430.096 2   1430213.803 1
  24397291.313      248378.440 2    193522.185 1
  24153682.347    18011635.320 2  14035009.796 1
  22858802.586    -7972388.308 2  -6212219.998 1
  21398344.426   -10892481.931 4  -8487619.849 3
 91  4 24 21 40 45.0010000  0  6 19 11 16 18 06 02
  21866750.971     5127244.872 3   3995248.889 2
  23933263.254     1871827.454 2   1458575.365 2
  24402286.141      274636.652 2    213983.035 1
  24165171.605    18072019.348 2  14082062.484 1
  22854461.879    -7995198.611 2  -6229994.211 1
  21396763.925   -10900780.502 4  -8494086.225 3
 91  4 24 21 41  0.0010000  0  6 19 11 16 18 06 02
  21871745.799     5153450.874 2   4015669.124 2
  23940212.437     1908349.696 2   1487034.213 1
  24407304.667      300989.147 2    234517.337 1
  24176668.943    18132433.817 2  14129138.901 1
  22850126.582    -8018000.419 2  -6247761.783 1
  21395200.805   -10909005.900 4  -8500495.597 3
 91  4 24 21 41 15.0010000  0  6 19 11 16 18 06 02
  21876737.050     5179720.475 3   4036138.915 2
  23947185.911     1944999.435 2   1515592.407 1
  24412332.790      327438.197 2    255126.768 1
  24188173.470    18192881.203 2  14176240.965 1
  22845786.782    -8040790.700 2  -6265520.384 2
  21393649.079   -10917155.294 4  -8506845.752 3
 91  4 24 21 41 30.0010000  0  6 19 11 16 18 06 02
  21881754.372     5206050.435 2   4056655.741 2
  23954180.970     1981773.197 2   1544247.250 1
  24417384.889      353980.488 2    275808.928 1
  24199682.517    18253357.925 2  14223365.885 1
  22841450.595    -8063572.678 2  -6283272.542 1
  21392112.657   -10925231.937 4  -8513139.222 3
 91  4 24 21 41 45.0010000  0  6 19 11 16 18 06 02
  21886769.896     5232441.250 3   4077219.981 2
  23961207.196     2018671.138 2   1572998.874 1
  24422448.384      380616.081 2    296563.907 1
  24211194.530    18313864.063 2  14270513.754 1
  22837114.687    -8086345.886 2  -6301017.830 1
  21390588.503   -10933235.550 4  -8519375.772 3
 91  4 24 21 42  0.0010000  0  6 19 11 16 18 06 02
  21891818.401     5258897.263 2   4097835.028 2
  23968253.820     2055697.306 2   1601850.396 1
  24427539.765      407348.965 2    317394.561 1
  24222713.157    18374403.545 2  14317687.597 1
  22832785.096    -8109106.009 2  -6318752.930 1
  21389079.652   -10941161.964 4  -8525552.185 3
 91  4 24 21 42 15.0010000  0  6 19 11 16 18 06 02
  21896851.916     5285416.692 3   4118499.490 2
  23975316.028     2092849.550 2   1630800.187 1
  24432640.132      434177.032 2    338299.391 1
  24234240.492    18434974.458 2  14364885.915 1
  22828455.191    -8131854.779 2  -6336479.179 1
  21387587.589   -10949012.972 4  -8531669.829 3
 91  4 24 21 42 30.0010000  0  6 19 11 16 18 06 02
  21901911.520     5311995.426 3   4139210.180 2
  23982413.014     2130123.270 2   1659844.612 1
  24437764.493      461095.778 2    359274.910 1
  24245773.201    18495572.081 2  14412105.056 1
  22824131.882    -8154596.347 2  -6354199.848 1
  21386103.901   -10956792.920 4  -8537732.091 3
 91  4 24 21 42 45.0010000  0  6 19 11 16 18 06 02
  21906982.204     5338635.693 3   4159968.754 2
  23989531.586     2167520.421 2   1688985.220 1
  24442914.017      488106.743 2    380322.269 1
  24257307.708    18556198.292 2  14459346.381 1
  22819802.588    -8177328.447 2  -6371913.164 1
  21384640.927   -10964499.636 4  -8543737.339 3
 91  4 24 21 43  0.0010000  0  6 19 11 16 18 06 02
  21912066.098     5365336.618 2   4180774.630 2
  23996669.354     2205039.908 2   1718221.166 1
  24448066.264      515209.213 2    401440.903 1
  24268850.625    18616852.089 2  14506609.283 1
  22815476.871    -8200051.909 2  -6389619.674 1
  21383185.422   -10972134.149 4  -8549686.274 3
 91  4 24 21 43 15.0010000  0  6 19 11 16 18 06 02
  21917155.070     5392100.379 3   4201629.526 2
  24003833.191     2242683.553 2   1747553.891 1
  24453246.675      542404.884 2    422632.199 1
  24280404.624    18677535.118 2  14553894.984 1
  22811152.969    -8222764.580 2  -6407317.771 2
  21381749.426   -10979694.456 4  -8555577.368 3
 91  4 24 21 43 30.0010000  0  6 19 11 16 18 06 02
  21922259.329     5418925.506 3   4222532.207 2
  24011017.725     2280449.467 2   1776981.855 1
  24458432.775      569691.987 2    443894.762 1
  24291953.824    18738245.662 2  14601202.069 1
  22806838.961    -8245467.955 2  -6425008.667 1
  21380323.011   -10987182.030 4  -8561411.812 3
 91  4 24 21 43 45.0010000  0  6 19 11 16 18 06 02
  21927376.500     5445812.653 3   4243483.185 2
  24018230.127     2318338.049 2   1806505.389 1
  24463636.569      597070.884 2    465228.838 1
  24303511.138    18798984.163 2  14648530.996 1
  22802515.948    -8268161.297 2  -6442691.704 1
  21378911.288   -10994596.360 4  -8567189.185 3
 91  4 24 21 44  0.0010000  0  6 19 11 16 18 06 02
  21932505.049     5472761.131 2   4264481.964 2
  24025460.817     2356348.301 2   1836123.762 1
  24468875.142      624540.366 2    486633.532 1
  24315081.924    18859749.336 2  14695880.686 1
  22798202.534    -8290845.243 3  -6460367.497 1
  21377516.056   -11001938.172 4  -8572910.063 3
 91  4 24 21 44 15.0010000  0  6 19 11 16 18 06 02
  21937644.086     5499769.520 3   4285527.432 2
  24032722.690     2394478.517 2   1865835.592 1
  24474118.217      652098.601 2    508107.271 1
  24326644.909    18920539.869 2  14743250.172 1
  22793886.118    -8313521.225 3  -6478037.023 1
  21376132.219   -11009208.863 4  -8578575.501 3
 91  4 24 21 44 30.0010000  0  6 19 11 16 18 06 02
  21942797.223     5526841.289 3   4306622.289 2
  24039993.550     2432731.864 2   1895643.345 1
  24479374.188      679748.792 2    529652.773 1
  24338221.994    18981358.652 2  14790641.652 1
  22789575.111    -8336185.469 3  -6495697.422 1
  21374760.667   -11016405.044 4  -8584182.887 3
 91  4 24 21 44 45.0010000  0  6 19 11 16 18 06 02
  21947960.847     5553973.283 3   4327764.065 2
  24047299.503     2471104.618 2   1925544.160 1
  24484656.526      707487.291 2    551266.984 1
  24349794.891    19042201.904 2  14838052.127 1
  22785261.993    -8358841.547 3  -6513351.457 1
  21373408.589   -11023530.307 4  -8589735.015 3
 91  4 24 21 45  0.0010000  0  6 19 11 16 18 06 02
  21953132.865     5581165.430 3   4348952.735 2
  24054624.022     2509596.352 2   1955537.720 1
  24489948.758      735313.558 2    572949.642 1
  24361382.464    19103069.280 2  14885481.486 1
  22780948.579    -8381489.424 2  -6530999.121 1
  21372064.032   -11030584.856 4  -8595232.037 3
 91  4 24 21 45 15.0010000  0  6 19 11 16 18 06 02
  21958322.263     5608419.214 3   4370189.410 2
  24061971.942     2548208.461 2   1985625.049 1
  24495270.970      763228.707 2    594701.716 1
  24372970.037    19163962.127 2  14932930.613 1
  22776645.652    -8404127.546 2  -6548639.149 2
  21370738.042   -11037567.253 4  -8600672.830 3
 91  4 24 21 45 30.0010000  0  6 19 11 16 18 06 02
  21963518.571     5635732.914 3   4391472.779 2
  24069345.340     2586938.822 2   2015804.530 1
  24500592.588      791231.080 2    616521.996
  24384560.629    19224878.275 2  14980397.919 1
  22772338.833    -8426757.607 2  -6566272.914 1
  21369421.354   -11044479.372 4  -8606058.874 3
 91  4 24 21 45 45.0010000  0  6 19 11 16 18 06 02
  21968729.258     5663107.969 3   4412803.958 2
  24076741.213     2625788.456 2   2046076.923 1
  24505931.901      819321.352 2    638410.467 1
  24396160.486    19285818.842 2  15027884.277 1
  22768030.828    -8449378.146 2  -6583899.253 1
  21368117.264   -11051319.784 4  -8611389.039 3
 91  4 24 21 46  0.0010000  0  6 19 11 16 18 06 02
  21973955.546     5690544.471 2   4434183.015 2
  24084144.590     2664757.084 2   2076442.069 1
  24511299.972      847499.872 2    660367.552 1
  24407756.470    19346783.545 2  15075389.436 1
  22763728.198    -8471989.037 2  -6601518.079 2
  21366835.354   -11058088.505 4  -8616663.344 3
 91  4 24 21 46 15.0010000  0  6 19 11 16 18 06 02
  21979181.538     5718043.883 3   4455611.095 2
  24091586.934     2703845.863 2   2106900.830 1
  24516677.955      875767.066 2    682393.820 1
  24419362.924    19407773.438 2  15122914.221 1
  22759427.068    -8494588.881 2  -6619128.315 1
  21365555.537   -11064784.214 4  -8621880.745 3
 91  4 24 21 46 30.0010000  0  6 19 11 16 18 06 02
  21984429.691     5745604.490 2   4477086.866 2
  24099046.972     2743052.777 2   2137451.654 1
  24522076.022      904121.064 2    704487.659 1
  24430972.083    19468786.508 2  15170457.084 1
  22755129.847    -8517179.294 2  -6636731.153 2
  21364294.602   -11071408.714 4  -8627042.666 3
 91  4 24 21 46 45.0010000  0  6 19 11 16 18 06 02
  21989681.159     5773226.440 3   4498610.420 2
  24106533.394     2782377.641 2   2168094.376 1
  24527490.877      932561.576 2    726648.892 1
  24442584.243    19529822.856 2  15218018.115 1
  22750830.532    -8539760.101 2  -6654326.531 2
  21363050.174   -11077961.985 4  -8632149.080 3
 91  4 24 21 47  0.0010000  0  6 19 11 16 18 06 02
  21994951.212     5800910.832 3   4520182.647 2
  24114040.199     2821821.027 2   2198829.441 1
  24532915.312      961088.974 2    748878.011 1
  24454212.300    19590882.835 2  15265597.502 1
  22746538.704    -8562330.248 2  -6671913.609 1
  21361811.732   -11084443.070 4  -8637199.253 3
 91  4 24 21 47 15.0010000  0  6 19 11 16 18 06 02
  22000229.065     5828657.771 3   4541803.610 2
  24121565.884     2861382.995 2   2229656.908 1
  24538361.351      989703.365 2    771174.814 1
  24465834.948    19651966.458 2  15313195.331 1
  22742244.467    -8584889.470 2  -6689492.160 2
  21360593.969   -11090851.989 4  -8642193.178 3
 91  4 24 21 47 30.0010000  0  6 19 11 16 18 06 02
  22005524.596     5856467.478 3   4563473.490 2
  24129115.267     2901063.551 2   2260576.781 1
  24543826.567     1018405.083 2    793539.601 1
  24477461.208    19713073.930 2  15360811.727 1
  22737955.343    -8607437.388 2  -6707061.891 1
  21359391.509   -11097188.399 4  -8647130.621 3
 91  4 24 21 47 45.0010000  0  6 19 11 16 18 06 02
  22010819.533     5884339.646 3   4585192.021 2
  24136690.424     2940861.933 2   2291588.495 1
  24549302.568     1047193.077 2    815971.670 1
  24489089.248    19774204.160 2  15408445.857 1
  22733664.108    -8629974.395 2  -6724623.130 1
  21358196.536   -11103452.937 4  -8652012.059 3
 91  4 24 21 48  0.0010000  0  6 19 11 16 18 06 02
  22016148.341     5912275.440 3   4606960.150 2
  24144285.666     2980778.678 2   2322692.431 1
  24554796.577     1076067.984 2    838471.447 1
  24500731.091    19835357.896 2  15456098.296 1
  22729383.081    -8652499.411 3  -6742175.053 2
  21357020.147   -11109644.718 4  -8656836.793 3
 91  4 24 21 48 15.0010000  0  6 19 11 16 18 06 02
  22021472.350     5940273.680 3   4628776.912 2
  24151905.182     3020812.361 2   2353887.492 1
  24560308.856     1105028.380 2    861037.868 1
  24512376.528    19896533.814 2  15503768.034 1
  22725097.534    -8675013.615 2  -6759718.502 2
  21355854.542   -11115764.925 4  -8661605.753 3
 91  4 24 21 48 30.0010000  0  6 19 11 16 18 06 02
  22026813.163     5968334.134 3   4650642.180 2
  24159543.002     3060962.516 2   2385173.297 1
  24565834.625     1134073.461 2    883670.150 1
  24524024.374    19957731.132 2  15551454.409 1
  22720813.505    -8697517.149 2  -6777253.661 1
  21354703.945   -11121813.975 4  -8666319.277 3
 91  4 24 21 48 45.0010000  0  6 19 11 16 18 06 02
  22032156.961     5996455.608 3   4672554.981 2
  24167209.284     3101227.678 2   2416548.722 1
  24571373.289     1163201.956 2    906367.660 1
  24535671.313    20018948.612 2  15599156.538 1
  22716530.681    -8720011.137 3  -6794781.394 2
  21353564.131   -11127793.082 4  -8670978.306 3
 91  4 24 21 49  0.0010000  0  6 19 11 16 18 06 02
  22037523.549     6024639.207 3   4694516.206 2
  24174887.572     3141608.407 2   2448014.190 1
  24576935.947     1192414.352 2    929130.368 1
  24547323.050    20080186.883 2  15646874.862 1
  22712255.936    -8742494.348 3  -6812300.701 2
  21352442.309   -11133701.225 4  -8675582.019 3
 91  4 24 21 49 15.0010000  0  6 19 11 16 18 06 02
  22042899.420     6052883.917 3   4716525.038 2
  24182599.434     3182103.394 2   2479568.710 1
  24582514.171     1221709.308 2    951957.473 1
  24558981.662    20141444.427 2  15694608.166 1
  22707978.486    -8764968.040 2  -6829812.613 2
  21351331.882   -11139539.714 4  -8680131.468 3
 91  4 24 21 49 30.0010000  0  6 19 11 16 18 06 02
  22048286.389     6081193.378 3   4738584.319 2
  24190328.991     3222715.935 2   2511214.788 1
  24588099.009     1251090.205 2    974851.506 1
  24570642.404    20202724.604 2  15742359.111 1
  22703701.054    -8787428.317 2  -6847314.068 1
  21350234.647   -11145304.826 4  -8684623.737 3
 91  4 24 21 49 45.0010000  0  6 19 11 16 18 06 02
  22053685.958     6109564.528 3   4760691.681 2
  24198078.615     3263442.571 2   2542949.824 1
  24593709.934     1280553.476 2    997809.789 1
  24582304.925    20264024.086 2  15790124.714 1
  22699430.218    -8809878.371 2  -6864807.547 2
  21349152.996   -11150999.809 4  -8689061.376 3
 91  4 24 21 50  0.0010000  0  6 19 11 16 18 06 02
  22059097.811     6137997.493 3   4782847.193 2
  24205845.044     3304283.271 2   2574773.690 1
  24599335.535     1310099.115 2   1020832.190 1
  24593971.949    20325342.719 2  15837905.604 1
  22695159.068    -8832317.856 2  -6882292.795 2
  21348079.441   -11156624.597 4  -8693444.296 3
 91  4 24 21 50 15.0010000  0  6 19 11 16 18 06 02
  22064517.151     6166493.716 3   4805052.009 2
  24213644.436     3345239.155 2   2606687.376 1
  24604973.125     1339728.169 2   1043919.562 1
  24605641.067    20386681.748 2  15885702.475 1
  22690891.216    -8854745.174 2  -6899768.582 2
  21347024.470   -11162177.701 4  -8697771.363 3
 91  4 24 21 50 30.0010000  0  6 19 11 16 18 06 02
  22069957.780     6195051.072 3   4827304.465 2
  24221454.944     3386307.590 2   2638688.681 1
  24610624.517     1369438.311 2   1067070.256 1
  24617319.485    20448038.437 2  15933513.077 1
  22686625.178    -8877162.499 2  -6917236.557 2
  21345977.283   -11167661.509 4  -8702044.440 3
 91  4 24 21 50 45.0010000  0  6 19 11 16 18 06 02
  22075397.815     6223669.839 3   4849604.771 2
  24229292.413     3427488.520 2   2670777.745 1
  24616297.793     1399229.117 2   1090283.710 1
  24629003.593    20509412.937 2  15981337.540 1
  22682363.033    -8899569.573 3  -6934696.542 2
  21344946.306   -11173075.764 4  -8706263.323 3
 91  4 24 21 51  0.0010000  0  6 19 11 16 18 06 02
  22080859.437     6252351.045 2   4871953.729 2
  24237152.968     3468782.537 2   2702954.869 1
  24621980.962     1429101.247 2   1113560.500 1
  24640679.917    20570806.132 2  16029176.631 1
  22678103.574    -8921965.377 3  -6952147.769 2
  21343931.803   -11178419.765 4  -8710427.455 3
 91  4 24 21 51 15.0010000  0  6 19 11 16 18 06 02
  22086321.966     6281096.030 3   4894352.386 2
  24245031.218     3510190.586 2   2735220.845 1
  24627675.212     1459055.670 2   1136901.426 1
  24652371.214    20632218.683 2  16077030.321 1
  22673844.133    -8944348.572 3  -6969589.163 2
  21342926.007   -11183692.350 4  -8714535.930 3
 91  4 24 21 51 30.0010000  0  6 19 11 16 18 06 02
  22091812.363     6309903.578 2   4916799.792 2
  24252935.242     3551711.139 2   2767574.488 1
  24633381.469     1489090.692 1   1160305.159 1
  24664061.028    20693648.803 2  16124898.037 1
  22669586.175    -8966720.287 2  -6987021.618 1
  21341936.685   -11188894.929 4  -8718589.877 3
 91  4 24 21 51 45.0010000  0  6 19 11 16 18 06 02
  22097301.259     6338771.924 2   4939294.570 2
  24260856.663     3593342.045 2   2800014.126 1
  24639118.594     1519203.961 2   1183769.850 1
  24675755.326    20755094.433 2  16172777.537 1
  22665334.220    -8989082.428 2  -7004446.600 2
  21340962.666   -11194029.233 4  -8722590.614 3
 91  4 24 21 52  0.0010000  0  6 19 11 16 18 06 02
  22102812.037     6367702.090 2   4961837.536 2
  24268797.263     3635084.135 2   2832540.410 1
  24644861.426     1549396.577 2   1207296.428 1
  24687452.940    20816556.621 2  16220670.320 1
  22661076.856    -9011433.634 2  -7021863.062 2
  21339996.430   -11199094.275 4  -8726537.372 3
 91  4 24 21 52 15.0010000  0  6 19 11 16 18 06 02
  22108321.630     6396694.463 2   4984428.953 2
  24276764.247     3676937.544 2   2865153.434 1
  24650631.829     1579668.766 2   1230885.083 1
  24699155.039    20878035.493 2  16268576.100 1
  22656827.605    -9033773.404 3  -7039270.627 2
  21339046.684   -11204089.739 4  -8730429.922 3
 91  4 24 21 52 30.0010000  0  6 19 11 16 18 06 02
  22113853.104     6425749.315 2   5007069.071 2
  24284747.721     3718902.018 2   2897852.984 1
  24656406.123     1610020.259 2   1254535.398 1
  24710850.227    20939530.686 2  16316494.631 1
  22652578.041    -9056101.558 3  -7056669.125 1
  21338110.131   -11209015.631 4  -8734268.259 3
 91  4 24 21 52 45.0010000  0  6 19 11 16 18 06 02
  22119394.770     6454866.959 2   5029758.102 2
  24292752.782     3760977.482 2   2930639.054 1
  24662191.813     1640450.676 2   1278247.259 1
  24722560.422    21001042.256 2  16364425.965 1
  22648330.292    -9078417.743 3  -7074058.311 2
  21337185.566   -11213871.660 4  -8738052.152 3
 91  4 24 21 53  0.0010000  0  6 19 11 16 18 06 02
  22124949.314     6484046.068 2   5052495.031 2
  24300781.819     3803162.317 2   2963510.327 1
  24668002.997     1670958.362 2   1302019.375 1
  24734264.632    21062568.525 2  16412368.724 1
  22644085.230    -9100723.365 3  -7091439.260 2
  21336272.414   -11218659.215 4  -8741782.691 3
 91  4 24 21 53 15.0010000  0  6 19 11 16 18 06 02
  22130513.159     6513288.961 2   5075281.663 2
  24308832.739     3845458.414 2   2996468.341 1
  24673828.264     1701545.250 2   1325853.083 1
  24745981.721    21124111.349 2  16460324.328 1
  22639840.168    -9123015.955 3  -7108810.056 2
  21335376.328   -11223376.160 4  -8745458.208 3
 91  4 24 21 53 30.0010000  0  6 19 11 16 18 06 02
  22136093.808     6542595.053 2   5098117.549 2
  24316898.962     3887864.834 2   3029512.237 1
  24679660.423     1732210.444 2   1349747.912 1
  24757693.714    21185669.992 2  16508292.296 1
  22635599.608    -9145296.025 3  -7126171.095 2
  21334491.637   -11228023.272 4  -8749079.322 3
 91  4 24 21 53 45.0010000  0  6 19 11 16 18 06 02
  22141678.628     6571966.345 2   5121004.236 2
  24324993.665     3930383.301 2   3062643.493 1
  24685509.370     1762955.435 2   1373704.910 1
  24769402.705    21247245.948 2  16556273.721 1
  22631365.330    -9167561.564 3  -7143520.817 1
  21333620.138   -11232598.553 4  -8752644.450 3
 91  4 24 21 54  0.0010000  0  6 19 11 16 18 06 02
  22147285.052     6601404.035 2   5143942.655 2
  24333108.731     3973014.618 2   3095862.701 1
  24691377.511     1793781.239 2   1397725.256 1
  24781121.591    21308840.448 2  16604269.682 1
  22627126.864    -9189811.329 3  -7160858.225 2
  21332765.740   -11237101.026 4  -8756152.846 3
 91  4 24 21 54 15.0010000  0  6 19 11 16 18 06 02
  22152893.569     6630903.183 2   5166928.955 2
  24341235.821     4015753.567 2   3129165.755 1
  24697256.141     1824682.799 2   1421804.205 1
  24792851.871    21370447.875 2  16652275.649 1
  22622898.292    -9212050.137 3  -7178187.126 1
  21331919.126   -11241535.658 4  -8759608.377 3
 91  4 24 21 54 30.0010000  0  6 19 11 16 18 06 02
  22158520.968     6660463.428 2   5189962.874 2
  24349388.964     4058599.446 2   3162552.111 1
  24703146.462     1855658.931 2   1445941.364 1
  24804575.556    21432067.762 2  16700291.367 1
  22618670.628    -9234278.184 3  -7195507.636 1
  21331090.188   -11245902.739 4  -8763011.282 3
 91  4 24 21 54 45.0010000  0  6 19 11 16 18 06 02
  22164154.683     6690078.885 2   5213039.813 2
  24357566.101     4101545.965 2   3196016.900 1
  24709061.074     1886703.706 2   1470131.880 1
  24816312.433    21493693.854 2  16748311.864 1
  22614441.445    -9256501.407 3  -7212824.386 2
  21330269.068   -11250208.637 4  -8766366.494 3
 91  4 24 21 55  0.0010000  0  6 19 11 16 18 06 02
  22169805.168     6719754.854 2   5236163.912 2
  24365753.744     4144597.976 2   3229563.909 1
  24714979.873     1917822.038 2   1494379.732 1
  24828041.213    21555330.985 2  16796340.981 1
  22610215.579    -9278714.586 3  -7230133.303 1
  21329464.124   -11254448.155 4  -8769669.991 3
 91  4 24 21 55 15.0010000  0  6 19 11 16 18 06 02
  22175458.341     6749490.790 2   5259334.721 2
  24373968.957     4187754.752 2   3263192.549 1
  24720911.569     1949012.818 2   1518684.116 1
  24839778.683    21616978.386 2  16844378.088 1
  22605984.599    -9300918.020 3  -7247434.624 2
  21328669.372   -11258621.752 4  -8772922.122 3
 91  4 24 21 55 30.0010000  0  6 19 11 16 18 06 02
  22181131.319     6779287.922 2   5282553.220 2
  24382197.363     4231017.071 2   3296903.460 1
  24726869.038     1980277.039 2   1543045.725 1
  24851503.554    21678636.966 2  16892423.971 1
  22601764.717    -9323110.448 3  -7264727.349 2
  21327887.811   -11262728.446 4  -8776122.119 3
 91  4 24 21 55 45.0010000  0  6 19 11 16 18 06 02
  22186809.987     6809143.900 2   5305817.576 2
  24390453.044     4274382.318 2   3330694.537 1
  24732834.308     2011612.069 2   1567462.866 1
  24863241.041    21740304.242 2  16940476.615 1
  22597545.743    -9345294.207 3  -7282013.336 1
  21327119.443   -11266770.474 4  -8779271.722 3
 91  4 24 21 56  0.0010000  0  6 19 11 16 18 06 02
  22192504.848     6839058.609 2   5329127.713 2
  24398726.419     4317849.813 2   3364565.288 1
  24738797.484     2043017.220 2   1591934.251 1
  24874972.823    21801979.405 2  16988535.364 1
  22593324.064    -9367469.428 3  -7299292.690 2
  21326358.265   -11270748.299 4  -8782371.303 3
 91  4 24 21 56 15.0010000  0  6 19 11 16 18 06 02
  22198203.600     6869033.433 2   5352484.684 2
  24407017.767     4361420.742 2   3398516.630 1
  24744796.642     2074493.489 2   1616461.133 1
  24886715.388    21863663.859 2  17036601.405 1
  22589105.090    -9389634.466 3  -7316564.088 2
  21325616.578   -11274660.625 4  -8785419.845 3
 91  4 24 21 56 30.0010000  0  6 19 11 16 18 06 02
  22203925.440     6899068.083 2   5375888.260 2
  24415325.624     4405094.317 2   3432547.950 1
  24750800.581     2106039.978 2   1641042.585 1
  24898458.861    21925356.761 2  17084673.970 1
  22584887.600    -9411789.714 3  -7333827.853 1
  21324884.786   -11278507.803 4  -8788417.613 3
 91  4 24 21 56 45.0010000  0  6 19 11 16 18 06 02
  22209649.687     6929163.256 2   5399339.003 2
  24423659.552     4448870.955 2   3466659.599 1
  24756806.911     2137657.222 2   1665679.260 1
  24910205.929    21987058.387 2  17132753.358 1
  22580678.816    -9433934.298 3  -7351083.317 2
  21324162.294   -11282289.287 4  -8791364.189 3
 91  4 24 21 57  0.0010000  0  6 19 11 16 18 06 02
  22215388.610     6959318.468 2   5422836.508 2
  24432009.673     4492749.717 2   3500850.814 1
  24762845.035     2169344.377 2   1690370.356 1
  24921941.602    22048767.978 2  17180838.905 1
  22576463.141    -9456068.681 3  -7368330.853 2
  21323458.370   -11286005.544 4  -8794259.955 3
 91  4 24 21 57 15.0010000  0  6 19 11 16 18 06 02
  22221133.832     6989531.768 2   5446379.287 2
  24440373.876     4536728.340 2   3535119.845 1
  24768883.456     2201099.056 2   1715114.022 1
  24933681.463    22110483.213 2  17228928.925 1
  22572250.449    -9478194.784 3  -7385571.927 1
  21322764.061   -11289658.889 4  -8797106.692 3
 91  4 24 21 57 30.0010000  0  6 19 11 16 18 06 02
  22226902.735     7019805.895 2   5469969.471 2
  24448761.480     4580809.322 2   3569468.697 1
  24774943.167     2232923.809 2   1739912.443 1
  24945431.235    22172206.814 2  17277025.352 1
  22568040.479    -9500309.787 3  -7402804.343 2
  21322082.036   -11293246.496 4  -8799902.192 3
 91  4 24 21 57 45.0010000  0  6 19 11 16 18 06 02
  22232671.340     7050140.143 2   5493606.508 2
  24457173.951     4624991.534 2   3603896.397 1
  24781016.052     2264817.549 2   1764764.566 1
  24957176.802    22233937.376 2  17325126.901 1
  22563837.384    -9522414.277 3  -7420028.561 2
  21321411.390   -11296769.225 4  -8802647.162 3
 91  4 24 21 58  0.0010000  0  6 19 11 16 18 06 02
  22238455.843     7080533.234 2   5517289.383 2
  24465599.021     4669273.226 2   3638401.602 1
  24787094.346     2296778.285 2   1789668.918 1
  24968928.076    22295673.335 2  17373233.056 1
  22559630.695    -9544509.588 3  -7437245.631 1
  21320749.451   -11300228.606 4  -8805342.758 3
 91  4 24 21 58 15.0010000  0  6 19 11 16 18 06 02
  22244257.412     7110988.955 3   5541021.068 2
  24474046.863     4713657.975 2   3672987.090 1
  24793184.333     2328809.643 2   1814628.173 1
  24980674.236    22357418.278 2  17421346.194 1
  22555437.792    -9566591.779 3  -7454452.480 2
  21320107.893   -11303620.833 4  -8807986.025 3
 91  4 24 21 58 30.0010000  0  6 19 11 16 18 06 02
  22250059.610     7141504.320 2   5564799.231 2
  24482511.214     4758142.359 2   3707650.231 1
  24799307.893     2360908.264 2   1839639.917 1
  24992428.493    22419168.897 2  17469463.729 1
  22551235.308    -9588663.646 3  -7471651.276 2
  21319472.339   -11306949.012 4  -8810579.377 3
 91  4 24 21 58 45.0010000  0  6 19 11 16 18 06 02
  22255879.170     7172080.964 3   5588625.139 2
  24490997.429     4802727.688 2   3742392.044 1
  24805415.574     2393075.361 2   1864704.984 1
  25004174.968    22480926.567 2  17517586.374 1
  22547034.308    -9610723.679 3  -7488840.859 2
  21318849.366   -11310211.565 4  -8813121.604 3
 91  4 24 21 59  0.0010000  0  6 19 11 16 18 06 02
  22261711.033     7202719.431 2   5612499.239 2
  24499496.243     4847414.094 2   3777212.590 1
  24811558.924     2425310.878 2   1889823.377 1
  25015932.523    22542691.564 2  17565714.716 1
  22542838.717    -9632771.178 3  -7506020.690 2
  21318243.791   -11313408.183 4  -8815612.437 3
 91  4 24 21 59 15.0010000  0  6 19 11 16 18 06 02
  22267543.506     7233420.447 2   5636422.058 2
  24508025.351     4892202.016 2   3812112.273 1
  24817703.163     2457615.397 2   1914995.583 1
  25027689.189    22604464.089 2  17613849.260 1
  22538642.830    -9654805.432 3  -7523190.182 2
  21317645.999   -11316538.286 4  -8818051.455 3
 91  4 24 21 59 30.0010000  0  6 19 11 16 18 06 02
  22273400.846     7264183.572 2   5660393.285 2
  24516563.743     4937090.615 2   3847090.398 1
  24823863.596     2489988.007 2   1940220.839 1
  25039441.055    22666243.311 2  17661989.148 1
  22534455.615    -9676826.741 3  -7540349.581 2
  21317065.012   -11319602.467 4  -8820439.100 3
 91  4 24 21 59 45.0010000  0  6 19 11 16 18 06 02
  22279268.081     7295006.315 2   5684410.956 2
  24525127.001     4982077.032 2   3882144.748 1
  24830031.829     2522425.962 2   1965496.954 1
  25051196.517    22728026.512 2  17710132.140 1
  22530265.417    -9698837.554 3  -7557500.812 2
  21316491.807   -11322603.275 4  -8822777.369 3
 91  4 24 22  0  0.0010000  0  6 19 11 16 18 06 02
  22285145.209     7325890.613 2   5708476.600 2
  24533701.078     5027162.942 2   3917276.634 1
  24836222.834     2554930.965 2   1990825.439 1
  25062957.684    22789815.669 1  17758279.703 1
  22526079.127    -9720835.732 3  -7574642.196 2
  21315933.889   -11325538.560 4  -8825064.588 3
 91  4 24 22  0 15.0010000  0  6 19 11 16 18 06 02
  22291037.642     7356835.252 2   5732589.264 2
  24542300.319     5072346.725 2   3952484.751 1
  24842418.360     2587501.313 2   2016204.785 1
  25074712.535    22851608.768 1  17806429.984 1
  22521897.008    -9742822.375 3  -7591774.600 2
  21315387.365   -11328409.852 4  -8827301.923 3
 91  4 24 22  0 30.0010000  0  6 19 11 16 18 06 02
  22296939.358     7387843.001 2   5756751.079 2
  24550919.051     5117630.775 2   3987770.990 1
  24848631.545     2620139.139 2   2041636.649 1
  25086475.796    22913408.726 1  17854585.948 1
  22517714.313    -9764794.637 3  -7608895.805 2
  21314852.237   -11331214.503 4  -8829487.347 3
 91  4 24 22  0 45.0010000  0  6 19 11 16 18 06 02
  22302847.967     7418912.900 2   5780961.355 2
  24559553.366     5163013.622 2   4023134.273 1
  24854858.236     2652843.408 2   2067120.264 1
  25098240.855    22975213.706 1  17902745.863 1
  22513538.807    -9786753.510 3  -7626006.555 2
  21314332.098   -11333953.575 4  -8831621.663 3
 91  4 24 22  1  0.0010000  0  6 19 11 16 18 06 02
  22308771.251     7450044.488 2   5805219.684 2
  24568204.486     5208494.419 2   4058573.794 1
  24861088.819     2685613.139 2   2092654.968 1
  25110004.413    23037023.206 2  17950909.319 1
  22509358.799    -9808699.387 3  -7643107.183 2
  21313824.541   -11336627.712 4  -8833705.379 3
 91  4 24 22  1 15.0010000  0  6 19 11 16 18 06 02
  22314712.544     7481237.467 2   5829525.856 2
  24576881.380     5254072.609 2   4094089.289 1
  24867325.108     2718447.560 2   2118240.097 1
  25121760.765    23098836.646 2  17999075.825 1
  22505183.294    -9830632.497 3  -7660197.872 2
  21313324.784   -11339237.312 4  -8835738.811 3
 91  4 24 22  1 30.0010000  0  6 19 11 16 18 06 02
  22320657.729     7512492.705 3   5853880.541 2
  24585574.154     5299748.601 2   4129680.993 1
  24873591.970     2751347.242 2   2143875.981 1
  25133529.122    23160654.221 2  18047245.535 1
  22501016.164    -9852551.990 3  -7677277.948 2
  21312844.816   -11341781.641 4  -8837721.388 3
 91  4 24 22  1 45.0010000  0  6 19 11 16 18 06 02
  22326615.809     7543808.967 2   5878282.758 2
  24594283.732     5345520.861 2   4165347.654 1
  24879867.818     2784310.776 2   2169561.717 1
  25145301.074    23222474.540 2  18095417.436 1
  22496840.955    -9874458.872 3  -7694348.207 2
  21312369.961   -11344261.913 4  -8839654.042 3
 91  4 24 22  2  0.0010000  0  6 19 11 16 18 06 02
  22332590.362     7575186.456 2   5902732.695 2
  24603007.393     5391389.328 2   4201089.319 1
  24886156.580     2817337.686 2   2195296.735 1
  25157058.926    23284297.674 2  18143591.534 1
  22492679.236    -9896352.797 3  -7711408.334 2
  21311913.672   -11346678.067 4  -8841536.741 3
 91  4 24 22  2 15.0010000  0  6 19 11 16 18 06 02
  22338567.638     7606624.617 2   5927229.926 2
  24611757.438     5437352.988 2   4236905.138 1
  24892448.308     2850427.280 2   2221080.701 1
  25168821.891    23346122.790 2  18191767.138 1
  22488516.626    -9918234.242 3  -7728458.767 2
  21311464.277   -11349030.949 4  -8843370.129 3
 91  4 24 22  2 30.0010000  0  6 19 11 16 18 06 02
  22344560.775     7638123.052 2   5951774.111 2
  24620523.974     5483410.996 2   4272794.508 1
  24898766.439     2883578.520 2   2246912.762 1
  25180595.343    23407949.055 2  18239943.642 1
  22484353.108    -9940103.564 3  -7745499.735 2
  21311029.575   -11351320.912 4  -8845154.499 3
 91  4 24 22  2 45.0010000  0  6 19 11 16 18 06 02
  22350572.829     7669683.187 2   5976366.381 2
  24629305.778     5529564.517 2   4308758.287 1
  24905069.876     2916792.703 1   2272794.171 1
  25192357.401    23469777.580 2  18288121.956 1
  22480192.279    -9961959.243 3  -7762530.086 2
  21310604.784   -11353546.556 4  -8846888.745 3
 91  4 24 22  3  0.0010000  0  5 19 11 18 06 02
  22356579.770     7701303.047 2   6001005.177 2
  24638108.000     5575811.231 2   4344794.675 1
  25204120.959    23531606.119 2  18336299.816 1
  22476038.062    -9983803.088 3  -7779551.216 2
  21310191.668   -11355709.993 4  -8848574.514 3
 91  4 24 22  3 15.0010000  0  5 19 11 18 06 02
  22362616.987     7732983.724 2   6025691.364 2
  24646928.491     5622151.863 2   4380904.275 1
  25215880.905    23593435.558 2  18384478.775 1
  22471884.736   -10005633.974 3  -7796562.237 2
  21309793.541   -11357810.331 4  -8850211.121 3
 91  4 24 22  3 30.0010000  0  6 19 11 15 18 06 02
  22368653.296     7764725.192 2   6050424.944 2
  24655758.267     5668585.888 2   4417086.605 1
  25230414.545           0.345 2         0.067 1
  25227647.168    23655265.170 2  18432657.452 1
  22467732.317   -10027451.880 3  -7813563.153 2
  21309408.903   -11359847.943 4  -8851798.862 3
 91  4 24 22  3 45.0010000  0  6 19 11 15 18 06 02
  22374707.911     7796527.892 2   6075206.205 2
  24664610.239     5715113.289 2   4453341.736 1
  25225628.666      -25058.609 2    -19526.641 1
  25239417.619    23717095.150 2  18480836.428 1
  22463584.086   -10049256.234 3  -7830553.513 2
  21309029.361   -11361822.317 4  -8853337.310 3
 91  4 24 22  4  0.0010000  0  6 19 11 15 18 06 02
  22380776.312     7828389.989 2   6100033.766 2
  24673487.409     5761732.307 2   4489668.194 1
  25220882.940      -50071.680 2    -39017.159 1
  25251181.770    23778923.975 2  18529014.853 1
  22459435.262   -10071048.682 3  -7847534.571 1
  21308664.826   -11363735.106 4  -8854827.772 3
 91  4 24 22  4 15.0010000  0  6 19 11 15 18 06 02
  22386844.712     7860312.889 2   6124908.696 2
  24682376.846     5808443.702 2   4526066.672 1
  25216136.027      -75037.668 2    -58471.403 1
  25262948.923    23840752.356 2  18577192.592 1
  22455291.830   -10092827.884 3  -7864505.326 2
  21308312.262   -11365585.454 4  -8856269.579 3
 91  4 24 22  4 30.0010000  0  6 19 11 15 18 06 02
  22392932.587     7892298.579 2   6149832.571 2
  24691279.790     5855248.996 2   4562538.356 1
  25211410.403      -99954.192 2    -77886.715 1
  25274716.076    23902581.781 2  18625371.555 1
  22451149.288   -10114591.793 3  -7881464.174 2
  21307973.797   -11367371.369 4  -8857661.187 3
 91  4 24 22  4 45.0010000  0  6 19 11 15 18 06 02
  22399028.576     7924345.609 2   6174804.243 2
  24700199.801     5902146.447 2   4599081.783 1
  25206669.790     -124822.158 2    -97264.182 1
  25286488.936    23964410.401 2  18673549.923 1
  22447010.061   -10136341.694 3  -7898412.086 2
  21307648.525   -11369094.334 4  -8859003.738 3
 91  4 24 22  5  0.0010000  0  6 19 11 15 18 06 02
  22405137.740     7956453.885 2   6199823.612 2
  24709144.416     5949135.752 2   4635696.822 1
  25201936.959     -149641.123 2   -116603.556 1
  25298251.290    24026237.970 2  18721727.447 1
  22442873.522   -10158077.455 3  -7915348.977 1
  21307331.647   -11370754.487 4  -8860297.337 3
 91  4 24 22  5 15.0010000  0  6 19 11 15 18 06 02
  22411261.004     7988622.717 2   6224890.188 2
  24718110.913     5996215.704 2   4672382.504 1
  25197230.217     -174411.367 2   -135905.166 1
  25310007.048    24088063.557 2  18769902.994 1
  22438738.484   -10179799.784 3  -7932275.433 2
  21307028.850   -11372352.624 4  -8861542.618 3
 91  4 24 22  5 30.0010000  0  5 19 11 15 06 02
  22417395.663     8020853.512 2   6250005.047 2
  24727078.005     6043387.237 2   4709139.527 1
  25192521.084     -199131.093 2   -155167.152 1
  22434613.043   -10201507.173 3  -7949190.227 2
  21306736.559   -11373887.532 4  -8862738.630 3
 91  4 24 22  5 45.0010000  0  5 19 11 15 06 02
  22423540.513     8053146.335 2   6275168.225 2
  24736075.372     6090650.166 2   4745967.793 1
  25187829.627     -223800.086 2   -174389.526 1
  22430484.600   -10223199.419 3  -7966093.220 2
  21306455.646   -11375359.132 4  -8863885.309 3
 91  4 24 22  6  0.0010000  0  5 19 11 15 06 02
  22429701.836     8085500.071 2   6300378.877 2
  24745090.137     6138002.990 2   4782866.068 1
  25183137.578     -248419.123 2   -193572.987 1
  22426360.050   -10244877.619 3  -7982985.276 2
  21306184.940   -11376768.775 4  -8864983.711 3
 91  4 24 22  6 15.0010000  0  5 19 11 15 06 02
  22435861.676     8117918.647 2   6325640.052 2
  24754119.874     6185449.298 2   4819837.213 1
  25178479.103     -272983.700 2   -212714.023 1
  22422237.907   -10266537.734 3  -7999863.219 2
  21305930.412   -11378112.600 4  -8866030.823 3
 91  4 24 22  6 30.0010000  0  6 19 11 15 16 06 02
  22442053.589     8150401.420 2   6350951.257 2
  24763164.915     6232988.176 2   4856880.478 1
  25173805.934     -297494.326 2   -231813.068 1
  25001259.787      168302.73812    131113.449 1
  22418118.451   -10288180.104 3  -8016727.345 2
  21305687.574   -11379391.226 4  -8867027.136 3
 91  4 24 22  6 45.0010000  0  6 19 11 15 16 06 02
  22448241.000     8182949.203 2   6376313.119 2
  24772222.241     6280620.075 2   4893996.251 1
  25169144.161     -321949.879 2   -250869.145 1
  25007761.686      202470.345 2    157737.402 1
  22414000.217   -10309803.992 3  -8033577.061 2
  21305456.132   -11380604.064 4  -8867972.181 3
 91  4 24 22  7  0.0010000  0  6 19 11 15 16 06 02
  22454452.108     8215562.850 2   6401726.287 2
  24781312.252     6328345.444 2   4931184.856 1
  25164500.972     -346349.044 2   -269881.269 1
  25014274.683      236698.643 2    184408.582 1
  22409892.157   -10331408.265 3  -8050411.494 2
  21305236.085   -11381750.488 4  -8868865.475 3
 91  4 24 22  7 15.0010000  0  6 19 11 15 16 06 02
  22460668.294     8248240.647 2   6427189.457 2
  24790412.156     6376162.043 2   4968444.520 1
  25159886.280     -370693.134 2   -288850.617
  25020802.059      270985.266 2    211125.230 1
  22405788.302   -10352994.832 3  -8067232.151 2
  21305033.436   -11382832.300 4  -8869708.431 3
 91  4 24 22  7 30.0010000  0  6 19 11 15 16 06 02
  22466897.691     8280983.737 2   6452703.504 2
  24799526.737     6424070.766 2   5005776.002 1
  25155253.282     -394980.863 2   -307776.345 1
  25027336.939      305331.056 2    237887.987 1
  22401676.647   -10374562.289 3  -8084037.910 2
  21304839.162   -11383848.252 4  -8870500.061 3
 91  4 24 22  7 45.0010000  0  6 19 11 15 16 06 02
  22473144.171     8313789.619 2   6478266.480 2
  24808661.420     6472068.701 2   5043176.986 1
  25150636.774     -419214.187 2   -326659.253 1
  25033884.103      339733.140 2    264694.582 1
  22397576.387   -10396112.973 3  -8100830.581 2
  21304655.394   -11384800.977 4  -8871242.415 3
 91  4 24 22  8  0.0010000  0  6 19 11 15 16 06 02
  22479397.840     8346658.947 2   6503878.888 2
  24817813.780     6520156.191 2   5080647.762 1
  25146037.054     -443392.240 2   -345499.131 1
  25040440.272      374191.813 2    291545.363 1
  22393480.314   -10417646.064 3  -8117609.538 2
  21304486.615   -11385690.068 4  -8871935.187 3
 91  4 24 22  8 15.0010000  0  6 19 11 15 16 06 02
  22485658.996     8379591.500 2   6529540.562 2
  24826979.035     6568332.465 2   5118187.732 1
  25141439.148     -467514.966 2   -364296.285 1
  25047001.519      408706.223 2    318439.558 1
  22389384.853   -10439161.921 3  -8134375.099 2
  21304332.216   -11386515.986 4  -8872578.732 3
 91  4 24 22  8 30.0010000  0  6 19 11 15 16 06 02
  22491936.956     8412585.800 2   6555250.369 2
  24836159.891     6616595.874 2   5155795.609 1
  25136866.109     -491583.249 2   -383050.576 1
  25053585.870      443274.758 2    345375.891 1
  22385295.377   -10460661.662 3  -8151128.073 2
  21304183.226   -11387279.960 4  -8873174.014 3
 91  4 24 22  8 45.0010000  0  6 19 11 15 16 06 02
  22498232.593     8445642.563 2   6581008.833 2
  24845358.721     6664946.594 2   5193471.480 1
  25132299.370     -515595.932 2   -401761.632 1
  25060177.707      477897.658 2    372354.602 1
  22381207.716   -10482144.602 3  -8167867.985 2
  21304051.616   -11387981.780 4  -8873720.865 2
 91  4 24 22  9  0.0010000  0  6 19 11 15 16 06 02
  22504527.340     8478762.317 2   6606816.374 2
  24854579.434     6713384.888 2   5231215.656 1
  25127741.024     -539552.553 2   -420428.903 1
  25066772.232      512575.177 2    399375.861 1
  22377120.037   -10503610.082 3  -8184594.264 2
  21303930.198   -11388620.807 4  -8874218.781 3
 91  4 24 22  9 15.0010000  0  6 19 11 15 16 06 02
  22510852.067     8511945.919 2   6632673.691 2
  24863821.139     6761911.417 2   5269028.486 1
  25123186.587     -563451.645 2   -439051.423 1
  25073382.654      547307.599 2    426439.903 1
  22373041.660   -10525057.049 3  -8201306.125 2
  21303818.674   -11389196.305 4  -8874667.204 3
 91  4 24 22  9 30.0010000  0  6 19 11 15 16 06 02
  22517170.791     8545192.111 2   6658579.752 2
  24873065.235     6810524.243 2   5306908.667 1
  25118656.423     -587294.304 2   -457630.295
  25080003.580      582093.351 2    453545.522 1
  22368963.596   -10546486.726 3  -8218004.516 2
  21303724.233   -11389709.643 4  -8875067.180 3
 91  4 24 22  9 45.0010000  0  6 19 11 15 16 06 02
  22523514.399     8578500.012 2   6684533.908 2
  24882334.825     6859222.336 2   5344855.264 1
  25114124.445     -611080.884 2   -476165.151 1
  25086632.290      616931.426 2    480691.840 1
  22364891.500   -10567899.806 3  -8234689.973 2
  21303634.905   -11390161.670 4  -8875419.375 3
 91  4 24 22 10  0.0010000  0  6 19 11 15 16 06 02
  22529861.898     8611871.937 2   6710537.953 2
  24891613.403     6908007.540 2   5382869.712 1
  25109611.086     -634808.637 2   -494654.081 1
  25093274.785      651823.492 2    507880.314 1
  22360816.735   -10589293.933 3  -8251360.671 2
  21303564.441   -11390550.225 4  -8875722.122 3
 91  4 24 22 10 15.0010000  0  6 19 11 15 16 06 02
  22536221.106     8645305.557 2   6736590.076 2
  24900916.847     6956877.098 2   5420949.923 1
  25105112.088     -658479.662 2   -513098.825 1
  25099925.080      686766.920 2    535108.861 1
  22356746.454   -10610671.270 3  -8268018.266 2
  21303502.999   -11390877.718 4  -8875977.292 3
 91  4 24 22 10 30.0010000  0  6 19 11 15 16 06 02
  22542601.586     8678800.465 2   6762689.942 1
  24910231.110     7005830.340 2   5459095.284 1
  25100609.216     -682094.051 2   -531499.487 1
  25106571.781      721761.113 2    562376.851 1
  22352683.363   -10632031.993 3  -8284662.923 2
  21303451.120   -11391144.771 4  -8876185.354 3
 91  4 24 22 10 45.0010000  0  6 19 11 15 16 06 02
  22548986.865     8712355.576 2   6788836.730 2
  24919566.348     7054865.882 2   5497304.827 1
  25096131.508     -705652.546 2   -549856.565 1
  25113251.759      756804.489 2    589683.609 1
  22348621.179   -10653377.173 3  -8301295.489 2
  21303410.949   -11391352.564 4  -8876347.245 3
 91  4 24 22 11  0.0010000  0  6 19 11 15 16 06 02
  22555383.836     8745972.112 2   6815031.380 2
  24928910.277     7103984.563 2   5535579.182 1
  25091652.316     -729153.397 2   -568169.157 1
  25119928.736      791897.893 2    617029.009 1
  22344560.479   -10674705.352 3  -8317914.790 2
  21303382.470   -11391499.946 4  -8876462.063 3
 91  4 24 22 11 15.0010000  0  6 19 11 15 16 06 02
  22561797.890     8779649.549 2   6841273.490 1
  24938274.290     7153185.552 2   5573917.618 1
  25087176.702     -752596.823 2   -586436.526 1
  25126614.107      827040.408 2    644412.540 1
  22340510.894   -10696016.986 3  -8334521.187 2
  21303365.387   -11391587.385 4  -8876530.164 3
 91  4 24 22 11 30.0010000  0  6 19 11 15 16 06 02
  22568216.150     8813387.913 2   6867563.069 2
  24947652.701     7202468.358 2   5612319.787 1
  25082733.178     -775982.398 2   -604658.844 1
  25133315.671      862231.272 2    671833.829 1
  22336458.587   -10717311.957 3  -8351114.618 2
  21303359.087   -11391615.087 4  -8876551.718 3
 91  4 24 22 11 45.0010000  0  6 19 11 15 16 06 02
  22574641.006     8847188.953 2   6893901.481 1
  24957046.100     7251834.449 2   5650786.882 1
  25078303.755     -799308.077 2   -622834.586 1
  25140016.327      897472.453 2    699294.250 1
  22332402.999   -10738588.296 3  -8367693.525 2
  21303365.980   -11391581.396 4  -8876525.444 3
 91  4 24 22 12  0.0010000  0  6 19 11 15 16 06 02
  22581087.431     8881052.442 2   6920288.566 2
  24966456.287     7301283.156 2   5689318.312 1
  25073868.014     -822573.844 2   -640963.523 1
  25146734.679      932762.990 2    726793.248 1
  22328360.901   -10759846.293 3  -8384258.129 2
  21303386.065   -11391486.753 4  -8876451.669 3
 91  4 24 22 12 15.0010000  0  6 19 11 15 16 06 02
  22587547.362     8914978.776 2   6946724.626 2
  24975876.962     7350814.431 2   5727914.119 1
  25069459.269     -845779.040 2   -659045.266 1
  25153452.123      968103.003 2    754330.696 1
  22324317.301   -10781085.332 3  -8400807.982 2
  21303414.247   -11391330.831 4  -8876330.133 3
 91  4 24 22 12 30.0010000  0  6 19 11 15 16 06 02
  22594008.793     8948967.271 2   6973209.103 1
  24985325.819     7400427.273 2   5766573.502 1
  25065050.820     -868923.874 2   -677079.964 1
  25160199.249     1003491.605 2    781906.079 1
  22320280.298   -10802305.821 3  -8417343.372 2
  21303456.529   -11391114.298 4  -8876161.388 3
 91  4 24 22 12 45.0010000  0  6 19 11 15 16 06 02
  22600487.606     8983017.228 2   6999741.488 2
  24994775.583     7450120.732 2   5805295.667 1
  25060673.555     -892008.599 2   -695067.851 1
  25166933.498     1038927.543 2    809518.270 1
  22316244.481   -10823508.444 3  -8433864.838 2
  21303507.780   -11390837.909 4  -8875945.992 3
 91  4 24 22 13  0.0010000  0  5 19 11 15 06 02
  22606981.704     9017128.246 2   7026321.440 2
  25004240.319     7499893.840 2   5844079.889 1
  25056290.898     -915033.049 2   -713008.814 1
  22312209.886   -10844693.640 3  -8450372.736 2
  21303571.648   -11390502.317 4  -8875684.466 3
 91  4 24 22 13 15.0010000  0  5 19 11 15 06 02
  22613479.415     9051301.638 2   7052950.000 2
  25013730.550     7549747.666 2   5882927.051 1
  25051909.131     -937995.897 2   -730901.721 1
  22308186.966   -10865859.813 3  -8466865.789 2
  21303648.098   -11390106.173 4  -8875375.751 3
 91  4 24 22 13 30.0010000  0  5 19 11 15 06 02
  22619995.099     9085536.808 2   7079626.698 2
  25023227.081     7599681.205 2   5921836.329 1
  25047561.235     -960897.355 2   -748746.835 1
  22304159.246   -10887007.418 3  -8483344.389 2
  21303732.941   -11389650.223 4  -8875020.444 3
 91  4 24 22 13 45.0010000  0  5 19 11 15 06 02
  22626526.384     9119832.966 2   7106350.918 2
  25032748.181     7649693.278 2   5960806.780 1
  25043219.341     -983737.767 2   -766544.337 1
  22300143.235   -10908137.169 3  -8499809.076 2
  21303831.273   -11389135.355 4  -8874619.218 3
 91  4 24 22 14  0.0010000  0  5 19 11 15 06 02
  22633062.154     9154189.997 2   7133122.572 2
  25042282.195     7699783.400 2   5999838.028 1
  25038885.248    -1006517.029 2   -784294.230 1
  22296122.723   -10929248.972 3  -8516259.776 2
  21303940.389   -11388561.738 4  -8874172.233 3
 91  4 24 22 14 15.0010000  0  5 19 11 15 06 02
  22639606.928     9188607.396 2   7159941.259 2
  25051835.683     7749950.691 2   6038929.424 1
  25034550.544    -1029235.266 2   -801996.570 1
  22292108.789   -10950343.201 3  -8532696.774 2
  21304060.307   -11387930.060 4  -8873679.979 3
 91  4 24 22 14 30.0010000  0  5 19 11 15 06 02
  22646175.678     9223085.308 2   7186807.109 2
  25061399.048     7800194.959 2   6078080.782 1
  25030243.429    -1051891.876 2   -819650.899 1
  22288099.671   -10971419.611 3  -8549119.901 2
  21304191.916   -11387240.255 4  -8873142.433 3
 91  4 24 22 14 45.0010000  0  5 19 11 15 06 02
  22652749.821     9257624.368 2   7213720.604 2
  25070980.422     7850516.551 2   6117292.414 1
  25025942.300    -1074485.927 2   -837256.446 1
  22284094.741   -10992477.294 3  -8565528.442 2
  21304334.013   -11386491.685 4  -8872559.109 3
 91  4 24 22 15  0.0010000  0  5 19 11 15 06 02
  22659328.169     9292223.016 2   7240680.523 2
  25080565.687     7900913.522 2   6156562.778 1
  25021671.149    -1097018.539 2   -854814.160 1
  22280086.513   -11013517.804 3  -8581923.593 2
  21304488.413   -11385686.070 4  -8871931.326 3
 91  4 24 22 15 15.0010000  0  5 19 11 15 06 02
  22665921.804     9326880.303 2   7267686.159 2
  25090165.941     7951384.428 2   6195890.751 1
  25017376.633    -1119490.553 2   -872324.618 1
  22276088.180   -11034541.920 3  -8598305.964 2
  21304651.799   -11384824.496 4  -8871259.943 3
 91  4 24 22 15 30.0010000  0  5 19 11 15 06 02
  22672529.835     9361597.516 2   7294738.473 2
  25099780.279     8001930.257 2   6235277.122 1
  25013121.677    -1141900.105 2   -889786.424 1
  22272090.754   -11055548.186 3  -8614674.424 2
  21304827.471   -11383905.692 4  -8870543.976 3
 91  4 24 22 15 45.0010000  0  6 19 11 15 13 06 02
  22679156.154     9396375.384 2   7321838.050 2
  25109413.218     8052551.458 2   6274722.218 1
  25008862.829    -1164246.039 2   -907198.671 1
  25020910.878           0.281 2         0.037 1
  22268094.218   -11076535.734 3  -8631028.328 2
  21305013.647   -11382929.108 4  -8869782.966 3
 91  4 24 22 16  0.0010000  0  5 19 11 15 06 02
  22685776.766     9431214.313 2   7348985.191 2
  25119060.535     8103248.123 2   6314226.138 1
  25004622.252    -1186527.593 2   -924560.718 1
  22264106.372   -11097503.927 3  -8647367.120 2
  21305208.810   -11381894.390 4  -8868976.659 3
 91  4 24 22 16 15.0010000  0  6 19 11 15 13 06 02
  22692419.262     9466114.714 2   7376180.251 2
  25128726.141     8154020.292 2   6353788.891 1
  25000396.978    -1208744.061 2   -941872.091 1
  25000017.157      -43955.583 2    -34251.291 1
  22260119.137   -11118452.125 3  -8663690.343 2
  21305418.370   -11380801.105 4  -8868124.725 3
 91  4 24 22 16 30.0010000  0  5 19 11 15 06 02
  22699081.545     9501076.492 2   7403423.139 2
  25138399.251     8204867.315 2   6393409.926 1
  24996172.019    -1230895.455 2   -959132.679 1
  22256136.997   -11139380.622 3  -8679998.224 2
  21305636.916   -11379649.749 4  -8867227.533 3
 91  4 24 22 16 45.0010000  0  5 19 11 15 06 02
  22705738.140     9536099.352 2   7430713.605 1
  25148091.538     8255788.679 2   6433088.892 1
  24991978.208    -1252981.304 2   -976342.308 1
  22252156.655   -11160289.348 3  -8696290.688 2
  21305867.155   -11378440.482 4  -8866285.221 3
 91  4 24 22 17  0.0010000  0  5 19 11 15 06 02
  22712415.117     9571181.926 2   7458050.615 2
  25157793.719     8306782.615 2   6472824.447 1
  24987782.024    -1275003.016 2   -993501.875 1
  22248182.909   -11181179.653 3  -8712568.802 2
  21306107.584   -11377174.874 4  -8865299.006 3
 91  4 24 22 17 15.0010000  0  5 19 11 15 06 02
  22719101.395     9606323.121 2   7485433.296 1
  25167508.203     8357847.619 2   6512615.371 1
  24983605.611    -1296961.004 2  -1010611.862 1
  22244212.461   -11202052.260 3  -8728833.122 2
  21306357.314   -11375854.049 4  -8864269.763 3
 91  4 24 22 17 30.0010000  0  5 19 11 15 06 02
  22725797.864     9641526.162 2   7512864.177 2
  25177240.957     8408986.633 2   6552463.963
  24979440.890    -1318851.711 2  -1027669.353 1
  22240242.902   -11222903.804 3  -8745081.023 2
  21306621.126   -11374474.662 4  -8863194.896 3
 91  4 24 22 17 45.0010000  0  5 19 11 15 06 02
  22732513.213     9676788.134 2   7540340.973 1
  25186987.515     8460196.306 2   6592367.593 1
  24975283.079    -1340677.898 2  -1044676.639 1
  22236277.253   -11243737.306 3  -8761314.881 2
  21306895.740   -11373039.977 4  -8862076.937 3
 91  4 24 22 18  0.0010000  0  5 19 11 15 06 02
  22739234.252     9712111.951 2   7567865.948 2
  25196745.450     8511479.220 2   6632328.377 1
  24971138.739    -1362436.086 2  -1061630.932 1
  22232316.385   -11264549.498 3  -8777532.117 2
  21307178.451   -11371547.213 4  -8860913.706 3
 91  4 24 22 18 15.0010000  0  5 19 11 15 06 02
  22745969.094     9747496.185 2   7595438.022 2
  25206520.782     8562833.414 2   6672344.633 1
  24967015.392    -1384127.512 2  -1078533.164 1
  22228360.020   -11285341.821 3  -8793733.880 2
  21307474.337   -11369998.015 4  -8859706.514 3
 91  4 24 22 18 30.0010000  0  5 19 11 15 06 02
  22752717.424     9782940.521 2   7623056.915 2
  25216305.416     8614258.486 2   6712416.112 1
  24962906.442    -1405752.068 2  -1095383.347 1
  22224406.969   -11306114.244 3  -8809920.152 2
  21307778.041   -11368392.424 4  -8858455.381 3
 91  4 24 22 18 45.0010000  0  5 19 11 15 06 02
  22759472.945     9818444.420 2   7650722.241 2
  25226103.539     8665753.458 2   6752542.118 1
  24958800.179    -1427309.794 2  -1112181.446 1
  22220461.999   -11326867.157 3  -8826091.201 2
  21308094.308   -11366731.026 4  -8857160.764 3
 91  4 24 22 19  0.0010000  0  5 19 11 15 06 02
  22766240.453     9854013.674 2   7678438.486 2
  25235916.041     8717323.705 2   6792726.754 1
  24954716.409    -1448794.909 2  -1128922.873 1
  22216512.526   -11347594.713 3  -8842242.483 2
  21308424.083   -11365008.471 4  -8855818.489 3
 91  4 24 22 19 15.0010000  0  5 19 11 15 06 02
  22773021.468     9889647.250 2   7706204.823 2
  25245743.532     8768967.875 2   6832969.008 1
  24950635.937    -1470207.837 2  -1145608.137
  22212575.355   -11368297.708 3  -8858374.644 2
  21308760.156   -11363225.748 4  -8854429.332 3
 91  4 24 22 19 30.0010000  0  5 19 11 15 06 02
  22779815.658     9925346.032 2   7734021.997 2
  25255578.231     8820686.418 2   6873269.140 1
  24946568.955    -1491547.313 2  -1162236.125 1
  22208639.075   -11388975.238 3  -8874486.951 2
  21309113.611   -11361381.942 4  -8852992.567 3
 91  4 24 22 19 45.0010000  0  5 19 11 15 06 02
  22786617.055     9961105.891 2   7761886.756 1
  25265435.998     8872474.825 2   6913623.811 1
  24942530.747    -1512817.414 2  -1178810.095 1
  22204708.501   -11409631.105 3  -8890582.390 2
  21309474.551   -11359481.409 4  -8851511.602 3
 91  4 24 22 20  0.0010000  0  5 19 11 15 06 02
  22793426.531     9996925.301 2   7789797.939 1
  25275308.162     8924331.199 2   6954031.366 1
  24938492.244    -1534019.105 2  -1195330.686 1
  22200786.320   -11430266.784 3  -8906662.101 2
  21309844.810   -11357525.795 4  -8849987.734 3
 91  4 24 22 20 15.0010000  0  5 19 11 15 06 02
  22800260.316    10032806.572 2   7817757.290 1
  25285194.426     8976257.548 2   6994493.449 1
  24934477.123    -1555149.674 2  -1211795.908 1
  22196858.730   -11450879.723 3  -8922724.092 2
  21310229.133   -11355512.789 4  -8848419.134 3
 91  4 24 22 20 30.0010000  0  6 19 11 15 13 06 02
  22807097.067    10068748.793 2   7845764.136 1
  25295083.971     9028252.734 2   7035009.171 1
  24930469.192    -1576209.428 2  -1228205.981 1
  24822451.280      -10936.72912     -8522.529 1
  22192943.145   -11471470.561 3  -8938768.839 2
  21310624.555   -11353443.201 4  -8846806.438 3
 91  4 24 22 20 45.0010000  0  6 19 11 15 13 06 02
  22813949.436    10104750.839 2   7873817.612 1
  25304996.322     9080315.200 2   7075577.356 1
  24926480.456    -1597199.308 2  -1244561.542 1
  24812014.601      -65737.447 2    -51224.433 1
  22189027.857   -11492040.235 3  -8954797.111 2
  21311026.887   -11351318.299 4  -8845150.657 3
 91  4 24 22 21  0.0010000  0  6 19 11 15 13 06 02
  22820811.088    10140813.396 2   7901918.240 2
  25314908.360     9132445.276 2   7116198.198 1
  24922490.516    -1618118.291 2  -1260861.925 1
  24801585.426     -120527.160 2    -93917.851 1
  22185117.665   -11512588.016 3  -8970808.310 2
  21311443.895   -11349137.507 4  -8843451.310 3
 91  4 24 22 21 15.0010000  0  6 19 11 15 13 06 02
  22827686.823    10176935.076 2   7930064.938 1
  25324838.372     9184641.010 2   7156870.211 1
  24918526.368    -1638967.608 2  -1277107.986 1
  24791160.439     -175307.085 2   -136603.585
  22181212.271   -11533115.321 3  -8986803.563 2
  21311867.796   -11346902.483 4  -8841709.707 3
 91  4 24 22 21 30.0010000  0  6 19 11 15 13 06 02
  22834575.157    10213116.328 2   7958258.054 2
  25334786.392     9236902.511 2   7197593.485 1
  24914571.799    -1659746.341 2  -1293299.017 1
  24780728.559     -230075.988 2   -179280.734 1
  22177308.361   -11553621.316 3  -9002782.216 2
  21312303.092   -11344612.814 4  -8839925.538 3
 91  4 24 22 21 45.0010000  0  6 19 11 15 13 06 02
  22841470.680    10249359.503 2   7986499.429 1
  25344747.901     9289231.859 2   7238369.634 1
  24910634.629    -1680452.158 2  -1309433.319 1
  24770316.765     -284831.341 2   -221947.220 1
  22173411.361   -11574103.494 3  -9018742.292 2
  21312747.688   -11342266.220 4  -8838097.006 3
 91  4 24 22 22  0.0010000  0  6 19 11 15 13 06 02
  22848377.895    10285661.640 2   8014786.729 1
  25354718.100     9341625.807 2   7279196.054 1
  24906709.447    -1701087.300 2  -1325512.514 1
  24759898.374     -339575.715 2   -264605.319 1
  22169518.863   -11594564.745 3  -9034686.068 2
  21313204.570   -11339865.692 4  -8836226.449 3
 91  4 24 22 22 15.0010000  0  6 19 11 15 13 06 02
  22855294.411    10322024.497 2   8043121.359 1
  25364697.880     9394085.633 2   7320073.821 1
  24902789.657    -1721649.648 2  -1341534.959 1
  24749484.485     -394307.028 2   -307253.099 1
  22165630.256   -11615002.951 3  -9050611.900 2
  21313672.550   -11337409.534 4  -8834312.538 3
 91  4 24 22 22 30.0010000  0  6 19 11 15 13 06 02
  22862228.604    10358448.461 2   8071503.588 1
  25374690.869     9446611.451 2   7361003.071 1
  24898895.047    -1742138.217 2  -1357500.280 1
  24739068.799     -449024.262 2   -349890.114 1
  22161744.948   -11635417.586 3  -9066519.359 2
  21314151.017   -11334897.412 4  -8832355.021 3
 91  4 24 22 22 45.0010000  0  6 19 11 15 13 06 02
  22869166.706    10394930.974 2   8099931.467 1
  25384696.440     9499200.453 2   7401981.562 1
  24894997.454    -1762555.474 2  -1373409.811 2
  24728660.303     -503729.550 2   -392517.613 1
  22157860.826   -11655811.044 3  -9082410.297 2
  21314639.990   -11332332.063 4  -8830356.033 3
 91  4 24 22 23  0.0010000  0  6 19 11 15 13 06 02
  22876121.595    10431472.356 2   8128405.179 1
  25394718.798     9551852.592 2   7443009.218 1
  24891130.730    -1782900.650 2  -1389262.991 1
  24718241.616     -558422.291 2   -435135.436 1
  22153984.522   -11676182.813 3  -9098284.359 2
  21315137.932   -11329713.084 4  -8828315.251 3
 91  4 24 22 23 15.0010000  0  6 19 11 15 13 06 02
  22883084.564    10468071.137 2   8156923.667 2
  25404755.256     9604566.017 2   7484084.572 1
  24887269.398    -1803174.852 2  -1405060.878 1
  24707842.717     -613103.572 2   -477744.320 1
  22150112.388   -11696534.145 3  -9114142.481 2
  21315647.286   -11327041.954 4  -8826233.832 3
 91  4 24 22 23 30.0010000  0  6 19 11 15 13 06 02
  22890069.432    10504726.027 2   8185485.851 2
  25414796.199     9657338.988 2   7525206.331 1
  24883425.761    -1823378.830 2  -1420804.099 1
  24697443.521     -667774.344 2   -520344.974 1
  22146242.977   -11716866.254 3  -9129985.633 2
  21316165.924   -11324320.206 4  -8824112.974 3
 91  4 24 22 23 45.0010000  0  6 19 11 15 13 06 02
  22897049.205    10541439.934 2   8214094.010 2
  25424850.944     9710174.144 2   7566376.568 1
  24879594.408    -1843509.596 2  -1436490.188 1
  24687034.117     -722431.385 2   -562934.944 1
  22142379.848   -11737176.068 3  -9145811.414 2
  21316692.066   -11321545.066 4  -8821950.507 3
 91  4 24 22 24  0.0010000  0  6 19 11 15 13 06 02
  22904047.266    10578213.034 2   8242748.292 1
  25434908.377     9763071.137 2   7607595.036 1
  24875766.057    -1863566.606 2  -1452118.936 1
  24676643.612     -777074.187 2   -605513.799 1
  22138517.923   -11757463.326 3  -9161619.605 2
  21317229.585   -11318716.456 4  -8819746.389 3
 91  4 24 22 24 15.0010000  0  6 19 11 15 13 06 02
  22911055.203    10615047.044 2   8271450.068 1
  25444995.196     9816031.294 2   7648862.718 1
  24871976.097    -1883547.742 2  -1467688.536 1
  24666248.011     -831700.614 2   -648079.922 1
  22134660.500   -11777726.166 3  -9177408.779 2
  21317781.814   -11315832.948 4  -8817499.477 3
 91  4 24 22 24 30.0010000  0  6 19 11 15 13 06 02
  22918074.554    10651940.638 2   8300198.255 2
  25455085.610     9869053.171 2   7690178.479 1
  24868184.322    -1903453.966 2  -1483199.666 1
  24655858.710     -886311.401 2   -690634.032 1
  22130814.751   -11797965.482 3  -9193179.614 2
  21318338.214   -11312895.683 4  -8815210.674 3
 91  4 24 22 24 45.0010000  0  6 19 11 15 13 06 02
  22925105.874    10688894.034 2   8328993.021 1
  25465184.418     9922136.456 2   7731542.164 1
  24864412.021    -1923284.921 2  -1498652.273 1
  24645465.203     -940906.119 2   -733175.247 1
  22126965.425   -11818181.029 3  -9208931.933 2
  21318906.620   -11309904.612 4  -8812879.956 3
 91  4 24 22 25  0.0010000  0  6 19 11 15 13 06 02
  22932145.606    10725906.052 2   8357833.493 1
  25475298.826     9975279.591 2   7772952.434 1
  24860657.729    -1943041.289 2  -1514046.623 1
  24635072.901     -995485.539 2   -775704.813 1
  22123120.583   -11838373.705 3  -9224666.447 2
  21319489.126   -11306861.012 4  -8810508.302 3
 91  4 24 22 25 15.0010000  0  6 19 11 15 13 06 02
  22939204.813    10762981.020 2   8386723.020 1
  25485422.517    10028486.589 2   7814412.492 1
  24856909.125    -1962718.424 2  -1529379.308 1
  24624693.476    -1050044.701 2   -818218.611 1
  22119281.134   -11858539.057 3  -9240379.661 2
  21320075.820   -11303760.599 4  -8808092.377 3
 91  4 24 22 25 30.0010000  0  6 19 11 15 13 06 02
  22946280.527    10800116.086 2   8415659.361 1
  25495556.993    10081754.619 2   7855920.081 1
  24853168.915    -1982318.609 2  -1544651.985 1
  24614320.665    -1104586.077 2   -860718.340 1
  22115454.284   -11878679.704 3  -9256073.616 2
  21320678.707   -11300606.072 4  -8805634.278 3
 91  4 24 22 25 45.0010000  0  6 19 11 15 13 06 02
  22953357.725    10837311.340 2   8444642.597 1
  25505711.868    10135083.138 1   7897474.806 1
  24849470.673    -2001841.833 2  -1559864.735 1
  24603945.150    -1159109.646 2   -903204.366 1
  22111618.150   -11898795.377 3  -9271748.115 2
  21321287.284   -11297397.548 4  -8803134.118 3
 91  4 24 22 26  0.0010000  0  6 19 11 15 13 06 02
  22960438.814    10874564.391 2   8473670.881 2
  25515868.540    10188469.456 2   7939074.556 1
  24845768.540    -2021289.792 2  -1575018.857
  24593578.621    -1213616.925 2   -945677.802 1
  22107795.785   -11918887.964 3  -9287404.620 2
  21321911.147   -11294137.297 4  -8800593.641 3
 91  4 24 22 26 15.0010000  0  6 19 11 15 13 06 02
  22967544.507    10911876.399 2   8502745.112 2
  25526040.482    10241914.291 2   7980719.903 1
  24842068.797    -2040661.072 2  -1590113.285 1
  24583206.107    -1268106.359 2   -988137.018 1
  22103979.125   -11938956.368 3  -9303042.293 2
  21322538.918   -11290824.395 4  -8798012.143 3
 91  4 24 22 26 30.0010000  0  6 19 11 15 13 06 02
  22974647.479    10949259.621 2   8531874.816 1
  25536225.947    10295429.405 2   8022420.011 1
  24838416.414    -2059943.078 2  -1605138.053 1
  24572826.089    -1322565.466 2  -1030572.858 1
  22100169.080   -11958988.244 3  -9318651.500 2
  21323183.459   -11287446.832 4  -8795380.265 3
 91  4 24 22 26 45.0010000  0  6 19 11 15 13 06 02
  22981779.837    10986705.826 2   8561053.610 1
  25546417.380    10349006.454 2   8064168.400 1
  24834746.965    -2079143.380 2  -1620099.231 1
  24562481.443    -1377001.948 2  -1072990.944 1
  22096364.706   -11978991.602 3  -9334238.485 2
  21323832.224   -11284012.743 4  -8792704.340 3
 91  4 24 22 27  0.0010000  0  6 19 11 15 13 06 02
  22988920.309    11024213.645 2   8590280.398 2
  25556620.522    10402643.719 2   8105963.735 1
  24831120.670    -2098263.211 2  -1634997.657 1
  24552123.326    -1431416.978 2  -1115392.440 1
  22092561.239   -11998967.731 3  -9349804.245 2
  21324497.164   -11280523.676 4  -8789985.564 3
 91  4 24 22 27 15.0010000  0  6 19 11 15 13 06 02
  22996071.251    11061783.468 2   8619555.515 1
  25566837.450    10456341.056 2   8147805.778 1
  24827503.083    -2117301.692 2  -1649832.702 1
  24541770.583    -1485809.643 2  -1157776.407 1
  22088762.571   -12018915.819 3  -9365348.162 2
  21325173.186   -11276979.331 4  -8787223.725 3
 91  4 24 22 27 30.0010000  0  6 19 11 15 13 06 02
  23003228.789    11099414.045 2   8648877.963 1
  25577063.662    10510097.023 2   8189693.659 1
  24823893.872    -2136259.964 2  -1664605.359 1
  24531431.346    -1540180.801 2  -1200143.607 1
  22084971.999   -12038836.964 3  -9380871.081 2
  21325857.915   -11273380.948 4  -8784419.772 3
 91  4 24 22 27 45.0010000  0  6 19 11 15 13 06 02
  23010403.132    11137105.047 2   8678247.496 1
  25587306.381    10563910.823 2   8231626.524 1
  24820288.866    -2155137.995 2  -1679315.338 1
  24521077.713    -1594530.287 2  -1242494.012 1
  22081188.303   -12058731.262 3  -9396373.094 2
  21326554.632   -11269728.918 4  -8781574.018 3
 91  4 24 22 28  0.0010000  0  6 19 11 15 13 06 02
  23017578.958    11174856.169 2   8707663.905 1
  25597558.088    10617782.052 2   8273604.153 1
  24816718.045    -2173935.521 2  -1693962.643
  24510742.071    -1648858.075 2  -1284827.403 1
  22077407.330   -12078598.821 3  -9411854.257 2
  21327259.743   -11266023.322 4  -8778686.522 3
 91  4 24 22 28 15.0010000  0  6 19 11 15 13 06 02
  23024779.372    11212668.780 2   8737128.183 1
  25607823.579    10671711.604 2   8315627.189 1
  24813157.102    -2192650.733 2  -1708545.773 1
  24500403.725    -1703162.433 2  -1327142.686 1
  22073635.937   -12098438.096 3  -9427313.395 2
  21327972.654   -11262262.962 4  -8775756.359 3
 91  4 24 22 28 30.0010000  0  6 19 11 15 13 06 02
  23031993.885    11250543.015 2   8766640.498 1
  25618097.762    10725699.138 2   8357695.344 1
  24809599.177    -2211283.242 2  -1723064.466 1
  24490078.867    -1757442.600 2  -1369439.002 1
  22069863.060   -12118248.644 3  -9442750.138 2
  21328699.944   -11258447.847 4  -8772783.521 3
 91  4 24 22 28 45.0010000  0  6 19 11 15 13 06 02
  23039210.789    11288479.495 2   8796201.319 1
  25628385.136    10779744.868 2   8399808.852 1
  24806085.000    -2229832.195 2  -1737518.139 1
  24479756.121    -1811698.039 2  -1411716.092 1
  22066097.966   -12138029.733 3  -9458163.924 2
  21329436.239   -11254577.740 4  -8769767.839 3
 91  4 24 22 29  0.0010000  0  5 19 15 13 06 02
  23046440.589    11326477.132 2   8825809.791 1
  24802564.540    -2248298.340 2  -1751907.526 1
  24469428.558    -1865929.232 2  -1453974.264 1
  22062339.154   -12157782.396 3  -9473555.567 2
  21330183.928   -11250653.578 4  -8766710.034 3
 91  4 24 22 29 15.0010000  0  5 19 15 13 06 02
  23053679.672    11364535.061 2   8855465.274 1
  24799074.357    -2266682.251 2  -1766232.771 1
  24459122.006    -1920136.522 2  -1496213.745 1
  22058583.955   -12177507.357 3  -9488925.616 2
  21330939.401   -11246676.276 4  -8763610.821 3
 91  4 24 22 29 30.0010000  0  5 19 15 13 06 02
  23060929.854    11402653.555 2   8885167.924 1
  24795584.174    -2284983.131 2  -1780493.042 1
  24448804.041    -1974319.426 2  -1538434.346 1
  22054840.743   -12197203.708 3  -9504273.371 2
  21331708.362   -11242645.595 4  -8760470.003 3
 91  4 24 22 29 45.0020000  0  5 19 15 13 06 02
  23068202.514    11440834.503 2   8914919.250 1
  24792120.972    -2303202.368 2  -1794689.730 1
  24438504.978    -2028481.540 2  -1580638.655 1
  22051094.237   -12216873.387 3  -9519600.358 2
  21332484.830   -11238561.926 4  -8757287.910 3
 91  4 24 22 30  0.0020000  0  5 19 15 13 06 02
  23075473.078    11479075.928 2   8944717.707 1
  24788674.257    -2321334.266 2  -1808818.365 1
  24428202.003    -2082612.225 2  -1622818.514 1
  22047355.231   -12236510.683 3  -9534902.103 2
  21333273.283   -11234422.951 4  -8754062.721 3
 91  4 24 22 30 15.0020000  0  5 19 15 13 06 02
  23082768.525    11517379.647 2   8974564.694 1
  24785218.242    -2339380.581 2  -1822880.396 1
  24417901.140    -2136715.521 2  -1664976.998 1
  22043627.306   -12256117.456 3  -9550180.053 2
  21334068.333   -11230229.367 4  -8750794.969 3
 91  4 24 22 30 30.0020000  0  5 19 15 13 06 02
  23090067.271    11555744.772 2   9004459.512 1
  24781798.819    -2357342.006 2  -1836876.154 1
  24407611.654    -2190791.600 2  -1707114.397 1
  22039899.102   -12275694.167 3  -9565434.595 2
  21334878.965   -11225981.877 4  -8747485.218 3
 91  4 24 22 30 45.0020000  0  5 19 15 13 06 02
  23097371.129    11594171.262 2   9034402.169 1
  24778417.752    -2375218.006 2  -1850805.419 1
  24397334.784    -2244840.094 2  -1749230.202 1
  22036183.759   -12295240.579 3  -9580665.523 2
  21335695.304   -11221680.466 4  -8744133.455 3
 91  4 24 22 31  0.0020000  0  5 19 15 13 06 02
  23104701.948    11632659.422 2   9064392.860 1
  24775031.904    -2393007.653 2  -1864667.355 1
  24387043.798    -2298860.532 2  -1791324.157 1
  22032467.246   -12314756.267 3  -9595872.515 2
  21336527.522   -11217324.948 4  -8740739.521 3
 91  4 24 22 31 15.0020000  0  5 19 15 13 06 02
  23112042.068    11671209.219 2   9094431.595 1
  24771662.529    -2410710.812 2  -1878461.991 1
  24376770.506    -2352852.627 2  -1833396.014 1
  22028759.703   -12334241.079 3  -9611055.452 2
  21337367.244   -11212915.357 4  -8737303.452 3
 91  4 24 22 31 30.0020000  0  5 19 15 13 06 02
  23119390.582    11709819.726 2   9124517.628 1
  24768309.958    -2428328.063 2  -1892189.585 1
  24366502.920    -2406816.465 2  -1875445.771 1
  22025056.366   -12353695.334 3  -9626214.556 2
  21338216.860   -11208452.502 4  -8733825.893 3
 91  4 24 22 31 45.0020000  0  5 19 15 13 06 02
  23126746.878    11748492.292 2   9154652.018 1
  24764973.267    -2445857.870 2  -1905849.057 1
  24356242.226    -2460750.514 2  -1917472.470 1
  22021362.626   -12373117.741 3  -9641348.849 2
  21339073.072   -11203935.353 4  -8730306.016 3
 91  4 24 22 32  0.0020000  0  5 19 15 13 06 02
  23134119.089    11787225.919 2   9184834.026 1
  24761647.064    -2463300.690 2  -1919440.726 1
  24345984.221    -2514655.550 2  -1959476.567 1
  22017670.980   -12392509.376 3  -9656459.181 2
  21339942.460   -11199365.090 4  -8726744.741 3
 91  4 24 22 32 15.0020000  0  5 19 15 13 06 02
  23141503.271    11826020.988 2   9215063.859 1
  24758344.261    -2480656.053 2  -1932964.285 1
  24335731.624    -2568530.878 2  -2001457.392 1
  22013988.338   -12411869.536 3  -9671544.974 2
  21340825.650   -11194741.330 4  -8723141.798 3
 91  4 24 22 32 30.0020000  0  5 19 15 13 06 02
  23148888.360    11864877.312 2   9245341.428 1
  24755059.432    -2497923.405 2  -1946419.275 1
  24325480.215    -2622376.076 2  -2043414.718 1
  22010309.588   -12431198.050 3  -9686606.102 2
  21341710.638   -11190064.400 4  -8719497.423 3
 91  4 24 22 32 45.0020000  0  5 19 15 13 06 02
  23156296.536    11903793.412 2   9275665.590 1
  24751794.391    -2515103.967 2  -1959806.693 1
  24315246.796    -2676192.416 2  -2085349.697 1
  22006636.527   -12450496.203 3  -9701643.593 2
  21342612.413   -11185335.907 4  -8715812.855 3
 91  4 24 22 33  0.0020000  0  5 19 15 13 06 02
  23163724.483    11942770.067 2   9306036.919 1
  24748537.151    -2532196.578 2  -1973125.493 1
  24305007.096    -2729978.660 2  -2127261.293 1
  22002971.562   -12469762.983 3  -9716656.636 2
  21343519.283   -11180554.975 4  -8712087.448 3
 91  4 24 22 33 15.0020000  0  5 19 15 13 06 02
  23171142.849    11981808.078 2   9336456.072 1
  24745304.184    -2549200.063 2  -1986374.833 1
  24294778.180    -2783733.526 2  -2169148.120 1
  21999311.990   -12488997.385 3  -9731644.440 2
  21344444.145   -11175720.815 4  -8708320.560 3
 91  4 24 22 33 30.0020000  0  5 19 15 13 06 02
  23178584.006    12020907.211 2   9366922.840 1
  24742087.411    -2566114.581 2  -1999554.896 1
  24284551.951    -2837456.726 2  -2211010.504 1
  21995657.530   -12508199.528 3  -9746607.109 2
  21345369.914   -11170833.685 4  -8704512.381 3
 91  4 24 22 33 45.0020000  0  5 19 15 13 06 02
  23186041.043    12060068.394 2   9397437.980 1
  24738874.826    -2582938.764 2  -2012664.620 1
  24274332.021    -2891146.713 2  -2252847.062 1
  21992011.150   -12527368.041 3  -9761543.565 2
  21346312.749   -11165892.610 4  -8700662.173 3
 91  4 24 22 34  0.0020000  0  5 19 15 13 06 02
  23193506.176    12099290.901 2   9428000.891 1
  24735693.442    -2599673.028 2  -2025704.141 1
  24264120.799    -2944804.037 2  -2294658.069 1
  21988370.773   -12546503.414 3  -9776454.206 2
  21347262.198   -11160898.648 4  -8696770.753 3
 91  4 24 22 34 15.0020000  0  5 19 15 13 06 02
  23200978.499    12138575.151 2   9458611.906 1
  24732527.920    -2616316.563 2  -2038673.061 1
  24253921.566    -2998427.913 2  -2336442.819 1
  21984731.582   -12565605.285 3  -9791338.752 2
  21348220.930   -11155851.281 4  -8692837.725 3
 91  4 24 22 34 30.0020000  0  5 19 15 13 06 02
  23208465.218    12177919.751 2   9489269.946 1
  24729376.812    -2632870.215 2  -2051571.882 1
  24243719.628    -3052019.164 2  -2378202.462 1
  21981102.007   -12584674.626 3  -9806197.938 2
  21349191.058   -11150751.999 4  -8688864.234 3
 91  4 24 22 34 45.0020000  0  5 19 15 13 06 02
  23215960.331    12217326.581 2   9519976.482 1
  24726252.368    -2649331.860 2  -2064399.089 1
  24233528.770    -3105575.571 2  -2419934.885 1
  21977482.605   -12603709.323 3  -9821030.117 2
  21350174.988   -11145598.791 4  -8684848.736 3
 91  4 24 22 35  0.0020000  0  5 19 15 13 06 02
  23223474.028    12256793.581 2   9550729.887 2
  24723133.630    -2665703.126 2  -2077155.835 1
  24223349.029    -3159098.925 2  -2461641.448 1
  21973864.704   -12622711.063 3  -9835836.627 2
  21351163.997   -11140393.933 4  -8680792.979 3
 91  4 24 22 35 15.0020000  0  5 19 15 13 06 02
  23230995.822    12296322.287 2   9581531.403 1
  24720045.465    -2681982.131 2  -2089840.619 1
  24213170.474    -3212587.098 2  -2503320.639 1
  21970253.713   -12641678.248 3  -9850616.214 2
  21352167.995   -11135135.926 4  -8676695.820 3
 91  4 24 22 35 30.0020000  0  5 19 15 13 06 02
  23238527.493    12335910.488 2   9612379.280 2
  24716960.912    -2698171.040 2  -2102455.355 1
  24202990.418    -3266041.804 2  -2544973.772 1
  21966652.599   -12660612.944 3  -9865370.483 2
  21353173.197   -11129827.098 4  -8672559.055 3
 91  4 24 22 35 45.0020000  0  5 19 15 13 06 02
  23246071.484    12375559.484 2   9643274.502 1
  24713894.333    -2714268.208 2  -2114998.497 1
  24192821.164    -3319461.343 2  -2586599.492 1
  21963054.800   -12679513.474 3  -9880098.121 2
  21354194.000   -11124466.030 4  -8668381.588 3
 91  4 24 22 36  0.0020000  0  5 19 15 13 06 02
  23253631.337    12415267.382 2   9674215.631 1
  24710847.543    -2730275.195 2  -2127471.407 1
  24182671.681    -3372847.420 2  -2628199.187 1
  21959466.878   -12698381.560 3  -9894800.484 2
  21355226.181   -11119054.784 4  -8664165.016 3
 91  4 24 22 36 15.0020000  0  5 19 15 13 06 02
  23261196.007    12455035.610 2   9705203.767 1
  24707813.037    -2746189.757 2  -2139872.221 1
  24172519.808    -3426198.008 2  -2669771.167 1
  21955883.755   -12717215.524 3  -9909476.250 2
  21356265.568   -11113591.857 4  -8659908.171 3
 91  4 24 22 36 30.0020000  0  5 19 15 13 06 02
  23268777.760    12494863.458 2   9736238.364 2
  24704812.420    -2762012.601 2  -2152201.676 1
  24162375.734    -3479513.347 2  -2711315.733 1
  21952302.429   -12736015.846 3  -9924125.821 2
  21357313.942   -11108078.211 4  -8655611.809 3
 91  4 24 22 36 45.0020000  0  5 19 15 13 06 02
  23276368.797    12534752.451 2   9767320.625 1
  24701815.694    -2777741.901 2  -2164458.152 1
  24152230.754    -3532791.696 2  -2752831.412 1
  21948733.406   -12754780.745 3  -9938747.781 2
  21358372.507   -11102512.286 4  -8651274.706 3
 91  4 24 22 37  0.0020000  0  5 19 15 13 06 02
  23283972.747    12574702.430 2   9798450.381 1
  24698847.150    -2793377.178 2  -2176641.410 1
  24142097.482    -3586032.688 2  -2794318.078 1
  21945170.682   -12773510.075 3  -9953342.031 2
  21359443.357   -11096894.341 4  -8646897.070 3
 91  4 24 22 37 15.0020000  0  5 19 15 13 06 02
  23291584.165    12614711.660 2   9829626.317 1
  24695884.888    -2808919.853 2  -2188752.479 1
  24131978.275    -3639237.542 2  -2835776.542 1
  21941612.740   -12792205.243 3  -9967909.662 2
  21360520.524   -11091226.018 4  -8642480.187 3
 91  4 24 22 37 30.0020000  0  5 19 15 13 06 02
  23299204.291    12654780.488 2   9860848.719 1
  24692946.935    -2824369.358 2  -2200790.987 1
  24121861.180    -3692405.480 2  -2877206.218 1
  21938062.895   -12810865.745 3  -9982450.265 2
  21361611.163   -11085506.917 4  -8638023.715 3
 91  4 24 22 37 45.0020000  0  5 19 15 13 06 02
  23306842.112    12694908.410 2   9892117.118 1
  24690017.061    -2839725.565 2  -2212756.747 1
  24111749.791    -3745536.505 2  -2918607.176 1
  21934516.644   -12829491.722 3  -9996963.972 2
  21362705.710   -11079737.653 4  -8633528.170 3
 91  4 24 22 38  0.0020000  0  5 19 15 13 06 02
  23314495.219    12735097.400 2   9923433.144 1
  24687116.573    -2854986.673 2  -2224648.479 1
  24101644.073    -3798628.556 2  -2959977.764 1
  21930979.991   -12848081.446 3 -10011449.431 2
  21363814.340   -11073916.528 4  -8628992.217 3
 91  4 24 22 38 15.0020000  0  5 19 15 13 06 02
  23322152.811    12775347.910 2   9954797.067 1
  24684231.965    -2870151.897 2  -2236465.428 1
  24091552.159    -3851680.696 2  -3001317.117 1
  21927449.341   -12866634.008 3 -10025905.929 2
  21364932.568   -11068043.123 4  -8624415.524 3
 91  4 24 22 38 30.0020000  0  5 19 15 13 06 02
  23329818.203    12815659.574 2   9986208.684 1
  24681368.349    -2885221.024 2  -2248207.560 1
  24081461.151    -3904692.964 2  -3042625.143 1
  21923928.288   -12885149.291 3 -10040333.384 2
  21366061.876   -11062117.676 4  -8619798.276 3
 91  4 24 22 38 45.0020000  0  5 19 15 13 06 02
  23337502.179    12856031.595 2  10017667.314 1
  24678510.719    -2900194.509 2  -2259875.090 1
  24071379.131    -3957665.471 2  -3083902.522 1
  21920408.422   -12903628.091 3 -10054732.400 2
  21367199.892   -11056141.085 4  -8615141.170 3
 91  4 24 22 39  0.0020000  0  5 19 15 13 06 02
  23345198.458    12896463.058 2  10049172.265 1
  24675676.786    -2915073.039 2  -2271468.643 1
  24061304.597    -4010598.704 2  -3125149.341 1
  21916900.544   -12922070.914 3 -10069103.392 2
  21368343.300   -11050114.305 4  -8610444.971 3
 91  4 24 22 39 15.0020000  0  5 19 15 13 06 02
  23352903.427    12936954.970 2  10080724.301 1
  24672873.129    -2929855.168 2  -2282987.118 1
  24051239.678    -4063491.391 2  -3166364.508 1
  21913400.170   -12940476.494 3 -10083445.362 2
  21369501.698   -11044036.387 4  -8605708.911 3
 91  4 24 22 39 30.0020000  0  5 19 15 13 06 02
  23360623.369    12977507.065 2  10112323.269 1
  24670067.675    -2944540.533 2  -2294430.169 1
  24041179.837    -4116343.055 2  -3207547.869 1
  21909901.890   -12958844.884 3 -10097758.353 2
  21370666.098   -11037907.400 4  -8600933.054 3
 91  4 24 22 39 45.0020000  0  5 19 15 13 06 02
  23368346.033    13018118.832 2  10143968.721 1
  24667303.282    -2959129.387 2  -2305797.973 1
  24031130.797    -4169153.997 2  -3248699.274 1
  21906414.412   -12977176.391 3 -10112042.607 2
  21371843.988   -11031728.133 4  -8596118.026 3
 91  4 24 22 40  0.0020000  0  5 19 15 13 06 02
  23376083.075    13058791.504 2  10175661.603 1
  24664532.606    -2973620.447 2  -2317089.650 1
  24021088.650    -4221922.620 2  -3289817.828 1
  21902933.216   -12995469.492 3 -10126296.939 2
  21373027.270   -11025497.651 4  -8591263.090 3
 91  4 24 22 40 15.0020000  0  5 19 15 13 06 02
  23383842.908    13099525.626 2  10207402.391 1
  24661799.989    -2988012.785 2  -2328304.374 1
  24011062.994    -4274647.819 2  -3330902.585 1
  21899459.226   -13013723.337 3 -10140520.669 2
  21374220.743   -11019215.094 4  -8586367.573 3
 91  4 24 22 40 30.0020000  0  5 19 15 13 06 02
  23391602.130    13140320.489 2  10239190.522 1
  24659083.566    -3002306.811 2  -2339442.538 1
  24001028.631    -4327330.039 2  -3371953.828 1
  21895993.020   -13031938.566 3 -10154714.317 2
  21375429.502   -11012881.308 4  -8581432.137 3
 91  4 24 22 40 45.0020000  0  5 19 15 13 06 02
  23399374.858    13181176.410 2  10271026.183 1
  24656385.745    -3016501.767 2  -2350503.455 1
  23991014.666    -4379968.643 2  -3412971.126 1
  21892533.113   -13050114.558 3 -10168877.394 2
  21376641.856   -11006496.007 4  -8576456.566 3
 91  4 24 22 41  0.0020000  0  4 19 15 13 06
  23407167.951    13222093.453 2  10302909.513 1
  24653699.598    -3030597.392 2  -2361487.017 1
  23981007.891    -4432562.910 2  -3453953.825 1
  21889082.507   -13068250.968 3 -10183009.609 2
 91  4 24 22 41 15.0020000  0  4 19 15 13 06
  23414965.563    13263071.493 2  10334840.404 1
  24651029.348    -3044593.322 2  -2372392.826 1
  23971008.009    -4485112.567 2  -3494901.720 1
  21885638.479   -13086347.556 3 -10197110.816 2
 91  4 24 22 41 30.0020000  0  5 19 15 13 06 02
  23422776.350    13304110.242 2  10366818.541 1
  24648390.578    -3058489.406 2  -2383220.825 1
  23961013.536    -4537617.556 2  -3535814.861 1
  21882202.270   -13104404.409 3 -10211181.049 2
  21380347.287      194214.05614    151369.285 3
 91  4 24 22 41 45.0020000  0  5 19 15 13 06 02
  23430594.345    13345210.620 2  10398844.729 1
  24645764.094    -3072284.375 2  -2393970.099 1
  23951035.240    -4590076.593 2  -3576692.220 1
  21878774.140   -13122420.312 3 -10225219.370 2
  21381601.923      200805.194 4    156505.249 3
 91  4 24 22 42  0.0020000  0  5 19 15 13 06 02
  23438421.012    13386372.329 2  10430918.690 1
  24643165.198    -3085978.400 2  -2404640.698 1
  23941060.242    -4642489.273 2  -3617533.403 1
  21875351.716   -13140395.332 3 -10239225.840 2
  21382866.453      207448.323 4    161681.721 3
 91  4 24 22 42 15.0020000  0  5 19 15 13 06 02
  23446274.988    13427597.237 2  10463041.893 1
  24640576.179    -3099569.238 2  -2415230.906
  23931087.355    -4694853.344 2  -3658336.750 1
  21871940.373   -13158327.322 3 -10253198.785 2
  21384139.970      214145.015 4    166899.931 3
 91  4 24 22 42 30.0020000  0  5 19 15 13 06 02
  23454125.946    13468885.025 2  10495214.131 1
  24638000.073    -3113056.903 2  -2425740.648 1
  23921133.053    -4747168.909 2  -3699102.230 1
  21868538.627   -13176216.427 3 -10267138.305 2
  21385426.086      220894.633 4    172159.383 3
 91  4 24 22 42 45.0020000  0  5 19 15 13 06 02
  23461992.207    13510235.049 2  10527434.815 1
  24635460.229    -3126441.664 2  -2436170.250 1
  23911197.318    -4799436.138 2  -3739830.128 1
  21865139.586   -13194062.869 3 -10281044.581 2
  21386719.374      227696.670 4    177459.673 3
 91  4 24 22 43  0.0020000  0  5 19 15 13 06 02
  23469883.039    13551647.927 2  10559704.481 1
  24632926.073    -3139722.466 2  -2446518.783 1
  23901256.208    -4851653.900 2  -3780519.483 1
  21861751.923   -13211865.962 3 -10294917.076 2
  21388024.371      234551.689 4    182801.269 3
 91  4 24 22 43 15.0020000  0  5 19 15 13 06 02
  23477775.074    13593123.208 2  10592022.794 1
  24630424.916    -3152899.623 2  -2456786.679 1
  23891323.788    -4903822.200 2  -3821170.218 1
  21858372.671   -13229625.884 3 -10308755.948 2
  21389338.966      241459.239 4    188183.794 3
 91  4 24 22 43 30.0020000  0  5 19 15 13 06 02
  23485680.599    13634660.795 2  10624389.643 1
  24627933.339    -3165972.842 2  -2466973.482 1
  23881410.250    -4955940.548 2  -3861782.049 1
  21854999.090   -13247342.381 3 -10322560.975 2
  21390664.048      248419.186 4    193607.125 3
 91  4 24 22 43 45.0020000  0  5 19 15 13 06 02
  23493592.423    13676262.090 2  10656806.153 1
  24625462.441    -3178940.402 2  -2477078.028 1
  23871505.401    -5008007.585 2  -3902353.921 1
  21851639.330   -13265013.750 3 -10336330.835 2
  21391997.820      255433.072 4    199072.493 3
 91  4 24 22 44  0.0020000  0  5 19 15 13 06 02
  23501536.024    13717924.574 2  10689270.352 1
  24623022.133    -3191804.156 2  -2487101.628 1
  23861602.961    -5060025.193 2  -3942887.296 1
  21848284.055   -13282642.183 3 -10350067.233 2
  21393342.691      262498.411 4    204577.965 3
 91  4 24 22 44 15.0020000  0  5 19 15 13 06 02
  23509457.149    13759649.566 2  10721783.205 1
  24620588.420    -3204562.519 2  -2497043.165 1
  23851703.802    -5111991.374 2  -3983380.546 1
  21844938.063   -13300226.116 3 -10363768.965 2
  21394695.956      269616.424 4    210124.475 3
 91  4 24 22 44 30.0020000  0  5 19 15 13 06 02
  23517413.942    13801435.194 2  10754343.349 1
  24618188.579    -3217217.114 2  -2506903.792 1
  23841827.450    -5163907.620 2  -4023834.960
  21841600.778   -13317766.999 3 -10377437.155 2
  21396061.819      276785.296 4    215710.619 3
 91  4 24 22 44 45.0020000  0  5 19 15 13 06 02
  23525371.032    13843281.160 2  10786950.495 1
  24615797.742    -3229768.004 2  -2516683.602 1
  23831961.271    -5215773.866 2  -4064250.396 1
  21838272.481   -13335265.173 3 -10391072.053 2
  21397433.371      284004.307 4    221335.822 3
 91  4 24 22 45  0.0020000  0  5 19 15 13 06 02
  23533353.006    13885188.226 2  10819605.237 1
  24613426.973    -3242214.092 2  -2526381.825 1
  23822092.405    -5267588.895 2  -4104625.866 1
  21834948.982   -13352719.440 3 -10404672.755 3
  21398815.411      291274.285 4    227000.754 3
 91  4 24 22 45 15.0020000  0  5 19 15 13 06 02
  23541333.182    13927156.840 2  10852307.947 1
  24611080.495    -3254554.471 2  -2535997.604 1
  23812249.627    -5319351.859 2  -4144960.840 1
  21831636.268   -13370129.049 3 -10418238.650 2
  21400212.144      298595.758 4    232705.809 3
 91  4 24 22 45 30.0020000  0  5 19 15 13 06 02
  23549334.334    13969186.277 2  10885058.054 1
  24608753.212    -3266789.449 2  -2545531.276 1
  23802412.835    -5371062.971 2  -4185255.418 1
  21828334.355   -13387494.530 3 -10431770.144 2
  21401614.269      305968.140 4    238450.515 3
 91  4 24 22 45 45.0020000  0  5 19 15 13 06 02
  23557345.083    14011275.269 2  10917854.549 1
  24606445.717    -3278920.047 2  -2554983.584 1
  23792583.529    -5422723.062 2  -4225510.270 1
  21825038.742   -13404816.862 3 -10445268.040 2
  21403026.288      313390.073 4    244233.848 3
 91  4 24 22 46  0.0020000  0  4 19 15 13 06
  23565362.132    14053423.974 2  10950697.597 1
  24604153.491    -3290945.837 2  -2564354.211 1
  23782752.739    -5474331.601 2  -4265724.838 1
  21821746.113   -13422095.553 3 -10458731.934 2
 91  4 24 22 46 15.0020000  0  5 19 15 13 06 02
  23573398.673    14095633.785 2  10983588.253 1
  24601878.070    -3302865.441 2  -2573642.167 1
  23772948.631    -5525886.872 2  -4305897.912 1
  21818469.084   -13439329.066 3 -10472160.608 2
  21405878.212      196046.14714    152797.062 3
 91  4 24 22 46 30.0020000  0  5 19 15 13 06 02
  23581443.904    14137906.261 2  11016527.750 1
  24599630.831    -3314676.378 2  -2582845.436 1
  23763147.821    -5577386.724 2  -4346027.812 1
  21815195.650   -13456515.414 3 -10485552.511 3
  21407322.322      203621.271 4    158699.752 3
 91  4 24 22 46 45.0020000  0  5 19 15 13 06 02
  23589488.838    14180240.220 2  11049515.140 1
  24597408.162    -3326379.789 2  -2591964.899 1
  23753355.387    -5628832.080 2  -4386114.905 1
  21811933.907   -13473655.528 3 -10498908.413 2
  21408773.011      211247.636 4    164642.374 3
 91  4 24 22 47  0.0020000  0  5 19 15 13 06 02
  23597559.546    14222635.535 2  11082550.344 1
  24595210.098    -3337975.371 2  -2601000.196 1
  23743578.571    -5680222.302 2  -4426159.363 1
  21808682.059   -13490749.305 3 -10512228.219 2
  21410235.706      218925.334 4    170624.998 3
 91  4 24 22 47 15.0020000  0  5 19 15 13 06 02
  23605644.651    14265090.759 2  11115632.204 1
  24593016.501    -3349464.456 2  -2609952.775 1
  23733811.317    -5731558.760 2  -4466162.010 1
  21805437.715   -13507797.995 3 -10525512.874 2
  21411705.887      226652.562 4    176646.222 3
 91  4 24 22 47 30.0020000  0  5 19 15 13 06 02
  23613730.663    14307606.089 2  11148760.970 1
  24590849.009    -3360846.258 2  -2618821.675 1
  23724050.084    -5782840.752 2  -4506122.218 1
  21802202.357   -13524801.062 3 -10538761.990 2
  21413184.758      234429.652 4    182706.302 3
 91  4 24 22 47 45.0020000  0  5 19 15 13 06 02
  23621841.838    14350180.895 2  11181936.030 1
  24588700.399    -3372121.121 2  -2627607.199 1
  23714297.227    -5834068.139 2  -4546039.878 1
  21798978.377   -13541758.613 3 -10551975.643 2
  21414670.225      242256.079 4    188804.815 3
 91  4 24 22 48  0.0020000  0  5 19 15 13 06 02
  23629951.827    14392814.624 2  11215157.002 1
  24586583.565    -3383289.523 2  -2636309.769 1
  23704561.768    -5885241.266 2  -4585915.172 1
  21795756.212   -13558671.170 3 -10565154.231 3
  21416171.886      250131.086 4    194941.186 3
 91  4 24 22 48 15.0020000  0  5 19 15 13 06 02
  23638072.600    14435504.126 2  11248421.481 1
  24584479.924    -3394354.192 2  -2644931.486 1
  23694834.703    -5936362.946 2  -4625750.452 1
  21792546.628   -13575541.556 3 -10578299.955 2
  21417677.142      258051.616 4    201113.035 3
 91  4 24 22 48 30.0020000  0  5 19 15 13 06 02
  23646214.365    14478253.169 2  11281732.291 1
  24582395.164    -3405311.052 2  -2653469.193 1
  23685120.830    -5987428.951 2  -4665542.328 1
  21789344.252   -13592365.743 3 -10591409.667 2
  21419193.199      266021.399 4    207323.261 3
 91  4 24 22 48 45.0020000  0  5 19 15 13 06 02
  23654347.144    14521062.785 2  11315090.321 1
  24580317.297    -3416158.479 2  -2661921.671 1
  23675410.551    -6038437.749 2  -4705289.634 1
  21786152.066   -13609142.258 3 -10604482.255 2
  21420722.449      274041.632 4    213572.795 3
 91  4 24 22 49  0.0020000  0  5 19 15 13 06 02
  23662514.090    14563938.840 2  11348500.128 1
  24578277.506    -3426890.466 2  -2670284.191 1
  23665712.576    -6089382.927 2  -4744986.928 1
  21782970.664   -13625864.945 3 -10617512.896 2
  21422260.372      282118.065 4    219866.118 3
 91  4 24 22 49 15.0020000  0  5 19 15 13 06 02
  23670686.429    14606873.668 2  11381955.738 1
  24576270.399    -3437514.321 2  -2678562.464 1
  23656028.664    -6140271.896 2  -4784640.854 1
  21779796.452   -13642541.417 3 -10630507.513 2
  21423804.315      290242.821 4    226197.109 3
 91  4 24 22 49 30.0020000  0  5 19 15 13 06 02
  23678860.861    14649868.964 2  11415458.426 1
  24574262.996    -3448028.126 2  -2686755.007 1
  23646359.761    -6191102.498 2  -4824249.337 1
  21776631.559   -13659169.646 3 -10643464.538 2
  21425359.024      298417.730 4    232567.170 3
 91  4 24 22 49 45.0020000  0  5 19 15 13 06 02
  23687054.488    14692923.247 2  11449007.116 1
  24572278.068    -3458432.791 2  -2694862.436 1
  23636695.062    -6241875.554 2  -4863812.916 1
  21773479.840   -13675750.546 3 -10656384.704 2
  21426926.054      306641.552 4    238975.347 3
 91  4 24 22 50  0.0020000  0  5 19 15 13 06 02
  23695262.512    14736037.027 2  11482602.150 1
  24570316.524    -3468727.507 2  -2702884.245 1
  23627045.039    -6292590.297 2  -4903331.112 1
  21770331.716   -13692283.555 3 -10669267.539 2
  21428497.254      314914.525 4    245421.823 3
 91  4 24 22 50 15.0020000  0  5 19 15 13 06 02
  23703471.723    14779209.052 2  11516242.604 1
  24568375.973    -3478913.460 2  -2710821.269 1
  23617407.912    -6343247.464 2  -4942804.009 1
  21767191.985   -13708769.455 3 -10682113.656 2
  21430081.664      323235.445 4    251905.668 3
 91  4 24 22 50 30.0020000  0  5 19 15 13 06 02
  23711700.740    14822438.440 2  11549927.705 1
  24566465.384    -3488991.076 2  -2718673.899 1
  23607776.771    -6393847.574 2  -4982232.849 1
  21764067.245   -13725209.079 3 -10694923.733 2
  21431675.654      331603.400 4    258426.162 3
 91  4 24 22 50 45.0020000  0  5 19 15 13 06 02
  23719940.820    14865727.408 2  11583659.268 1
  24564571.599    -3498958.039 2  -2726440.297 1
  23598160.636    -6444388.203 2  -5021615.395 1
  21760949.711   -13741599.896 3 -10707695.778 2
  21433275.054      340020.348 4    264984.829 3
 91  4 24 22 51  0.0020000  0  5 19 15 13 06 02
  23728186.920    14909075.449 2  11617436.830 1
  24562688.005    -3508814.530 2  -2734120.556 1
  23588551.691    -6494869.312 2  -5060951.486 1
  21757836.662   -13757942.091 3 -10720429.917 2
  21434887.943      348485.834 4    271581.324 3
 91  4 24 22 51 15.0020000  0  5 19 15 13 06 02
  23736449.494    14952482.505 2  11651260.396 1
  24560837.985    -3518559.944 2  -2741714.322 1
  23578958.033    -6545290.362 2  -5100240.864 1
  21754737.102   -13774235.231 3 -10733125.846 2
  21436508.318      356999.984 4    278215.737 3
 91  4 24 22 51 30.0020000  0  5 19 15 13 06 02
  23744713.271    14995948.374 2  11685129.816 1
  24559002.658    -3528194.095 2  -2749221.407 1
  23569368.859    -6595650.917 2  -5139483.065 1
  21751644.452   -13790479.215 3 -10745783.477 2
  21438139.477      365562.651 4    284887.947 3
 91  4 24 22 51 45.0020000  0  5 19 15 13 06 02
  23752999.542    15039474.782 2  11719046.392 1
  24557195.200    -3537715.165 2  -2756640.399 1
  23559807.291    -6645949.242 2  -5178676.336 1
  21748561.086   -13806672.034 3 -10758401.229 2
  21439777.843      374175.554 4    291599.303 3
 91  4 24 22 52  0.0020000  0  5 19 15 13 06 02
  23761295.393    15083061.226 2  11753009.744 1
  24555406.640    -3547123.400 2  -2763971.357 1
  23550241.204    -6696185.173 2  -5217821.430 1
  21745491.209   -13822814.063 3 -10770979.396 3
  21441428.511      382838.325 4    298349.529 3
 91  4 24 22 52 15.0020000  0  5 19 15 13 06 02
  23769604.750    15126708.827 2  11787020.741 1
  24553633.680    -3556417.385 2  -2771213.379 1
  23540695.813    -6746357.339 2  -5256916.852 1
  21742432.133   -13838904.012 3 -10783516.985 3
  21443083.368      391551.745 4    305139.214 3
 91  4 24 22 52 30.0020000  0  5 19 15 13 06 02
  23777922.187    15170417.683 2  11821079.468 1
  24551894.277    -3565596.620 2  -2778365.981 1
  23531159.723    -6796465.052 2  -5295961.607 1
  21739380.841   -13854941.190 3 -10796013.465 2
  21444750.212      400316.023 4    311968.521 3
 91  4 24 22 52 45.0020000  0  5 19 15 13 06 02
  23786244.423    15214186.512 2  11855184.879 1
  24550159.080    -3574661.944 2  -2785429.778 1
  23521637.104    -6846508.838 2  -5334956.950 1
  21736339.442   -13870926.653 3 -10808469.647 2
  21446425.747      409129.882 4    318836.469 3
 91  4 24 22 53  0.0020000  0  5 19 15 13 06 02
  23794584.056    15258015.467 2  11889337.197 1
  24548457.753    -3583612.874 2  -2792404.475 1
  23512124.693    -6896488.489 2  -5373902.372 1
  21733304.046   -13886859.986 3 -10820885.186 2
  21448113.585      417993.465 4    325743.172 3
 91  4 24 22 53 15.0020000  0  5 19 15 13 06 02
  23802939.866    15301903.655 2  11923535.686 1
  24546775.919    -3592450.317 2  -2799290.729 1
  23502630.274    -6946404.353 2  -5412797.608 1
  21730283.937   -13902741.767 3 -10833260.571 2
  21449810.409      426905.850 4    332687.898 3
 91  4 24 22 53 30.0020000  0  5 19 15 13 06 02
  23811314.575    15345850.845 2  11957780.111 1
  24545116.264    -3601173.738 2  -2806088.172 1
  23493143.341    -6996255.755 2  -5451643.091 1
  21727271.628   -13918571.720 3 -10845595.572 2
  21451517.721      435867.154 4    339670.743 3
 91  4 24 22 53 45.0020000  0  5 19 15 13 06 02
  23819682.670    15389858.600 2  11992071.755 1
  24543472.209    -3609781.322 2  -2812795.276 1
  23483670.787    -7046040.863 2  -5490436.903 1
  21724267.696   -13934348.098 3 -10857888.823 3
  21453231.629      444878.683 4    346692.706 3
 91  4 24 22 54  0.0020000  0  5 19 15 13 06 02
  23828077.167    15433926.097 2  12026409.940 1
  24541857.523    -3618273.774 2  -2819412.725 1
  23474205.440    -7095760.396 2  -5529179.158 1
  21721276.065   -13950071.401 3 -10870140.720 2
  21454952.744      453939.521 4    353753.119 3
 91  4 24 22 54 15.0020000  0  5 19 15 13 06 02
  23836463.567    15478053.105 2  12060794.470 1
  24540268.925    -3626650.961 2  -2825940.355 1
  23464753.285    -7145414.190 2  -5567870.655 1
  21718294.346   -13965741.518 3 -10882351.172 2
  21456686.737      463049.467 4    360851.781 3
 91  4 24 22 54 30.0020000  0  5 19 15 13 06 02
  23844874.537    15522240.287 2  12095225.952 1
  24538698.318    -3634912.024 2  -2832377.426 1
  23455316.714    -7195001.004 2  -5606509.961 1
  21715322.801   -13981357.590 3 -10894519.515 2
  21458432.143      472209.353 4    367989.357 3
 91  4 24 22 54 45.0020000  0  5 19 15 13 06 02
  23853298.699    15566486.052 2  12129703.055 1
  24537150.780    -3643058.211 2  -2838725.063 1
  23445893.352    -7244521.962 2  -5645097.949 1
  21712361.447   -13996920.873 3 -10906646.712 2
  21460182.923      481417.426 4    375164.495 3
 91  4 24 22 55  0.0020000  0  5 19 15 13 06 02
  23861724.380    15610791.486 2  12164226.632 1
  24535625.143    -3651088.308 2  -2844982.188 1
  23436475.958    -7293975.713 2  -5683633.146 1
  21709412.395   -14012430.040 3 -10918731.741 3
  21461945.413      490674.778 4    382378.031 3
 91  4 24 22 55 15.0020000  0  5 19 15 13 06 02
  23870171.629    15655156.029 2  12198796.275 1
  24534108.195    -3659002.326 2  -2851148.808 1
  23427087.357    -7343362.108 2  -5722115.807 1
  21706471.423   -14027885.311 3 -10930774.785 2
  21463715.074      499980.851 4    389629.522 3
 91  4 24 22 55 30.0020000  0  5 19 15 13 06 02
  23878628.162    15699579.842 2  12233412.091 1
  24532634.716    -3666799.738 2  -2857224.752 1
  23417702.665    -7392680.491 2  -5760545.932 1
  21703537.360   -14043286.142 3 -10942775.400 3
  21465498.539      509335.864 4    396919.155 3
 91  4 24 22 55 45.0020000  0  5 19 15 13 06 02
  23887087.416    15744062.875 2  12268074.057 1
  24531160.923    -3674480.440 2  -2863209.646 1
  23408327.553    -7441930.485 2  -5798922.329 1
  21700621.865   -14058632.258 3 -10954733.380 3
  21467285.616      518740.003 4    404247.068 3
 91  4 24 22 56  0.0020000  0  5 19 15 13 06 02
  23895559.549    15788604.070 2  12302781.352 1
  24529725.521    -3682044.991 2  -2869104.036 1
  23398968.931    -7491112.762 2  -5837245.956 1
  21697707.888   -14073924.328 3 -10966649.251 3
  21469085.867      528192.041 4    411612.303 3
 91  4 24 22 56 15.0020000  0  5 19 15 13 06 02
  23904038.872    15833205.428 2  12337535.513 1
  24528316.799    -3689490.993 2  -2874906.000 1
  23389628.301    -7540224.975 2  -5875515.407 1
  21694809.198   -14089160.094 3 -10978521.245 2
  21470893.012      537693.897 4    419016.364 3
 91  4 24 22 56 30.0020000  0  5 19 15 13 06 02
  23912545.487    15877864.814 2  12372334.915 1
  24526920.363    -3696820.442 2  -2880617.208 1
  23380287.356    -7589269.095 2  -5913731.408 1
  21691920.995   -14104341.463 3 -10990350.856 2
  21472710.347      547243.489 4    426457.616 3
 91  4 24 22 56 45.0020000  0  5 19 15 13 06 02
  23921059.902    15922582.308 2  12407179.609 1
  24525544.623    -3704032.925 2  -2886237.279 1
  23370971.016    -7638244.272 2  -5951894.127 1
  21689039.999   -14119467.962 3 -11002137.716 3
  21474537.280      556841.031 4    433936.240 3
 91  4 24 22 57  0.0020000  0  5 19 15 13 06 02
  23929584.787    15967357.802 2  12442069.471 1
  24524187.153    -3711128.469 2  -2891766.241 1
  23361662.163    -7687150.301 2  -5990002.525 1
  21686172.178   -14134539.581 3 -11013881.815 3
  21476371.717      566486.290 4    441452.035 3
 91  4 24 22 57 15.0020000  0  5 19 15 13 06 02
  23938111.783    16012193.160 2  12477005.987 1
  24522871.075    -3718104.602 2  -2897202.151 1
  23352368.892    -7735984.667 2  -6028055.527 1
  21683315.751   -14149553.916 3 -11025581.276 3
  21478217.845      576181.128 4    449006.473 3
 91  4 24 22 57 30.0020000  0  5 19 15 13 06 02
  23946654.380    16057087.345 2  12511988.313 1
  24521561.576    -3724962.049 2  -2902545.473 1
  23343089.722    -7784747.948 2  -6066052.645 1
  21680470.127   -14164511.620 3 -11037236.606 2
  21480071.163      585924.458 4    456598.686 3
 91  4 24 22 57 45.0020000  0  5 19 15 13 06 02
  23955205.353    16102040.048 2  12547016.248 1
  24520281.166    -3731700.773 2  -2907796.496 1
  23333824.633    -7833440.057 2  -6103994.356 1
  21677632.285   -14179412.791 3 -11048847.873 2
  21481936.173      595716.165 4    464228.595 3
 91  4 24 22 58  0.0020000  0  5 19 15 13 06 02
  23963769.519    16147050.798 2  12582089.466 1
  24519026.234    -3738320.842 2  -2912954.855 1
  23324576.629    -7882061.038 2  -6141881.079 1
  21674809.747   -14194257.357 3 -11060415.035 3
  21483808.965      605555.941 4    471895.964 3
 91  4 24 22 58 15.0020000  0  5 19 15 13 06 02
  23972352.286    16192120.006 2  12617208.188 1
  24517779.695    -3744821.873 2  -2918020.506 1
  23315329.531    -7930610.189 2  -6179711.394 1
  21671993.195   -14209044.817 3 -11071937.701 3
  21485689.261      615444.013 4    479600.970 3
 91  4 24 22 58 30.0020000  0  5 19 15 13 06 02
  23980930.255    16237248.967 2  12652373.504 1
  24516566.137    -3751202.247 2  -2922992.167 1
  23306107.318    -7979085.565 2  -6217484.173 1
  21669189.224   -14223773.620 3 -11083414.662 3
  21487581.248      625381.505 4    487344.482 3
 91  4 24 22 58 45.0020000  0  5 19 15 13 06 02
  23989531.886    16282438.449 2  12687585.953 1
  24515373.257    -3757461.004 2  -2927869.081 1
  23296897.687    -8027485.973 2  -6255198.593 1
  21666400.557   -14238442.698 3 -11094845.076 3
  21489478.942      635369.320 4    495127.208 3
 91  4 24 22 59  0.0020000  0  5 19 15 13 06 02
  23998145.226    16327687.062 2  12722844.501 1
  24514207.059    -3763599.021 2  -2932651.870 1
  23287701.265    -8075812.229 2  -6292855.629 1
  21663617.893   -14253052.843 3 -11106229.578 3
  21491391.626      645406.280 4    502948.238 3
 91  4 24 22 59 15.0020000  0  5 19 15 13 06 02
  24006768.461    16372994.707 2  12758149.012 1
  24513059.760    -3769616.060 2  -2937340.452 1
  23278518.018    -8124063.904 2  -6330454.129 1
  21660851.406   -14267603.895 3 -11117568.032 3
  21493309.684      655492.331 4    510807.500 3
 91  4 24 22 59 30.0020000  0  5 19 15 13 06 02
  24015397.681    16418361.188 2  12793499.375 1
  24511931.045    -3775512.090 2  -2941934.664 1
  23269352.169    -8172241.385 2  -6367994.782 1
  21658089.717   -14282095.877 3 -11128860.451 3
  21495238.561      665627.082 4    518704.717 3
 91  4 24 22 59 45.0020000  0  5 19 15 13 06 02
  24024045.503    16463786.275 2  12828895.414 1
  24510834.403    -3781286.996 2  -2946434.507 1
  23260196.807    -8220344.141 2  -6405477.286 1
  21655347.223   -14296528.585 3 -11140106.706 3
  21497177.315      675810.422 4    526639.792 3
 91  4 24 23  0  0.0020000  0  5 19 15 13 06 02
  24032694.511    16509268.451 2  12864335.938 1
  24509768.649    -3786942.291 2  -2950841.172 1
  23251060.030    -8268373.113 2  -6442902.256 1
  21652610.104   -14310903.355 3 -11151307.778 2
  21499124.166      686040.743 4    534611.486 3
 91  4 24 23  0 15.0020000  0  5 19 15 13 06 02
  24041369.608    16554809.310 2  12899822.177 1
  24508714.272    -3792475.925 2  -2955153.068 1
  23241932.851    -8316326.248 2  -6480268.574 1
  21649885.601   -14325218.133 3 -11162462.115 3
  21501079.411      696319.633 4    542621.027 3
 91  4 24 23  0 30.0020000  0  5 19 15 13 06 02
  24050042.296    16600408.408 2  12935353.836 1
  24507685.390    -3797887.746 2  -2959369.982 1
  23232822.459    -8364203.467 2  -6517575.314 1
  21647173.977   -14339472.961 3 -11173569.736 3
  21503043.956      706646.822 4    550668.175 3
 91  4 24 23  0 45.0020000  0  5 19 15 13 06 02
  24058737.478    16646067.032 2  12970931.834 1
  24506669.682    -3803176.252 2  -2963490.866 1
  23223730.948    -8412003.045 2  -6554821.518 1
  21644474.638   -14353666.317 3 -11184629.464 2
  21505018.989      717023.686 4    558754.062 3
 91  4 24 23  1  0.0020000  0  5 19 15 13 06 02
  24067440.756    16691785.695 2  13006556.637 1
  24505691.458    -3808341.020 2  -2967515.321 1
  23214643.939    -8459724.225 2  -6592006.634 1
  21641784.006   -14367797.379 3 -11195640.652 3
  21507004.213      727450.607 4    566878.949 3
 91  4 24 23  1 15.0020000  0  5 19 15 13 06 02
  24076145.239    16737560.748 2  13042225.402 1
  24504736.320    -3813384.995 2  -2971445.579 1
  23205580.907    -8507370.033 2  -6629133.049 1
  21639109.551   -14381869.323 3 -11206605.769 3
  21508995.737      737924.204 4    575040.191 3
 91  4 24 23  1 30.0020000  0  5 19 15 13 06 02
  24084873.681    16783394.876 2  13077940.157 1
  24503790.187    -3818305.229 2  -2975279.481 1
  23196526.285    -8554937.347 2  -6666198.239 1
  21636439.598   -14395879.290 3 -11217522.588 3
  21510997.748      748446.937 4    583239.728 3
 91  4 24 23  1 45.0020000  0  5 19 15 13 06 02
  24093596.748    16829286.829 2  13113699.970 1
  24502886.004    -3823102.809 2  -2979017.779 1
  23187490.231    -8602426.998 2  -6703202.975 1
  21633788.840   -14409828.092 3 -11228391.755 3
  21513006.949      759017.673 4    591476.670 3
 91  4 24 23  2  0.0020000  0  5 19 15 13 06 02
  24102335.695    16875236.285 2  13149504.593 1
  24501984.822    -3827777.770 2  -2982660.569 1
  23178467.090    -8649838.924 2  -6740147.129 1
  21631145.568   -14423715.670 3 -11239213.215 3
  21515029.656      769636.075 4    599750.762 3
 91  4 24 23  2 15.0020000  0  5 19 15 13 06 02
  24111095.041    16921245.965 2  13185356.166 1
  24501126.516    -3832327.201 2  -2986205.526 1
  23169462.219    -8697170.073 2  -6777028.339 1
  21628513.395   -14437539.019 3 -11249984.619 3
  21517059.849      780304.919 4    608064.141 3
 91  4 24 23  2 30.0020000  0  5 19 15 13 06 02
  24119861.560    16967314.216 2  13221253.335 1
  24500289.795    -3836752.304 2  -2989653.559 1
  23160465.742    -8744421.457 2  -6813847.430 1
  21625893.210   -14451299.617 3 -11260707.125 3
  21519099.936      791022.380 4    616415.408 3
 91  4 24 23  2 45.0020000  0  5 19 15 13 06 02
  24128641.881    17013440.960 2  13257196.143 1
  24499461.172    -3841052.927 2  -2993004.654 1
  23151490.257    -8791592.885 2  -6850604.171 1
  21623289.515   -14464997.149 3 -11271380.497 2
  21521148.714      801788.682 4    624804.732 3
 91  4 24 23  3  0.0020000  0  5 19 15 13 06 02
  24137438.693    17059625.601 2  13293184.011 1
  24498675.127    -3845229.292 2  -2996258.912 1
  23142531.560    -8838684.402 2  -6887299.107 1
  21620694.197   -14478631.853 3 -11282004.923 3
  21523207.997      812603.353 4    633231.744 3
 91  4 24 23  3 15.0020000  0  5 19 15 13 06 02
  24146237.302    17105868.707 2  13329217.485 1
  24497902.850    -3849280.555 2  -2999415.694 1
  23133588.149    -8885694.903 2  -6923930.497 1
  21618110.587   -14492202.680 3 -11292579.564 2
  21525273.858      823466.894 4    641696.835 3
 91  4 24 23  3 30.0020000  0  5 19 15 13 06 02
  24155035.318    17152168.394 2  13365295.011 1
  24497160.867    -3853208.574 2  -3002476.432 1
  23124653.742    -8932625.883 2  -6960499.896 1
  21615540.467   -14505711.180 3 -11303105.643 3
  21527349.928      834377.482 4    650198.591 3
 91  4 24 23  3 45.0020000  0  5 19 15 13 06 02
  24163860.015    17198524.974 2  13401416.878 1
  24496424.275    -3857012.667 2  -3005440.619 1
  23115737.012    -8979476.334 2  -6997006.532 1
  21612982.649   -14519156.671 3 -11313582.633 2
  21529435.578      845335.393 4    658737.216 3
 91  4 24 23  4  0.0020000  0  5 19 15 13 06 02
  24172691.902    17244937.586 2  13437582.411 1
  24495728.465    -3860693.211 2  -3008308.553 1
  23106836.476    -9026247.082 2  -7033451.053 1
  21610434.411   -14532539.846 3 -11324011.051 2
  21531530.233      856339.746 4    667312.032 3
 91  4 24 23  4 15.0020000  0  5 19 15 13 06 02
  24181531.868    17291406.212 2  13473791.620 1
  24495054.835    -3864249.962 2  -3011079.942 1
  23097955.118    -9072937.537 2  -7069833.034 1
  21607899.959   -14545860.323 3 -11334390.616 2
  21533632.984      867390.544 4    675923.038 3
 91  4 24 23  4 30.0020000  0  5 19 15 13 06 02
  24190394.031    17337931.798 2  13510045.147 1
  24494404.570    -3867681.859 2  -3013754.130 1
  23089083.358    -9119546.031 2  -7106151.117 1
  21605378.699   -14559116.830 3 -11344720.337 2
  21535744.408      878488.683 4    684570.931 3
 91  4 24 23  4 45.0020000  0  5 19 15 13 06 02
  24199250.802    17384514.431 2  13546343.183 1
  24493766.311    -3870988.456 2  -3016330.709 1
  23080229.588    -9166072.493 2  -7142405.319 1
  21602865.554   -14572309.016 3 -11354999.946 3
  21537869.635      889634.482 4    693255.956 3
 91  4 24 23  5  0.0020000  0  5 19 15 13 06 02
  24208124.656    17431154.548 2  13582685.977 1
  24493169.426    -3874169.140 2  -3018809.023 1
  23071392.903    -9212515.944 2  -7178594.836 1
  21600368.584   -14585435.951 3 -11365228.709 2
  21539996.973      900828.465 4    701978.538 3
 91  4 24 23  5 15.0020000  0  5 19 15 13 06 02
  24217017.409    17477851.000 2  13619072.658 1
  24492587.234    -3877224.697 2  -3021189.932 1
  23062569.409    -9258877.248 2  -7214720.297 1
  21597883.604   -14598498.472 3 -11375407.271 3
  21542134.189      912069.478 4    710737.768 3
 91  4 24 23  5 30.0020000  0  5 19 15 13 06 02
  24225910.756    17524604.870 2  13655504.101 1
  24492023.034    -3880153.706 2  -3023472.239 1
  23053760.906    -9305154.526 2  -7250780.366 1
  21595413.002   -14611495.150 3 -11385534.535 3
  21544283.096      923358.644 4    719534.511 3
 91  4 24 23  5 45.0020000  0  5 19 15 13 06 02
  24234819.982    17571415.468 2  13691979.743 1
  24491492.094    -3882956.418 2  -3025656.132 1
  23044973.988    -9351347.930 2  -7286775.026 1
  21592949.310   -14624426.294 3 -11395610.727 3
  21546439.210      934695.296 4    728368.261 3
 91  4 24 23  6  0.0020000  0  5 19 15 13 06 02
  24243750.497    17618281.502 2  13728498.594 1
  24490984.536    -3885633.772 2  -3027742.332 1
  23036193.370    -9397458.465 2  -7322705.085 1
  21590500.015   -14637292.905 3 -11405636.650 2
  21548606.108      946078.052 4    737237.930 3
 91  4 24 23  6 15.0020000  0  5 19 15 13 06 02
  24252674.120    17665204.729 2  13765062.049 1
  24490499.473    -3888183.907 2  -3029729.425 1
  23027443.325    -9443483.739 2  -7358568.769 1
  21588063.895   -14650092.799 3 -11415610.573 3
  21550783.808      957508.887 4    746145.078 3
 91  4 24 23  6 30.0020000  0  5 19 15 13 06 02
  24261621.422    17712185.150 2  13801669.974 1
  24490041.701    -3890606.747 2  -3031617.222 1
  23018700.190    -9489423.648 2  -7394365.914 1
  21585641.578   -14662825.655 3 -11425532.257 2
  21552965.399      968987.735 4    755089.628 3
 91  4 24 23  6 45.0020000  0  5 19 15 13 06 02
  24270567.538    17759222.287 2  13838322.147 1
  24489607.889    -3892902.244 2  -3033405.961 1
  23009970.527    -9535277.946 2  -7430096.350 1
  21583233.640   -14675491.611 3 -11435401.826 3
  21555158.979      980514.259 4    764071.334 3
 91  4 24 23  7  0.0020000  0  5 19 15 13 06 02
  24279525.642    17806316.142 2  13875018.513 1
  24489182.191    -3895070.161 2  -3035095.113 1
  23001266.062    -9581045.970 2  -7465759.580 1
  21580835.003   -14688090.291 3 -11445218.962 3
  21557360.342      992088.379 4    773090.122 3
 91  4 24 23  7 15.0020000  0  5 19 15 13 06 02
  24288495.717    17853464.762 2  13911757.581 1
  24488799.054    -3897112.013 2  -3036686.190
  22992568.175    -9626729.558 2  -7501356.985 1
  21578449.855   -14700623.333 3 -11454984.939 3
  21559572.820     1003708.345 4    782144.644 3
 91  4 24 23  7 30.0020000  0  5 19 15 13 06 02
  24297481.410    17900671.796 2  13948542.141 1
  24488433.315    -3899024.021 2  -3038176.029 1
  22983893.689    -9672324.762 2  -7536885.528 1
  21576078.195   -14713086.580 3 -11464696.551 3
  21561793.674     1015377.823 4    791237.751 3
 91  4 24 23  7 45.0020000  0  5 19 15 13 06 02
  24306475.183    17947934.493 2  13985370.040 1
  24488096.037    -3900808.680 2  -3039566.591 1
  22975230.581    -9717833.579 2  -7572346.728 1
  21573722.119   -14725482.567 3 -11474355.746 3
  21564024.143     1027094.091 4    800367.305 3
 91  4 24 23  8  0.0020000  0  5 19 15 13 06 02
  24315471.957    17995252.971 2  14022241.452 1
  24487786.959    -3902465.741 2  -3040857.769 1
  22966586.371    -9763255.512 2  -7607740.295 1
  21571373.250   -14737810.745 3 -11483962.093 2
  21566259.987     1038857.404 4    809533.516 3
 91  4 24 23  8 15.0020000  0  5 19 15 13 06 02
  24324493.300    18042628.320 2  14059157.142 1
  24487487.460    -3903993.898 2  -3042048.495 1
  22957964.324    -9808589.322 2  -7643065.141 1
  21569042.355   -14750069.906 3 -11493514.665 2
  21568510.228     1050668.738 4    818737.167 3
 91  4 24 23  8 30.0020000  0  5 19 15 13 06 02
  24333520.054    18090059.219 2  14096116.168 1
  24487225.742    -3905394.156 2  -3043139.556 1
  22949348.593    -9853835.595 2  -7678321.755 1
  21566723.762   -14762260.786 4 -11503014.025 3
  21570765.878     1062526.790 4    827977.206 3
 91  4 24 23  8 45.0020000  0  5 19 15 13 06 02
  24342554.607    18137545.103 2  14133118.015 1
  24486974.825    -3906666.434 2  -3044130.909 1
  22940753.540    -9898994.499 2  -7713510.367 1
  21564412.062   -14774383.623 3 -11512460.374 3
  21573031.405     1074431.216 4    837253.389 3
 91  4 24 23  9  0.0020000  0  5 19 15 13 06 02
  24351592.738    18185087.149 2  14170163.548 1
  24486767.063    -3907809.456 2  -3045021.546 1
  22932180.074    -9944064.460 2  -7748629.634 1
  21562118.353   -14786437.047 3 -11521852.634 3
  21575307.123     1086383.163 4    846566.597 3
 91  4 24 23  9 15.0020000  0  5 19 15 13 06 02
  24360656.660    18232683.442 2  14207251.434 1
  24486564.710    -3908825.011 2  -3045812.806 1
  22923617.112    -9989047.129 2  -7783680.919 1
  21559838.429   -14798422.436 3 -11531191.872 2
  21577588.843     1098380.697 4    855915.328 3
 91  4 24 23  9 30.0020000  0  5 19 15 13 06 02
  24369734.386    18280334.919 2  14244382.254 1
  24486403.121    -3909711.630 2  -3046503.678 1
  22915079.017   -10033940.791 2  -7818662.849 1
  21557570.198   -14810338.673 3 -11540477.231 3
  21579880.162     1110424.942 4    865300.465 3
 91  4 24 23  9 45.0020000  0  5 19 15 13 06 02
  24378797.418    18328041.804 2  14281556.384 1
  24486260.414    -3910469.118 2  -3047093.833 1
  22906550.520   -10078744.765 2  -7853574.798 1
  21555316.066   -14822185.008 3 -11549708.122 2
  21582180.467     1122516.104 4    874722.154 3
 91  4 24 23 10  0.0020000  0  5 19 15 13 06 02
  24387889.523    18375804.633 2  14318774.008 1
  24486131.509    -3911096.866 2  -3047582.969 1
  22898041.515   -10123458.128 2  -7888416.245 1
  21553076.924   -14833960.548 3 -11558883.836 2
  21584493.371     1134654.691 4    884180.803 3
 91  4 24 23 10 15.0020000  0  5 19 15 13 06 02
  24396996.913    18423622.350 2  14356034.444 1
  24486043.664    -3911595.650 2  -3047971.579 1
  22889547.796   -10168081.511 2  -7923187.544 1
  21550849.753   -14845666.147 3 -11568005.056 2
  21586810.760     1146839.841 4    893675.716 3
 91  4 24 23 10 30.0020000  0  5 19 15 13 06 02
  24406116.292    18471495.215 2  14393337.800 1
  24485977.703    -3911964.767 2  -3048259.190 1
  22881073.865   -10212614.192 2  -7957888.167 1
  21548632.493   -14857301.124 3 -11577071.248 3
  21589138.043     1159071.703 4    903207.054 3
 91  4 24 23 10 45.0020000  0  5 19 15 13 06 02
  24415214.993    18519423.472 2  14430684.327 1
  24485925.544    -3912203.441 2  -3048445.140 1
  22872619.723   -10257055.497 2  -7992517.560 1
  21546434.115   -14868864.671 3 -11586081.777 2
  21591474.331     1171350.851 4    912775.225 3
 91  4 24 23 11  0.0020000  0  5 19 15 13 06 02
  24424356.272    18567406.405 2  14468073.498 1
  24485903.661    -3912312.163 2  -3048529.814 1
  22864178.163   -10301405.815 2  -8027076.072 1
  21544248.928   -14880357.152 3 -11595036.930 3
  21593821.402     1183676.646 4    922379.744 3
 91  4 24 23 11 15.0020000  0  5 19 15 13 06 02
  24433492.438    18615445.693 2  14505506.528 1
  24485910.851    -3912289.370 2  -3048512.025 1
  22855757.892   -10345662.957 2  -8061562.012 1
  21542073.637   -14891776.734 3 -11603935.273 3
  21596173.273     1196050.679 4    932021.853 3
 91  4 24 23 11 30.0020000  0  5 19 15 13 06 02
  24442651.709    18663539.609 2  14542982.135 1
  24485938.440    -3912136.315 2  -3048392.718 1
  22847355.298   -10389828.077 2  -8095976.228 1
  21539915.429   -14903124.588 3 -11612777.733 3
  21598538.650     1208471.454 4    941700.379 3
 91  4 24 23 11 45.0020000  0  5 19 15 13 06 02
  24451816.668    18711688.751 2  14580500.808 1
  24485993.600    -3911852.164 2  -3048171.267 1
  22838967.118   -10433900.049 2  -8130317.829 1
  21537767.708   -14914399.963 3 -11621563.713 3
  21600912.106     1220939.322 4    951415.602 3
 91  4 24 23 12  0.0020000  0  5 19 15 13 06 02
  24460986.705    18759893.100 2  14618062.455 1
  24486069.438    -3911436.496 2  -3047847.344 1
  22830598.413   -10477878.588 2  -8164586.659 1
  21535640.387   -14925602.450 3 -11630292.898 2
  21603290.048     1233454.333 4    961167.579 3
 91  4 24 23 12 15.0020000  0  5 19 15 13 06 02
  24470165.449    18808153.076 2  14655667.495 1
  24486181.573    -3910888.752 2  -3047420.503 1
  22822245.290   -10521762.796 2  -8198782.000 1
  21533517.254   -14936731.328 3 -11638964.720 2
  21605684.200     1246017.139 4    970956.782 3
 91  4 24 23 12 30.0020000  0  5 19 15 13 06 02
  24479368.188    18856468.094 2  14693315.408 1
  24486305.976    -3910209.183 2  -3046890.940 1
  22813915.847   -10565552.850 2  -8232903.937 1
  21531416.003   -14947786.741 3 -11647579.309 3
  21608080.132     1258627.045 4    980782.683 3
 91  4 24 23 12 45.0020000  0  5 19 15 13 06 02
  24488566.111    18904838.353 2  14731006.342 1
  24486457.671    -3909397.600 2  -3046258.502 1
  22805599.911   -10609248.262 2  -8266952.178 1
  21529326.759   -14958768.288 3 -11656136.347 3
  21610491.665     1271284.395 4    990645.558 3
 91  4 24 23 13  0.0020000  0  5 19 15 13 06 02
  24497775.742    18953263.127 2  14768739.753 1
  24486633.953    -3908454.463 2  -3045523.587 1
  22797304.060   -10652849.276 2  -8300926.811 1
  21527248.595   -14969676.114 3 -11664635.918 3
  21612911.295     1283988.584 4   1000544.926 3
 91  4 24 23 13 15.0020000  0  5 19 15 13 06 02
  24507010.555    19001742.564 2  14806515.768 1
  24486842.308    -3907379.058 2  -3044685.526 1
  22789021.088   -10696354.880 2  -8334827.149 1
  21525189.329   -14980509.445 3 -11673077.453 2
  21615331.518     1296740.101 4   1010481.181 3
 91  4 24 23 13 30.0020000  0  5 19 15 13 06 02
  24516257.355    19050277.047 2  14844334.670 1
  24487074.658    -3906170.818 2  -3043744.024 1
  22780765.407   -10739764.477 3  -8368652.617 1
  21523139.644   -14991267.650 3 -11681460.443 3
  21617768.825     1309539.149 4   1020454.462 3
 91  4 24 23 13 45.0020000  0  5 19 15 13 06 02
  24525490.963    19098865.873 2  14882195.914 1
  24487327.372    -3904830.289 2  -3042699.418 1
  22772514.822   -10783078.456 3  -8402403.636 1
  21521105.246   -15001951.290 3 -11689785.331 3
  21620215.432     1322385.046 4   1030464.256 3
 91  4 24 23 14  0.0020000  0  5 19 15 13 06 02
  24534752.143    19147508.338 2  14920098.939 1
  24487610.380    -3903358.143 2  -3041552.270 1
  22764297.811   -10826297.227 3  -8436080.483 1
  21519088.541   -15012560.793 3 -11698052.460 3
  21622667.746     1335277.122 4   1040510.029 3
 91  4 24 23 14 15.0020000  0  5 19 15 13 06 02
  24544011.229    19196204.612 2  14958043.929 1
  24487912.879    -3901753.543 2  -3040301.954 1
  22756085.581   -10869419.860 3  -8469682.376 1
  21517087.438   -15023095.466 3 -11706261.263 3
  21625128.733     1348215.748 4   1050592.076 3
 91  4 24 23 14 30.0020000  0  5 19 15 13 06 02
  24553296.402    19244954.681 2  14996030.859 1
  24488244.433    -3900016.345 2  -3038948.210 1
  22747900.958   -10912445.847 2  -8503208.952 1
  21515097.415   -15033554.892 3 -11714411.441 3
  21627602.022     1361200.949 4   1060710.414 3
 91  4 24 23 14 45.0020000  0  5 19 15 13 06 02
  24562574.386    19293758.674 2  15034059.789 1
  24488605.985    -3898146.210 2  -3037490.975 1
  22739729.213   -10955374.988 2  -8536660.043 1
  21513118.473   -15043938.545 3 -11722502.583 3
  21630081.314     1374232.826 4   1070865.113 3
 91  4 24 23 15  0.0020000  0  5 19 15 13 06 02
  24571875.736    19342615.194 2  15072129.671 1
  24488984.933    -3896144.448 2  -3035931.127 1
  22731576.053   -10998208.165 3  -8570036.403 1
  21511153.631   -15054247.816 3 -11730535.760 3
  21632567.779     1387309.842 4   1081055.003 3
 91  4 24 23 15 15.0020000  0  5 19 15 13 06 02
  24581176.807    19391524.587 2  15110240.638 1
  24489389.953    -3894010.141 2  -3034267.979 1
  22723448.980   -11040944.382 3  -8603337.214 1
  21509208.577   -15064481.722 3 -11738510.217 3
  21635068.360     1400432.793 4   1091280.679 3
 91  4 24 23 15 30.0020000  0  5 19 15 13 06 02
  24590498.556    19440488.195 2  15148393.972 1
  24489818.356    -3891742.191 2  -3032500.733 1
  22715332.395   -11083582.050 2  -8636561.220 1
  21507276.716   -15074638.553 3 -11746424.611 3
  21637573.722     1413602.814 4   1101543.031 3
 91  4 24 23 15 45.0020000  0  5 19 15 13 06 02
  24599831.683    19489504.205 2  15186588.070 1
  24490271.346    -3889341.930 2  -3030630.371 1
  22707240.712   -11126122.402 3  -8669709.401 1
  21505358.344   -15084719.738 3 -11754280.065 3
  21640086.275     1426818.339 4   1111840.842 3
 91  4 24 23 16  0.0020000  0  5 19 15 13 06 02
  24609157.341    19538574.779 2  15224824.715 1
  24490759.394    -3886807.174 2  -3028655.218 1
  22699160.703   -11168563.002 2  -8702779.831 1
  21503454.664   -15094722.889 3 -11762074.710 3
  21642609.925     1440081.492 4   1122175.768 3
 91  4 24 23 16 15.0020000  0  5 19 15 13 06 02
  24618524.356    19587697.666 2  15263102.156 1
  24491272.046    -3884139.690 2  -3026576.580 1
  22691099.871   -11210905.673 2  -8735774.029 1
  21501564.771   -15104649.720 3 -11769809.876 3
  21645144.377     1453390.159 4   1132546.165 3
 91  4 24 23 16 30.0020000  0  5 19 15 13 06 02
  24627869.489    19636872.677 2  15301420.128 1
  24491799.078    -3881339.557 2  -3024394.647 1
  22683063.941   -11253149.988 2  -8768691.503 1
  21499691.071   -15114500.087 3 -11777485.466 3
  21647683.628     1466744.243 4   1142951.946 3
 91  4 24 23 16 45.0020000  0  5 19 15 13 06 02
  24637236.801    19686099.250 2  15339778.384 1
  24492359.998    -3878407.213 2  -3022109.695 1
  22675046.596   -11295295.954 3  -8801532.363 1
  21497828.156   -15124274.236 3 -11785101.666 3
  21650233.349     1480143.237 4   1153392.717 3
 91  4 24 23 17  0.0020000  0  5 19 15 13 06 02
  24646618.195    19735375.394 2  15378175.162 1
  24492944.283    -3875344.043 2  -3019722.807 1
  22667040.035   -11337345.066 2  -8834297.760 1
  21495982.935   -15133973.400 3 -11792659.433 3
  21652793.279     1493585.533 4   1163867.241 3
 91  4 24 23 17 15.0020000  0  5 19 15 13 06 02
  24656013.392    19784703.998 2  15416612.872 1
  24493549.876    -3872146.895 2  -3017231.498 1
  22659061.655   -11379294.366 3  -8866985.400 1
  21494155.112   -15143594.615 3 -11800156.454 3
  21655361.305     1507073.896 4   1174377.660 3
 91  4 24 23 17 30.0020000  0  5 19 15 13 06 02
  24665391.505    19834082.246 2  15455089.269 1
  24494184.837    -3868818.251 2  -3014637.687 1
  22651094.968   -11421145.849 2  -8899596.791 1
  21492336.869   -15153140.198 3 -11807594.549 3
  21657935.020     1520605.697 4   1184921.925 3
 91  4 24 23 17 45.0020000  0  5 19 15 13 06 02
  24674803.193    19883512.932 1  15493606.583 1
  24494840.180    -3865355.165 2  -3011939.176 1
  22643152.868   -11462896.502 2  -8932129.644 1
  21490538.118   -15162607.106 3 -11814971.344 3
  21660516.536     1534183.692 4   1195502.183 3
 91  4 24 23 18  0.0020000  0  5 19 15 13 06 02
  24684216.067    19932996.139 2  15532164.718 1
  24495530.004    -3861757.469 2  -3009135.787 1
  22635225.164   -11504545.678 3  -8964583.369 1
  21488750.448   -15171994.766 3 -11822286.387 3
  21663111.837     1547808.024 4   1206118.554 3
 91  4 24 23 18 15.0020000  0  5 19 15 13 06 02
  24693645.450    19982531.041 2  15570763.111 1
  24496235.708    -3858025.497 2  -3006227.723 1
  22627325.032   -11546093.771 3  -8996958.386 1
  21486980.472   -15181303.609 3 -11829539.995 3
  21665713.141     1561478.264 4   1216770.683 3
 91  4 24 23 18 30.0020000  0  5 19 15 13 06 02
  24703089.804    20032118.695 2  15609402.740 1
  24496978.302    -3854158.047 2  -3003214.124 1
  22619431.199   -11587539.220 3  -9029253.390 1
  21485224.597   -15190532.262 3 -11836731.136 3
  21668325.526     1575195.203 4   1227459.205 3
 91  4 24 23 18 45.0020000  0  5 19 15 13 06 02
  24712539.272    20081756.937 2  15648081.698 1
  24497734.665    -3850157.285 2  -3000096.591 1
  22611564.937   -11628883.670 3  -9061469.747 1
  21483482.803   -15199682.498 3 -11843861.174 3
  21670942.116     1588956.854 4   1238182.578 3
 91  4 24 23 19  0.0020000  0  5 19 15 13 06 02
  24721988.722    20131447.192 2  15686801.223 1
  24498517.726    -3846021.563 2  -2996873.917 1
  22603717.574   -11670125.581 3  -9093606.156 1
  21481757.483   -15208752.525 3 -11850928.704 3
  21673570.695     1602764.753 4   1248941.986 3
 91  4 24 23 19 15.0020000  0  5 19 15 13 06 02
  24731457.960    20181191.368 2  15725562.782 1
  24499332.267    -3841748.532 2  -2993544.272 1
  22595892.687   -11711262.499 3  -9125660.731 1
  21480044.482   -15217740.059 3 -11857931.952 3
  21676206.777     1616620.784 4   1259738.892 3
 91  4 24 23 19 30.0020000  0  4 15 13 06 02
  24500170.785    -3837339.563 2  -2990108.678 1
  22588080.993   -11752295.517 3  -9157634.369 1
  21478349.455   -15226646.357 3 -11864871.907 3
  21678849.752     1630523.379 4   1270572.086 3
 91  4 24 23 19 45.0020000  0  4 15 13 06 02
  24501037.188    -3832793.896 2  -2986566.526 1
  22580295.089   -11793223.714 3  -9189526.370 1
  21476671.512   -15235470.416 3 -11871747.774 3
  21681505.605     1644473.161 4   1281442.051 3
 91  4 24 23 20  0.0020000  0  4 15 13 06 02
  24501932.960    -3828112.089 2  -2982918.369 1
  22572521.768   -11834047.211 3  -9221336.769 1
  21475010.356   -15244212.609 3 -11878559.849 3
  21684168.369     1658469.651 4   1292348.405 3
 91  4 24 23 20 15.0020000  0  4 15 13 06 02
  24502846.741    -3823293.583 2  -2979163.664 1
  22564776.628   -11874765.126 3  -9253064.870 1
  21473361.502   -15252872.049 3 -11885307.446 3
  21686841.306     1672513.460 4   1303291.631 3
 91  4 24 23 20 30.0020000  0  4 15 13 06 02
  24503788.983    -3818340.303 2  -2975303.935 1
  22557042.587   -11915379.452 3  -9284712.255 1
  21471725.841   -15261450.632 3 -11891992.044 3
  21689524.155     1686602.524 4   1314270.124 3
 91  4 24 23 20 45.0020000  0  4 15 13 06 02
  24504757.313    -3813251.672 2  -2971338.731 1
  22549333.116   -11955889.376 3  -9316278.324 1
  21470110.858   -15269947.723 3 -11898613.133 3
  21692212.396     1700737.091 4   1325284.069 3
 91  4 24 23 21  0.0020000  0  4 15 13 06 02
  24505748.729    -3808028.551 2  -2967268.748 1
  22541650.937   -11996295.378 3  -9347763.402 1
  21468507.567   -15278363.972 3 -11905171.228 3
  21694908.734     1714916.194 4   1336332.722 3
 91  4 24 23 21 15.0020000  0  4 15 13 06 02
  24506776.111    -3802669.560 2  -2963092.897 1
  22533980.449   -12036596.050 3  -9379166.369 1
  21466921.360   -15286697.833 3 -11911665.135 3
  21697619.154     1729140.776 4   1347416.806 3
 91  4 24 23 21 30.0020000  0  4 15 13 06 02
  24507816.092    -3797174.733 2  -2958811.218 1
  22526333.345   -12076791.054 3  -9410487.014 1
  21465353.440   -15294949.094 3 -11918094.668 3
  21700329.574     1743410.996 4   1358536.451 3
 91  4 24 23 21 45.0020000  0  4 15 13 06 02
  24508885.458    -3791543.809 2  -2954423.453 1
  22518700.026   -12116880.082 3  -9441725.090 1
  21463794.525   -15303117.434 3 -11924459.601 3
  21703058.282     1757726.943 4   1369691.739 3
 91  4 24 23 22  0.0020000  0  4 15 13 06 02
  24509988.993    -3785775.858 2  -2949928.892 1
  22511091.888   -12156861.647 3  -9472879.435 1
  21462260.791   -15311201.617 3 -11930758.949 3
  21705789.695     1772089.517 4   1380883.361 3
 91  4 24 23 22 15.0020000  0  4 15 13 06 02
  24511107.517    -3779871.105 2  -2945327.753 1
  22503505.651   -12196735.957 3  -9503950.204 1
  21460736.043   -15319201.695 3 -11936992.767 3
  21708534.893     1786498.451 4   1392111.107 3
 91  4 24 23 22 30.0020000  0  4 15 13 06 02
  24512250.628    -3773829.396 2  -2940619.867 1
  22495936.479   -12236502.804 3  -9534937.242 1
  21459231.991   -15327117.668 3 -11943161.032 3
  21711283.390     1800953.406 4   1403374.706 3
 91  4 24 23 22 45.0020000  0  4 15 13 06 02
  24513429.705    -3767650.653 2  -2935805.273 1
  22488390.115   -12276161.764 3  -9565840.206 1
  21457740.207   -15334949.012 3 -11949263.362 3
  21714041.781     1815454.561 4   1414674.305 3
 91  4 24 23 23  0.0020000  0  4 15 13 06 02
  24514643.262    -3761334.800 2  -2930883.783 1
  22480867.117   -12315712.688 3  -9596658.987 1
  21456267.635   -15342695.567 3 -11955299.620 3
  21716810.973     1830001.910 4   1426009.905 3
 91  4 24 23 23 15.0020000  0  4 15 13 06 02
  24515861.916    -3754883.525 2  -2925856.781 1
  22473358.218   -12355156.722 3  -9627394.456 1
  21454810.036   -15350358.664 3 -11961270.849 3
  21719586.448     1844593.738 4   1437380.163 3
 91  4 24 23 23 30.0020000  0  4 15 13 06 02
  24517111.753    -3748295.895 2  -2920723.537 1
  22465874.204   -12394492.896 3  -9658045.892 1
  21453366.240   -15357937.391 3 -11967176.331 3
  21722373.317     1859230.815 4   1448785.682 3
 91  4 24 23 23 45.0020000  0  4 15 13 06 02
  24518402.668    -3741571.094 2  -2915483.435 1
  22458409.070   -12433720.156 3  -9688612.472 1
  21451940.138   -15365430.658 3 -11973015.222 3
  21725166.486     1873913.707 4   1460226.896 3
 91  4 24 23 24  0.0020000  0  4 15 13 06 02
  24519709.759    -3734709.853 2  -2910136.995 1
  22450964.319   -12472839.176 3  -9719094.690 1
  21450532.901   -15372839.183 3 -11978788.086 3
  21727969.236     1888641.520 4   1471703.110 3
 91  4 24 23 24 15.0020000  0  4 15 13 06 02
  24521036.638    -3727711.816 2  -2904683.885 1
  22443543.858   -12511849.213 3  -9749492.013 1
  21449134.981   -15380162.386 3 -11984494.465 3
  21730781.600     1903414.709 4   1483214.682 3
 91  4 24 23 24 30.0020000  0  4 15 13 06 02
  24522392.293    -3720577.458 2  -2899124.588 1
  22436135.979   -12550750.773 3  -9779804.786 1
  21447758.630   -15387400.626 3 -11990134.637 3
  21733599.339     1918232.493 4   1494761.000 3
 91  4 24 23 24 45.0020000  0  4 15 13 06 02
  24523781.540    -3713306.826 2  -2893459.161 1
  22428756.596   -12589543.727 3  -9810032.964 1
  21446397.269   -15394553.713 3 -11995708.451 3
  21736427.286     1933094.866 4   1506342.059 2
 91  4 24 23 25  0.0020000  0  4 15 13 06 02
  24525175.272    -3705898.732 2  -2887686.577 1
  22421395.483   -12628226.667 3  -9840175.407 1
  21445054.195   -15401620.306 3 -12001214.869 3
  21739264.517     1948002.803 4   1517958.642 3
 91  4 24 23 25 15.0020000  0  4 15 13 06 02
  24526620.568    -3698353.732 2  -2881807.283 1
  22414053.566   -12666799.493 3  -9870232.012 1
  21443722.813   -15408600.588 3 -12006654.039 3
  21742111.957     1962955.729 4   1529610.270 3
 91  4 24 23 25 30.0020000  0  4 15 13 06 02
  24528081.762    -3690671.604 2  -2875821.198 1
  22406735.346   -12705261.748 3  -9900202.500 1
  21442411.220   -15415494.085 3 -12012025.579 3
  21744965.678     1977953.822 4   1541297.088 3
 91  4 24 23 25 45.0020000  0  4 15 13 06 02
  24529569.341    -3682850.616 2  -2869726.875 1
  22399438.991   -12743611.205 3  -9930085.056 1
  21441118.822   -15422298.962 3 -12017328.052 3
  21747829.590     1992998.800 4   1553020.462 3
 91  4 24 23 26  0.0020000  0  4 15 13 06 02
  24531087.179    -3674892.366 2  -2863525.596 1
  22392161.221   -12781849.686 3  -9959881.157 1
  21439842.600   -15429016.680 3 -12022562.626 3
  21750700.710     2008088.890 4   1564778.970 3
 91  4 24 23 26 15.0020000  0  4 15 13 06 02
  24532615.521    -3666816.396 2  -2857232.598 1
  22384903.256   -12819996.797 3  -9989606.088 1
  21438574.476   -15435666.885 3 -12027744.583 3
  21753574.219     2023204.143 4   1576557.090 3
 91  4 24 23 26 30.0020000  0  4 15 13 06 02
  24534179.549    -3658626.595 2  -2850850.882 1
  22377659.671   -12858055.792 3 -10019262.312 1
  21437322.248   -15442252.876 3 -12032876.503 3
  21756459.421     2038340.777 4   1588351.873 3
 91  4 24 23 26 45.0020000  0  4 15 13 06 02
  24535772.632    -3650301.870 2  -2844364.026 1
  22370440.359   -12896005.433 3 -10048833.359 1
  21436086.511   -15448753.490 3 -12037941.901 3
  21759346.717     2053519.946 4   1600179.798 3
 91  4 24 23 27  0.0020000  0  4 15 13 06 02
  24537369.641    -3641837.151 2  -2837768.095 1
  22363236.961   -12933840.689 3 -10078315.257 1
  21434867.858   -15455163.673 3 -12042936.833 3
  21762242.406     2068746.243 4   1612044.442 3
 91  4 24 23 27 15.0020000  0  4 15 13 06 02
  24539014.289    -3633229.599 2  -2831060.889 1
  22356057.523   -12971558.223 3 -10107705.435 1
  21433661.192   -15461480.257 3 -12047858.836 2
  21765148.600     2084022.577 4   1623948.069 3
 91  4 24 23 27 30.0020000  0  4 15 13 06 02
  24540676.649    -3624481.059 2  -2824243.788 1
  22348907.174   -13009159.686 3 -10137005.158 1
  21432477.911   -15467704.694 3 -12052709.024 3
  21768067.079     2099347.470 4   1635889.523 3
 91  4 24 23 27 45.0020000  0  4 15 13 06 02
  24542371.065    -3615585.985 2  -2817312.504 1
  22341770.314   -13046639.370 3 -10166209.997 1
  21431312.603   -15473831.290 3 -12057482.970 3
  21770992.451     2114726.069 4   1647872.845 2
 91  4 24 23 28  0.0020000  0  4 15 13 06 02
  24544091.587    -3606544.999 2  -2810267.544 1
  22334661.933   -13083997.573 3 -10195320.169 1
  21430166.210   -15479860.559 3 -12062181.088 3
  21773929.515     2130157.549 4   1659897.374 2
 91  4 24 23 28 15.0020000  0  4 15 13 06 02
  24545843.571    -3597356.334 2  -2803107.497 1
  22327579.047   -13121232.637 3 -10224334.389 1
  21429036.291   -15485790.935 3 -12066802.150 3
  21776875.582     2145643.385 4   1671964.252 3
 91  4 24 23 28 30.0020000  0  4 15 13 06 02
  24547618.939    -3587994.193 2  -2795812.279 1
  22320517.432   -13158318.278 3 -10253232.190 2
  21427933.350   -15491596.106 3 -12071325.636 2
  21779836.937     2161209.615 4   1684093.762 3
 91  4 24 23 28 45.0020000  0  4 15 13 06 02
  24549427.288    -3578476.755 2  -2788396.046 1
  22313489.985   -13195272.443 3 -10282027.528 1
  21426848.697   -15497293.933 3 -12075765.491 3
  21782810.576     2176838.071 4   1696271.805 3
 91  4 24 23 29  0.0020000  0  4 15 13 06 02
  24551275.213    -3568806.335 2  -2780860.607 1
  22306482.048   -13232096.799 3 -10310721.700 1
  21425782.332   -15502886.337 3 -12080123.194 3
  21785796.500     2192526.513 4   1708496.572 3
 91  4 24 23 29 15.0020000  0  4 15 13 06 02
  24553141.706    -3558980.376 2  -2773203.979 1
  22299498.680   -13268789.108 3 -10339312.997 1
  21424738.460   -15508370.997 3 -12084396.941 3
  21788797.135     2208276.944 4   1720769.637 3
 91  4 24 23 29 30.0020000  0  4 15 13 06 02
  24555038.492    -3548999.099 2  -2765426.268 1
  22292540.493   -13305349.068 3 -10367801.160 1
  21423716.470   -15513747.676 3 -12088586.550 3
  21791805.256     2224089.354 4   1733090.995 3
 91  4 24 23 29 45.0020000  0  4 15 13 06 02
  24556973.966    -3538859.660 2  -2757525.390 1
  22285608.097   -13341773.653 3 -10396183.856 1
  21422714.566   -15519013.257 3 -12092689.585 3
  21794822.364     2239966.556 4   1745462.836 3
 91  4 24 23 30  0.0020000  0  4 15 13 06 02
  24558930.711    -3528563.474 2  -2749502.314 1
  22278704.774   -13378064.052 3 -10424461.967 1
  21421731.246   -15524169.042 3 -12096707.054 3
  21797859.853     2255906.955 4   1757883.930 3
 91  4 24 23 30 15.0020000  0  4 15 13 06 02
  24560917.139    -3518111.407 2  -2741357.821 1
  22271824.537   -13414220.958 3 -10452636.073 2
  21420771.903   -15529215.576 3 -12100639.406 3
  21800902.456     2271909.753 4   1770353.640 3
 91  4 24 23 30 30.0020000  0  4 15 13 06 02
  24562935.327    -3507502.052 2  -2733090.771 1
  22264967.683   -13450242.777 3 -10480704.904 1
  21419834.163   -15534151.417 3 -12104485.501 3
  21803958.233     2287976.417 4   1782873.117 3
 91  4 24 23 30 45.0020000  0  4 15 13 06 02
  24564982.324    -3496734.848 2  -2724700.653 1
  22258137.511   -13486128.574 3 -10508667.760 1
  21418914.397   -15538975.625 3 -12108244.603 3
  21807029.908     2304107.287 4   1795442.630 3
 91  4 24 23 31  0.0020000  0  4 15 13 06 02
  24567060.471    -3485820.155 2  -2716195.688 1
  22251336.114   -13521888.424 3 -10536532.464 1
  21418017.421   -15543698.637 3 -12111924.855 2
  21810114.164     2320291.874 4   1808053.998 3
 91  4 24 23 31 15.0020000  0  4 15 13 06 02
  24569173.710    -3474757.141 2  -2707575.087 1
  22244556.006   -13557521.391 3 -10564298.312 1
  21417136.918   -15548319.050 3 -12115525.159 3
  21813199.938     2336531.058 4   1820707.903 3
 91  4 24 23 31 30.0020000  0  4 15 13 06 02
  24571307.941    -3463532.030 2  -2698828.206 1
  22237797.799   -13593013.399 3 -10591954.303 1
  21416277.722   -15552822.935 3 -12119034.660 3
  21816302.482     2352838.627 4   1833415.107 3
 91  4 24 23 31 45.0020000  0  4 15 13 06 02
  24573471.541    -3452157.136 2  -2689964.531 1
  22231069.256   -13628376.613 3 -10619509.958 1
  21415440.094   -15557222.584 3 -12122462.938 2
  21819416.439     2369202.238 4   1846165.977 3
 91  4 24 23 32  0.0020000  0  4 15 13 06 02
  24575673.218    -3440604.731 2  -2680962.695 1
  22224370.990   -13663583.063 3 -10646943.451 1
  21414630.666   -15561489.857 3 -12125788.068 2
  21822545.367     2385649.394 4   1858981.952 3
 91  4 24 23 32 15.0020000  0  4 15 13 06 02
  24577897.981    -3428879.539 2  -2671826.102 1
  22217699.109   -13698637.078 3 -10674258.161 1
  21413843.102   -15565629.298 3 -12129013.584 2
  21825694.085     2402175.412 4   1871859.359 2
 91  4 24 23 32 30.0020000  0  4 15 13 06 02
  24580163.508    -3416984.150 2  -2662556.927 1
  22211058.708   -13733540.968 3 -10701455.887 1
  21413078.626   -15569643.112 3 -12132141.224 2
  21828851.196     2418777.558 4   1884796.101 3
 91  4 24 23 32 45.0020000  0  4 15 13 06 02
  24582457.217    -3404924.158 2  -2653159.488 1
  22204447.082   -13768300.081 3 -10728540.822 1
  21412338.143   -15573536.894 3 -12135175.328 3
  21832025.111     2435450.228 4   1897787.801 3
 91  4 24 23 33  0.0020000  0  4 15 13 06 02
  24584780.312    -3392704.076 2  -2643637.296 1
  22197853.744   -13802919.167 3 -10755516.607 2
  21411619.543   -15577315.170 3 -12138119.414 3
  21835210.107     2452188.713 4   1910830.796 3
 91  4 24 23 33 15.0020000  0  4 15 13 06 02
  24587139.686    -3380326.157 2  -2633992.158 1
  22191294.591   -13837400.285 3 -10782384.933 1
  21410924.623   -15580979.912 3 -12140975.040 3
  21838406.184     2468990.770 4   1923923.301 3
 91  4 24 23 33 30.0020000  0  4 15 13 06 02
  24589523.019    -3367778.949 2  -2624215.018 1
  22184761.509   -13871731.422 3 -10809136.358 1
  21410249.195   -15584519.208 3 -12143732.910 3
  21841618.455     2485867.957 4   1937074.366 3
 91  4 24 23 33 45.0020000  0  4 15 13 06 02
  24591952.247    -3355060.865 2  -2614304.811 1
  22178256.905   -13905910.655 3 -10835769.425 1
  21409598.040   -15587931.303 3 -12146391.669 3
  21844845.437     2502821.793 4   1950285.153 3
 91  4 24 23 34  0.0020000  0  4 15 13 06 02
  24594397.947    -3342192.671 2  -2604277.604 1
  22171777.500   -13939958.410 3 -10862300.039 1
  21408969.972   -15591236.642 3 -12148967.238 3
  21848084.389     2519831.559 4   1963539.518 3
 91  4 24 23 34 15.0020000  0  4 15 13 06 02
  24596871.533    -3329175.163 2  -2594134.069 1
  22165322.071   -13973875.254 3 -10888728.662 1
  21408360.506   -15594435.936 3 -12151460.167 3
  21851330.234     2536896.306 4   1976836.721 3
 91  4 24 23 34 30.0020000  0  4 15 13 06 02
  24599368.816    -3316008.641 2  -2583874.412 1
  22158894.824   -14007661.326 3 -10915055.353 1
  21407772.014   -15597529.049 3 -12153870.375 3
  21854586.881     2554015.688 4   1990176.506 3
 91  4 24 23 34 45.0020000  0  4 15 13 06 02
  24601911.644    -3302691.899 2  -2573497.685 1
  22152490.053   -14041315.146 3 -10941279.010 1
  21407204.498   -15600514.604 3 -12156196.764 3
  21857853.126     2571191.041 4   2003559.902 3
 91  4 24 23 35  0.0020000  0  4 15 13 06 02
  24604479.671    -3289226.525 2  -2563005.130 1
  22146110.167   -14074838.217 3 -10967400.793 1
  21406658.272   -15603394.027 3 -12158440.455 3
  21861134.360     2588420.576 4   2016985.522 3
 91  4 24 23 35 15.0020000  0  4 15 13 06 02
  24607059.389    -3275613.311 2  -2552397.385 1
  22139755.460   -14108231.024 3 -10993421.051 2
  21406130.647   -15606167.924 3 -12160601.922 3
  21864423.081     2605703.572 4   2030452.782 3
 91  4 24 23 35 30.0020000  0  4 15 13 06 02
  24609681.075    -3261853.049 2  -2541675.059 1
  22133424.155   -14141494.172 3 -11019340.276 1
  21405620.699   -15608836.942 3 -12162681.661 3
  21867718.100     2623039.091 4   2043960.981 3
 91  4 24 23 35 45.0020000  0  4 15 13 06 02
  24612328.238    -3247945.671 2  -2530838.146 1
  22127120.421   -14174627.342 3 -11045158.235 1
  21405135.339   -15611400.592 3 -12164679.302 3
  21871029.593     2640427.400 4   2057510.310 3
 91  4 24 23 36  0.0020000  0  4 15 13 06 02
  24615006.584    -3233892.211 2  -2519887.287 1
  22120840.053   -14207631.182 3 -11070875.424 1
  21404666.155   -15613859.772 3 -12166595.531 3
  21874346.810     2657867.273 4   2071099.815 3
 91  4 24 23 36 15.0020000  0  4 15 13 06 02
  24617702.922    -3219691.609 2  -2508821.869 1
  22114583.696   -14240504.558 3 -11096490.935 1
  21404215.276   -15616213.112 3 -12168429.286 3
  21877675.404     2675359.716 4   2084730.288 3
 91  4 24 23 36 30.0020000  0  4 15 13 06 02
  24620429.833    -3205344.702 2  -2497642.456 1
  22108355.207   -14273248.001 3 -11122005.208 1
  21403787.763   -15618461.343 3 -12170181.146 3
  21881017.784     2692903.793 4   2098400.989 3
 91  4 24 23 36 45.0020000  0  4 15 13 06 02
  24623196.024    -3190854.124 2  -2486351.028 1
  22102142.912   -14305863.918 3 -11147420.112 1
  21403383.040   -15620606.614 3 -12171852.776 3
  21884364.962     2710497.167 4   2112110.105 3
 91  4 24 23 37  0.0020000  0  4 15 13 06 02
  24625978.985    -3176220.360 2  -2474948.053 1
  22095962.987   -14338352.199 3 -11172735.571 1
  21402993.621   -15622649.004 3 -12173444.247 3
  21887721.442     2728139.407 4   2125857.308 3
 91  4 24 23 37 15.0020000  0  4 15 13 06 02
  24628785.939    -3161449.588 2  -2463438.335 1
  22089805.242   -14370719.072 3 -11197956.412 1
  21402626.975   -15624594.860 3 -12174960.480 3
  21891086.909     2745824.071 4   2139637.557 3
 91  4 24 23 37 30.0020000  0  4 15 13 06 02
  24631625.282    -3146536.601 2  -2451817.832 1
  22083669.693   -14402959.044 3 -11223078.373 1
  21402272.317   -15626438.523 3 -12176397.081 3
  21894460.175     2763556.500 4   2153455.020 2
 91  4 24 23 37 45.0020000  0  4 15 13 06 02
  24634492.789    -3131482.507 2  -2440087.313 1
  22077555.119   -14435073.024 3 -11248102.139 1
  21401939.244   -15628180.896 3 -12177754.774 3
  21897843.929     2781335.552 4   2167308.835 3
 91  4 24 23 38  0.0020000  0  4 15 13 06 02
  24637374.692    -3116287.847 2  -2428247.246 1
  22071471.432   -14467061.401 3 -11273028.063 2
  21401625.961   -15629822.408 3 -12179033.868 3
  21901236.095     2799160.491 4   2181198.379 3
 91  4 24 23 38 15.0020000  0  4 15 13 06 02
  24640300.378    -3100952.461 2  -2416297.596 1
  22065409.331   -14498923.784 3 -11297855.779 2
  21401333.373   -15631362.565 3 -12180233.977 3
  21904636.043     2817031.477 4   2195123.837 3
 91  4 24 23 38 30.0020000  0  4 15 13 06 02
  24643245.835    -3085475.751 2  -2404237.801 1
  22059367.909   -14530659.130 3 -11322584.539 2
  21401060.853   -15632800.539 3 -12181354.471 3
  21908046.775     2834949.192 4   2209085.689 3
 91  4 24 23 38 45.0020000  0  4 15 13 06 02
  24646222.773    -3069858.785 2  -2392068.716 1
  22053353.482   -14562268.369 3 -11347215.018 2
  21400805.434   -15634137.164 3 -12182395.991 3
  21911464.400     2852912.609 4   2223083.155 3
 91  4 24 23 39  0.0020000  0  4 15 13 06 02
  24649215.904    -3054101.987 2  -2379790.626 1
  22047363.921   -14593751.764 3 -11371747.438 1
  21400571.287   -15635372.455 3 -12183358.544 3
  21914889.232     2870921.321 4   2237115.916 3
 91  4 24 23 39 15.0020000  0  4 15 13 06 02
  24652240.515    -3038205.850 2  -2367403.978 1
  22041396.558   -14625109.270 3 -11396181.762 1
  21400352.444   -15636506.567 3 -12184242.257 3
  21918326.960     2888974.980 4   2251183.700 3
 91  4 24 23 39 30.0020000  0  4 15 13 06 02
  24655292.401    -3022170.123 2  -2354908.551 1
  22035453.781   -14656340.629 3 -11420517.780 1
  21400156.984   -15637539.234 3 -12185046.917 3
  21921770.970     2907073.615 4   2265286.530 3
 91  4 24 23 39 45.0020000  0  4 15 13 06 02
  24658367.060    -3005995.263 2  -2342304.755 1
  22029536.168   -14687446.008 3 -11444755.668 2
  21399978.904   -15638470.701 3 -12185772.727 3
  21925222.483     2925216.668 4   2279423.975 3
 91  4 24 23 40  0.0020000  0  4 15 13 06 02
  24661470.215    -2989681.576 2  -2329592.774 1
  22023637.454   -14718424.996 3 -11468895.025 2
  21399824.801   -15639300.561 3 -12186419.362 3
  21928685.392     2943404.553 4   2293596.344 3
 91  4 24 23 40 15.0020000  0  4 15 13 06 02
  24664603.349    -2973228.778 2  -2316772.367 1
  22017768.422   -14749277.697 3 -11492936.005 1
  21399686.299   -15640028.713 3 -12186986.741 3
  21932150.691     2961637.004 4   2307803.444 3
 91  4 24 23 40 30.0030000  0  4 15 13 06 02
  24667762.260    -2956636.077 2  -2303842.970 1
  22011921.869   -14780006.272 3 -11516880.254 1
  21399563.697   -15640655.266 3 -12187474.948 3
  21935633.374     2979914.913 4   2322045.972 3
 91  4 24 23 40 45.0030000  0  4 15 13 06 02
  24670953.556    -2939905.595 2  -2290806.229 1
  22006097.196   -14810605.955 3 -11540724.079 1
  21399467.162   -15641179.753 3 -12187883.621 3
  21939119.072     2998236.034 4   2336322.167 3
 91  4 24 23 41  0.0030000  0  4 15 13 06 02
  24674153.246    -2923037.317 2  -2277662.056 1
  22000300.705   -14841079.709 3 -11564469.794 1
  21399387.118   -15641603.025 3 -12188213.436 3
  21942613.740     3016600.499 4   2350632.146 3
 91  4 24 23 41 15.0030000  0  4 15 13 06 02
  24677388.603    -2906031.383 2  -2264410.692 1
  21994523.409   -14871427.493 3 -11588117.304 2
  21399322.064   -15641924.986 3 -12188464.304 3
  21946113.521     3035007.970 4   2364975.619 3
 91  4 24 23 41 30.0030000  0  4 15 13 06 02
  24680656.942    -2888887.748 2  -2251051.900 1
  21988766.495   -14901648.839 3 -11611666.321 2
  21399283.691   -15642145.229 3 -12188635.902 3
  21949628.588     3053458.665 4   2379352.776 3
 91  4 24 23 41 45.0030000  0  4 15 13 06 02
  24683936.972    -2871607.488 2  -2237586.791 1
  21983046.750   -14931744.494 3 -11635117.379 1
  21399258.510   -15642264.297 3 -12188728.673 3
  21953145.749     3071951.742 4   2393762.976 3
 91  4 24 23 42  0.0030000  0  4 15 13 06 02
  24687257.469    -2854190.687 2  -2224015.203 1
  21977340.808   -14961714.515 3 -11658470.549 1
  21399257.899   -15642282.530 3 -12188742.861 3
  21956673.119     3090486.868 4   2408205.939 3
 91  4 24 23 42 15.0030000  0  4 15 13 06 02
  24690600.146    -2836637.171 2  -2210337.105 1
  21971660.640   -14991558.109 3 -11681725.206 2
  21399270.795   -15642199.161 3 -12188677.881 3
  21960207.364     3109064.345 4   2422681.880 3
 91  4 24 23 42 30.0030000  0  4 15 13 06 02
  24693967.724    -2818947.521 2  -2196552.914 1
  21966008.043   -15021275.808 3 -11704881.779 2
  21399305.870   -15642014.604 3 -12188534.040 3
  21963750.020     3127683.740 4   2437190.506 3
 91  4 24 23 42 45.0030000  0  4 15 13 06 02
  24697352.682    -2801121.449 2  -2182662.481 1
  21960375.846   -15050867.183 3 -11727939.895 2
  21399361.327   -15641728.215 3 -12188310.875 3
  21967305.851     3146345.236 4   2451731.939 3
 91  4 24 23 43  0.0030000  0  4 15 13 06 02
  24700771.214    -2783157.539 2  -2168664.640 1
  21954769.736   -15080330.746 3 -11750898.411 1
  21399435.071   -15641338.528 3 -12188007.191 3
  21970861.996     3165050.156 4   2466307.204 3
 91  4 24 23 43 15.0030000  0  4 15 13 06 02
  24704223.618    -2765056.098 2  -2154559.565 1
  21949185.492   -15109666.349 3 -11773757.236 1
  21399533.718   -15640845.461 3 -12187622.964 3
  21974428.314     3183798.557 4   2480916.352 3
 91  4 24 23 43 30.0030000  0  4 15 13 06 02
  24707691.325    -2746816.143 2  -2140346.590 1
  21943627.650   -15138872.641 3 -11796515.292 2
  21399642.834   -15640247.748 3 -12187157.184 3
  21978007.546     3202591.286 4   2495560.040 3
 91  4 24 23 43 45.0030000  0  4 15 13 06 02
  24711183.306    -2728438.622 2  -2126026.427 1
  21938094.971   -15167950.416 3 -11819173.211 2
  21399775.944   -15639545.903 3 -12186610.275 3
  21981589.761     3221427.595 4   2510237.683 3
 91  4 24 23 44  0.0030000  0  4 15 13 06 02
  24714715.160    -2709923.165 2  -2111598.819 1
  21932585.990   -15196899.091 3 -11841730.539 2
  21399929.436   -15638739.572 3 -12185981.940 3
  21985180.981     3240307.584 4   2524949.365 3
 91  4 24 23 44 15.0030000  0  4 15 13 06 02
  24718259.613    -2691270.851 2  -2097064.558 1
  21927102.189   -15225719.297 3 -11864187.763 1
  21400104.811   -15637829.312 3 -12185272.625 3
  21988784.783     3259230.580 4   2539694.545 3
 91  4 24 23 44 30.0030000  0  4 15 13 06 02
  24721832.825    -2672480.502 2  -2082422.604 1
  21921644.163   -15254410.031 3 -11886544.074 2
  21400296.676   -15636813.770 3 -12184481.270 3
  21992393.383     3278197.592 4   2554474.043 3
 91  4 24 23 44 45.0030000  0  4 15 13 06 02
  24725423.154    -2653553.737 2  -2067674.488 1
  21916207.128   -15282972.639 3 -11908800.581 2
  21400509.534   -15635694.546 3 -12183609.120 3
  21996015.769     3297206.964 4   2569286.534 2
 91  4 24 23 45  0.0030000  0  4 15 13 06 02
  24729059.326    -2634493.153 2  -2052822.083 1
  21910794.367   -15311409.212 3 -11930958.859 1
  21400743.367   -15634473.799 3 -12182657.868 3
  21999634.578     3316256.230 4   2584130.122 3
 91  4 24 23 45 15.0030000  0  4 15 13 06 02
  24732719.492    -2615296.285 2  -2037863.482 1
  21905410.399   -15339716.898 3 -11953016.708 2
  21400995.801   -15633148.694 3 -12181625.299 3
  22003269.859     3335347.829 4   2599006.699 3
 91  4 24 23 45 30.0030000  0  4 15 13 06 02
  24736388.959    -2595962.986 2  -2022798.602 1
  21900046.220   -15367895.303 3 -11974973.825 2
  21401265.006   -15631718.729 3 -12180511.020 3
  22006909.626     3354482.016 4   2613916.465 2
 91  4 24 23 45 45.0030000  0  4 15 13 06 02
  24740102.784    -2576493.155 2  -2007627.288 1
  21894709.908   -15395944.016 3 -11996829.887 2
  21401555.203   -15630183.443 3 -12179314.672 3
  22010557.803     3373659.243 4   2628859.752 2
 91  4 24 23 46  0.0030000  0  4 15 13 06 02
  24743836.397    -2556886.193 2  -1992349.089 1
  21889397.591   -15423862.195 3 -12018584.227 2
  21401871.488   -15628542.145 3 -12178035.713 3
  22014215.282     3392879.817 4   2643836.824 3
 91  4 24 23 46 15.0030000  0  4 15 13 06 02
  24747591.300    -2537142.218 2  -1976964.125 1
  21884108.343   -15451649.855 3 -12040236.871 1
  21402204.561   -15626794.514 3 -12176673.904 3
  22017881.136     3412143.833 4   2658847.740 3
 91  4 24 23 46 30.0030000  0  4 15 13 06 02
  24751365.084    -2517263.144 2  -1961473.899 1
  21878844.589   -15479308.622 3 -12061789.059 1
  21402554.420   -15624942.346 3 -12175230.631 3
  22021557.199     3431449.324 4   2673890.996 2
 91  4 24 23 46 45.0030000  0  4 15 13 06 02
  24755181.447    -2497247.724 2  -1945877.490 1
  21873607.814   -15506837.006 3 -12083239.679 2
  21402927.959   -15622984.123 3 -12173704.732 3
  22025239.841     3450797.723 4   2688967.671 2
 91  4 24 23 47  0.0030000  0  4 15 13 06 02
  24759016.394    -2477094.554 2  -1930173.707 1
  21868391.734   -15534233.252 3 -12104587.330 2
  21403322.491   -15620918.051 3 -12172094.786 3
  22028926.391     3470190.390 4   2704078.836 3
 91  4 24 23 47 15.0030000  0  4 15 13 06 02
  24762872.020    -2456805.036 2  -1914363.679 1
  21863201.115   -15561499.075 3 -12125833.347 2
  21403734.997   -15618745.673 3 -12170401.996 3
  22032626.134     3489625.619 4   2719223.187 2
 91  4 24 23 47 30.0030000  0  4 15 13 06 02
  24766765.128    -2436379.741 2  -1898447.761 1
  21858037.491   -15588634.349 3 -12146977.638 2
  21404171.497   -15616466.912 3 -12168626.330 3
  22036331.269     3509103.310 4   2734400.616 2
 91  4 24 23 47 45.0030000  0  4 15 13 06 02
  24770671.115    -2415817.697 2  -1882425.393 1
  21852901.455   -15615638.025 3 -12168019.394 1
  21404622.986   -15614080.727 3 -12166766.947 3
  22040049.596     3528624.255 4   2749611.741 2
 91  4 24 23 48  0.0030000  0  4 15 13 06 02
  24774613.695    -2395120.060 2  -1866297.334 1
  21847788.786   -15642510.758 3 -12188959.094 2
  21405096.062   -15611587.662 3 -12164824.283 3
  22043770.314     3548187.729 4   2764856.014 2
 91  4 24 23 48 15.0030000  0  4 15 13 06 02
  24778578.141    -2374286.638 2  -1850063.494 1
  21842700.721   -15669252.137 3 -12209796.465 2
  21405591.910   -15608987.288 3 -12162798.003 3
  22047499.426     3567794.017 4   2780133.644 2
 91  4 24 23 48 30.0030000  0  4 15 13 06 02
  24782569.581    -2353317.147 2  -1833723.600 1
  21837632.113   -15695861.632 3 -12230531.050 2
  21406107.564   -15606279.097 3 -12160687.716 3
  22051239.653     3587443.273 4   2795444.765 2
 91  4 24 23 48 45.0030000  0  4 15 13 06 02
  24786586.499    -2332213.519 2  -1817279.164 1
  21832594.707   -15722340.900 3 -12251164.172 2
  21406641.488   -15603464.612 3 -12158494.598 3
  22054988.850     3607133.805 4   2810788.042 2
 91  4 24 23 49  0.0030000  0  4 15 13 06 02
  24790624.706    -2310975.351 2  -1800729.919 1
  21827583.981   -15748689.180 3 -12271695.215 2
  21407195.515   -15600543.238 3 -12156218.188 3
  22058745.550     3626866.105 4   2826163.866 2
 91  4 24 23 49 15.0030000  0  4 15 13 06 02
  24794694.987    -2289600.993 2  -1784074.573 1
  21822596.029   -15774904.738 3 -12292122.853 1
  21407773.501   -15597513.220 3 -12153857.125 3
  22062505.252     3646641.570 4   2841573.333 2
 91  4 24 23 49 30.0030000  0  4 15 13 06 02
  24798788.651    -2268091.342 2  -1767313.734 1
  21817633.867   -15800987.968 3 -12312447.359 2
  21408370.996   -15594374.855 3 -12151411.631 3
  22066278.425     3666459.571 4   2857015.944 3
 91  4 24 23 49 45.0030000  0  4 15 13 06 02
  24802908.700    -2246444.898 2  -1750446.362 1
  21812692.088   -15826937.442 3 -12332667.657 1
  21408990.671   -15591126.360 3 -12148880.325 3
  22070057.322     3686321.823 4   2872493.022 3
 91  4 24 23 50  0.0030000  0  4 15 13 06 02
  24807052.429    -2224664.503 2  -1733474.618 1
  21807778.490   -15852755.637 3 -12352785.647 2
  21409630.414   -15587770.362 3 -12146265.250 3
  22073844.299     3706225.370 4   2888002.298 2
 91  4 24 23 50 15.0030000  0  4 15 13 06 02
  24811227.044    -2202748.544 2  -1716397.218 1
  21802890.981   -15878440.769 3 -12372799.962 2
  21410287.868   -15584305.140 3 -12143565.062 3
  22077642.373     3726171.978 4   2903545.118 2
 91  4 24 23 50 30.0030000  0  4 15 13 06 02
  24815423.246    -2180695.843 2  -1699213.285 1
  21798027.745   -15903991.271 3 -12392709.363 2
  21410969.596   -15580729.152 3 -12140778.567 3
  22081443.135     3746162.882 4   2919122.456 2
 91  4 24 23 50 45.0030000  0  4 15 13 06 02
  24819638.922    -2158508.270 2  -1681924.158 1
  21793193.284   -15929408.527 3 -12412514.938 2
  21411672.909   -15577043.707 3 -12137906.781 3
  22085255.903     3766196.547 4   2934733.116 2
 91  4 24 23 51  0.0030000  0  4 15 13 06 02
  24823884.280    -2136186.556 2  -1664530.665 1
  21788383.708   -15954693.255 3 -12432217.248 2
  21412391.212   -15573249.451 3 -12134950.208 3
  22089080.642     3786272.061 4   2950376.389 3
 91  4 24 23 51 15.0030000  0  4 15 13 06 02
  24828166.512    -2113730.322 2  -1647032.301 1
  21783595.734   -15979844.933 3 -12451815.877 2
  21413134.993   -15569345.960 3 -12131908.518 3
  22092902.693     3806389.794 4   2966052.546 3
 91  4 24 23 51 30.0030000  0  4 15 13 06 02
  24832463.139    -2091138.807 2  -1629428.492 1
  21778834.128   -16004862.584 3 -12471310.081 2
  21413897.969   -15565331.980 3 -12128780.732 3
  22096740.642     3826550.585 4   2981762.260 2
 91  4 24 23 51 45.0030000  0  4 15 13 06 02
  24836782.260    -2068411.572 2  -1611718.881 1
  21774098.610   -16029745.470 3 -12490699.258 2
  21414685.218   -15561206.627 3 -12125566.150 3
  22100586.984     3846755.096 4   2997506.045 2
 91  4 24 23 52  0.0030000  0  4 15 13 06 02
  24841134.048    -2045549.658 2  -1593904.392 1
  21769388.273   -16054494.191 3 -12509983.887 1
  21415489.272   -15556970.753 3 -12122265.458 3
  22104438.108     3867002.463 4   3013283.214 2
 91  4 24 23 52 15.0030000  0  4 15 13 06 02
  24845509.812    -2022553.160 2  -1575985.024 1
  21764706.711   -16079108.403 3 -12529163.735 2
  21416315.801   -15552624.008 3 -12118878.375 3
  22108300.347     3887292.706 4   3029093.803 2
 91  4 24 23 52 30.0030000  0  4 15 13 06 02
  24849913.462    -1999422.261 2  -1557960.951 1
  21760046.439   -16103588.337 3 -12548238.923 2
  21417164.807   -15548166.468 3 -12115404.955 3
  22112168.868     3907625.519 4   3044937.550 2
 91  4 24 23 52 45.0030000  0  4 15 13 06 02
  24854339.290    -1976158.975 2  -1539833.648 1
  21755411.050   -16127935.687 3 -12567210.801 2
  21418035.695   -15543599.801 3 -12111846.505 3
  22116044.282     3927999.024 4   3060813.019 2
